| time (UTC) | temp F | wind direction | speed MPH | gust MPH | rain 1hr in | rain 24hr in | rain mn in | humidity % | barometer mb |
| 20260508060129 | 43 | 319 | 2.0 | 3.0 | 0.00 | 0.00 | 0.00 | 77 | 1012.4 |
| 20260508060024 | 43 | 320 | 3.0 | 3.0 | 0.00 | 0.00 | 0.00 | 78 | 1012.1 |
| 20260508055919 | 44 | 336 | 2.0 | 2.0 | 0.00 | 0.00 | 0.00 | 78 | 1011.8 |
| 20260508055813 | 44 | 345 | 1.0 | 2.0 | 0.00 | 0.00 | 0.00 | 79 | 1011.8 |
| 20260508055707 | 44 | 27 | 0.0 | 2.0 | 0.00 | 0.00 | 0.00 | 78 | 1011.8 |
| 20260508055619 | 44 | 27 | 1.0 | 2.0 | 0.00 | 0.00 | 0.00 | 78 | 1011.8 |
| 20260508055601 | 44 | 27 | 1.0 | 1.0 | 0.00 | 0.00 | 0.00 | 78 | 1011.8 |
| 20260508055455 | 44 | 21 | 1.0 | 1.0 | 0.00 | 0.00 | 0.00 | 77 | 1011.8 |
| 20260508055349 | 44 | 73 | 0.0 | 1.0 | 0.00 | 0.00 | 0.00 | 77 | 1011.4 |
| 20260508055243 | 44 | 119 | 0.0 | 0.0 | 0.00 | 0.00 | 0.00 | 77 | 1011.8 |
| 20260508055112 | 44 | 119 | 0.0 | 0.0 | 0.00 | 0.00 | 0.00 | 77 | 1011.8 |
| 20260508055032 | 44 | 119 | 0.0 | 0.0 | 0.00 | 0.00 | 0.00 | 77 | 1011.8 |
| 20260508054927 | 44 | 119 | 0.0 | 0.0 | 0.00 | 0.00 | 0.00 | 77 | 1011.8 |
| 20260508054821 | 44 | 119 | 0.0 | 1.0 | 0.00 | 0.00 | 0.00 | 77 | 1011.8 |
| 20260508054715 | 44 | 113 | 0.0 | 1.0 | 0.00 | 0.00 | 0.00 | 77 | 1011.8 |
| 20260508054610 | 44 | 113 | 0.0 | 3.0 | 0.00 | 0.00 | 0.00 | 77 | 1011.8 |
| 20260508054504 | 44 | 113 | 0.0 | 3.0 | 0.00 | 0.00 | 0.00 | 77 | 1011.8 |
| 20260508054359 | 44 | 104 | 0.0 | 3.0 | 0.00 | 0.00 | 0.00 | 78 | 1011.8 |
| 20260508054253 | 44 | 113 | 0.0 | 3.0 | 0.00 | 0.00 | 0.00 | 79 | 1011.8 |
| 20260508054148 | 44 | 73 | 0.0 | 3.0 | 0.00 | 0.00 | 0.00 | 80 | 1011.4 |
| 20260508054100 | 44 | 62 | 0.0 | 3.0 | 0.00 | 0.00 | 0.00 | 80 | 1011.8 |
| 20260508054042 | 44 | 61 | 0.0 | 3.0 | 0.00 | 0.00 | 0.00 | 80 | 1011.8 |
| 20260508053936 | 44 | 60 | 0.0 | 3.0 | 0.00 | 0.00 | 0.00 | 80 | 1011.8 |
| 20260508053830 | 44 | 59 | 0.0 | 3.0 | 0.00 | 0.00 | 0.00 | 81 | 1011.8 |
| 20260508053725 | 44 | 58 | 0.0 | 3.0 | 0.00 | 0.00 | 0.00 | 82 | 1011.8 |
| 20260508053619 | 44 | 28 | 0.0 | 1.0 | 0.00 | 0.00 | 0.00 | 82 | 1011.8 |
| 20260508053553 | 44 | 27 | 0.0 | 1.0 | 0.00 | 0.00 | 0.00 | 82 | 1011.8 |
| 20260508053513 | 44 | 19 | 0.0 | 1.0 | 0.00 | 0.00 | 0.00 | 81 | 1011.8 |
| 20260508053407 | 44 | 17 | 0.0 | 1.0 | 0.00 | 0.00 | 0.00 | 81 | 1012.1 |
| 20260508053301 | 44 | 10 | 0.0 | 1.0 | 0.00 | 0.00 | 0.00 | 80 | 1012.1 |
| 20260508053155 | 44 | 11 | 0.0 | 1.0 | 0.00 | 0.00 | 0.00 | 80 | 1012.1 |
| 20260508053049 | 44 | 349 | 1.0 | 1.0 | 0.00 | 0.00 | 0.00 | 79 | 1012.1 |
| 20260508052943 | 44 | 337 | 1.0 | 1.0 | 0.00 | 0.00 | 0.00 | 78 | 1012.1 |
| 20260508052837 | 44 | 343 | 0.0 | 1.0 | 0.00 | 0.00 | 0.00 | 78 | 1012.1 |
| 20260508052732 | 44 | 343 | 0.0 | 0.0 | 0.00 | 0.00 | 0.00 | 78 | 1011.8 |
| 20260508052627 | 44 | 342 | 0.0 | 0.0 | 0.00 | 0.00 | 0.00 | 77 | 1012.1 |
| 20260508052533 | 44 | 326 | 0.0 | 0.0 | 0.00 | 0.00 | 0.00 | 77 | 1011.8 |
| 20260508052415 | 44 | 193 | 0.0 | 0.0 | 0.00 | 0.00 | 0.00 | 77 | 1012.1 |
| 20260508052309 | 45 | 193 | 0.0 | 0.0 | 0.00 | 0.00 | 0.00 | 76 | 1011.8 |
| 20260508052206 | 45 | 193 | 0.0 | 0.0 | 0.00 | 0.00 | 0.00 | 77 | 1012.1 |
| 20260508052100 | 45 | 196 | 0.0 | 0.0 | 0.00 | 0.00 | 0.00 | 77 | 1011.8 |
| 20260508052033 | 45 | 196 | 0.0 | 0.0 | 0.00 | 0.00 | 0.00 | 76 | 1011.8 |
| 20260508051954 | 45 | 196 | 0.0 | 0.0 | 0.00 | 0.00 | 0.00 | 76 | 1011.8 |
| 20260508051848 | 45 | 196 | 0.0 | 0.0 | 0.00 | 0.00 | 0.00 | 76 | 1011.8 |
| 20260508051742 | 45 | 196 | 0.0 | 0.0 | 0.00 | 0.00 | 0.00 | 76 | 1011.8 |
| 20260508051637 | 45 | 193 | 0.0 | 1.0 | 0.00 | 0.00 | 0.00 | 76 | 1011.8 |
| 20260508051531 | 45 | 193 | 0.0 | 1.0 | 0.00 | 0.00 | 0.00 | 76 | 1011.8 |
| 20260508051426 | 45 | 193 | 0.0 | 2.0 | 0.00 | 0.00 | 0.00 | 76 | 1011.8 |
| 20260508051320 | 45 | 190 | 0.0 | 2.0 | 0.00 | 0.00 | 0.00 | 76 | 1011.8 |
| 20260508051214 | 45 | 190 | 0.0 | 2.0 | 0.00 | 0.00 | 0.00 | 76 | 1011.8 |
| 20260508051136 | 44 | 205 | 0.0 | 1.0 | 0.00 | 0.00 | 0.00 | 75 | 1011.8 |
| 20260508051132 | 44 | 202 | 0.0 | 0.0 | 0.00 | 0.00 | 0.00 | 74 | 1012.1 |
| 20260508051128 | 44 | 278 | 0.0 | 2.0 | 0.00 | 0.00 | 0.00 | 74 | 1012.4 |
| 20260508051123 | 45 | 207 | 1.0 | 3.0 | 0.00 | 0.00 | 0.00 | 75 | 1011.8 |
| 20260508051119 | 45 | 211 | 2.0 | 3.0 | 0.00 | 0.00 | 0.00 | 74 | 1012.1 |
| 20260508051115 | 45 | 191 | 0.0 | 2.0 | 0.00 | 0.00 | 0.00 | 76 | 1011.8 |
| 20260508051105 | 45 | 191 | 0.0 | 3.0 | 0.00 | 0.00 | 0.00 | 75 | 1011.8 |
| 20260508051100 | 45 | 190 | 0.0 | 3.0 | 0.00 | 0.00 | 0.00 | 76 | 1011.8 |
| 20260508051052 | 45 | 189 | 0.0 | 3.0 | 0.00 | 0.00 | 0.00 | 76 | 1011.8 |
| 20260508050830 | 45 | 188 | 0.0 | 3.0 | 0.00 | 0.00 | 0.00 | 75 | 1012.1 |
| 20260508050821 | 45 | 200 | 1.0 | 3.0 | 0.00 | 0.00 | 0.00 | 75 | 1011.8 |
| 20260508050800 | 45 | 206 | 1.0 | 3.0 | 0.00 | 0.00 | 0.00 | 75 | 1011.8 |
| 20260508050538 | 45 | 204 | 0.0 | 3.0 | 0.00 | 0.00 | 0.00 | 75 | 1011.8 |
| 20260508050529 | 45 | 202 | 1.0 | 3.0 | 0.00 | 0.00 | 0.00 | 75 | 1012.1 |
| 20260508050306 | 45 | 194 | 1.0 | 3.0 | 0.00 | 0.00 | 0.00 | 75 | 1012.1 |
| 20260508050257 | 45 | 201 | 0.0 | 3.0 | 0.00 | 0.00 | 0.00 | 74 | 1011.8 |
| 20260508050246 | 45 | 211 | 2.0 | 3.0 | 0.00 | 0.00 | 0.00 | 74 | 1012.1 |
| 20260508050027 | 45 | 186 | 2.0 | 3.0 | 0.00 | 0.00 | 0.00 | 74 | 1011.8 |
| 20260508045807 | 45 | 228 | 0.0 | 2.0 | 0.00 | 0.00 | 0.00 | 74 | 1012.1 |
| 20260508045803 | 45 | 187 | 2.0 | 3.0 | 0.00 | 0.00 | 0.00 | 74 | 1011.8 |
| 20260508045754 | 45 | 205 | 2.0 | 3.0 | 0.00 | 0.00 | 0.00 | 74 | 1012.1 |
| 20260508045746 | 45 | 177 | 1.0 | 2.0 | 0.00 | 0.00 | 0.00 | 74 | 1012.1 |
| 20260508045524 | 45 | 204 | 1.0 | 2.0 | 0.00 | 0.00 | 0.00 | 74 | 1012.1 |
| 20260508045515 | 45 | 210 | 1.0 | 2.0 | 0.00 | 0.00 | 0.00 | 75 | 1012.1 |
| 20260508045255 | 45 | 231 | 1.0 | 2.0 | 0.00 | 0.00 | 0.00 | 74 | 1012.1 |
| 20260508045247 | 45 | 173 | 1.0 | 2.0 | 0.00 | 0.00 | 0.00 | 75 | 1012.1 |
| 20260508045026 | 45 | 213 | 1.0 | 2.0 | 0.00 | 0.00 | 0.00 | 75 | 1012.1 |
| 20260508045016 | 45 | 243 | 1.0 | 2.0 | 0.00 | 0.00 | 0.00 | 75 | 1012.1 |
| 20260508045012 | 45 | 249 | 1.0 | 2.0 | 0.00 | 0.00 | 0.00 | 74 | 1012.1 |
| 20260508045003 | 45 | 198 | 1.0 | 2.0 | 0.00 | 0.00 | 0.00 | 75 | 1012.1 |
| 20260508044744 | 44 | 212 | 2.0 | 2.0 | 0.00 | 0.00 | 0.00 | 75 | 1012.4 |
| 20260508044735 | 44 | 222 | 2.0 | 2.0 | 0.00 | 0.00 | 0.00 | 74 | 1012.1 |
| 20260508044725 | 44 | 278 | 0.0 | 2.0 | 0.00 | 0.00 | 0.00 | 74 | 1012.4 |
| 20260508044504 | 44 | 334 | 0.0 | 2.0 | 0.00 | 0.00 | 0.00 | 74 | 1012.1 |
| 20260508044455 | 44 | 261 | 1.0 | 2.0 | 0.00 | 0.00 | 0.00 | 74 | 1011.8 |
| 20260508044230 | 44 | 281 | 1.0 | 2.0 | 0.00 | 0.00 | 0.00 | 74 | 1012.1 |
| 20260508044222 | 44 | 263 | 1.0 | 2.0 | 0.00 | 0.00 | 0.00 | 74 | 1012.1 |
| 20260508043956 | 44 | 240 | 1.0 | 2.0 | 0.00 | 0.00 | 0.00 | 74 | 1012.1 |
| 20260508043952 | 44 | 282 | 0.0 | 2.0 | 0.00 | 0.00 | 0.00 | 74 | 1012.1 |
| 20260508043943 | 44 | 291 | 0.0 | 2.0 | 0.00 | 0.00 | 0.00 | 74 | 1012.1 |
| 20260508043724 | 44 | 290 | 0.0 | 2.0 | 0.00 | 0.00 | 0.00 | 74 | 1012.1 |
| 20260508043715 | 44 | 307 | 0.0 | 1.0 | 0.00 | 0.00 | 0.00 | 74 | 1012.1 |
| 20260508043707 | 44 | 282 | 1.0 | 1.0 | 0.00 | 0.00 | 0.00 | 75 | 1012.1 |
| 20260508043441 | 44 | 258 | 0.0 | 1.0 | 0.00 | 0.00 | 0.00 | 75 | 1011.8 |
| 20260508043432 | 44 | 210 | 0.0 | 0.0 | 0.00 | 0.00 | 0.00 | 75 | 1012.1 |
| 20260508043207 | 44 | 210 | 0.0 | 0.0 | 0.00 | 0.00 | 0.00 | 73 | 1012.1 |
| 20260508043159 | 44 | 210 | 0.0 | 0.0 | 0.00 | 0.00 | 0.00 | 73 | 1011.8 |
| 20260508043148 | 44 | 202 | 0.0 | 0.0 | 0.00 | 0.00 | 0.00 | 74 | 1012.1 |
| 20260508042829 | 44 | 207 | 0.0 | 0.0 | 0.00 | 0.00 | 0.00 | 74 | 1012.1 |
| 20260508042724 | 44 | 200 | 0.0 | 0.0 | 0.00 | 0.00 | 0.00 | 75 | 1011.8 |
| 20260508042618 | 44 | 195 | 0.0 | 0.0 | 0.00 | 0.00 | 0.00 | 74 | 1011.8 |
| 20260508042511 | 44 | 195 | 0.0 | 0.0 | 0.00 | 0.00 | 0.00 | 74 | 1012.1 |
| 20260508042423 | 44 | 196 | 0.0 | 0.0 | 0.00 | 0.00 | 0.00 | 73 | 1012.1 |
| 20260508042407 | 44 | 203 | 0.0 | 0.0 | 0.00 | 0.00 | 0.00 | 73 | 1012.1 |
| 20260508042259 | 44 | 221 | 0.0 | 0.0 | 0.00 | 0.00 | 0.00 | 73 | 1012.1 |
| 20260508042153 | 44 | 220 | 0.0 | 0.0 | 0.00 | 0.00 | 0.00 | 74 | 1012.1 |
| 20260508042048 | 44 | 219 | 0.0 | 0.0 | 0.00 | 0.00 | 0.00 | 73 | 1011.8 |
| 20260508041942 | 44 | 193 | 0.0 | 1.0 | 0.00 | 0.00 | 0.00 | 74 | 1012.1 |
| 20260508041915 | 44 | 193 | 0.0 | 2.0 | 0.00 | 0.00 | 0.00 | 74 | 1012.1 |
| 20260508041842 | 44 | 193 | 0.0 | 2.0 | 0.00 | 0.00 | 0.00 | 75 | 1012.1 |
| 20260508041831 | 44 | 193 | 0.0 | 2.0 | 0.00 | 0.00 | 0.00 | 74 | 1012.1 |
| 20260508041629 | 44 | 196 | 0.0 | 2.0 | 0.00 | 0.00 | 0.00 | 73 | 1011.8 |
| 20260508041519 | 44 | 197 | 0.0 | 6.0 | 0.00 | 0.00 | 0.00 | 73 | 1011.8 |
| 20260508041413 | 44 | 254 | 0.0 | 7.0 | 0.00 | 0.00 | 0.00 | 73 | 1011.8 |
| 20260508041308 | 45 | 256 | 0.0 | 7.0 | 0.00 | 0.00 | 0.00 | 73 | 1012.1 |
| 20260508041202 | 45 | 256 | 0.0 | 7.0 | 0.00 | 0.00 | 0.00 | 72 | 1012.1 |
| 20260508041119 | 46 | 258 | 0.0 | 7.0 | 0.00 | 0.00 | 0.00 | 72 | 1012.1 |
| 20260508040951 | 46 | 273 | 1.0 | 7.0 | 0.00 | 0.00 | 0.00 | 70 | 1012.1 |
| 20260508040903 | 46 | 235 | 1.0 | 7.0 | 0.00 | 0.00 | 0.00 | 67 | 1012.1 |
| 20260508040846 | 46 | 249 | 1.0 | 7.0 | 0.00 | 0.00 | 0.00 | 67 | 1012.1 |
| 20260508040740 | 46 | 207 | 2.0 | 7.0 | 0.00 | 0.00 | 0.00 | 66 | 1011.8 |
| 20260508040634 | 46 | 199 | 0.0 | 7.0 | 0.00 | 0.00 | 0.00 | 67 | 1011.8 |
| 20260508040531 | 45 | 196 | 2.0 | 7.0 | 0.00 | 0.00 | 0.00 | 66 | 1012.1 |
| 20260508040522 | 44 | 217 | 5.0 | 7.0 | 0.00 | 0.00 | 0.00 | 68 | 1012.1 |
| 20260508040357 | 44 | 273 | 3.0 | 7.0 | 0.00 | 0.00 | 0.00 | 70 | 1012.1 |
| 20260508040317 | 44 | 188 | 1.0 | 2.0 | 0.00 | 0.00 | 0.00 | 72 | 1012.1 |
| 20260508040212 | 44 | 200 | 1.0 | 2.0 | 0.00 | 0.00 | 0.00 | 73 | 1012.1 |
| 20260508040110 | 44 | 216 | 2.0 | 2.0 | 0.00 | 0.00 | 0.00 | 73 | 1011.8 |
| 20260508040000 | 44 | 218 | 1.0 | 2.0 | 0.00 | 0.00 | 0.00 | 73 | 1011.8 |
| 20260508035854 | 44 | 119 | 0.0 | 0.0 | 0.00 | 0.00 | 0.00 | 71 | 1011.8 |
| 20260508035751 | 45 | 45 | 0.0 | 0.0 | 0.00 | 0.00 | 0.00 | 70 | 1011.8 |
| 20260508035645 | 45 | 224 | 0.0 | 0.0 | 0.00 | 0.00 | 0.00 | 70 | 1012.1 |
| 20260508035539 | 45 | 218 | 0.0 | 0.0 | 0.00 | 0.00 | 0.00 | 68 | 1011.8 |
| 20260508035433 | 45 | 218 | 0.0 | 0.0 | 0.00 | 0.00 | 0.00 | 68 | 1012.1 |
| 20260508035328 | 44 | 210 | 0.0 | 0.0 | 0.00 | 0.00 | 0.00 | 68 | 1011.8 |
| 20260508035222 | 44 | 212 | 0.0 | 0.0 | 0.00 | 0.00 | 0.00 | 68 | 1011.8 |
| 20260508035117 | 45 | 212 | 0.0 | 0.0 | 0.00 | 0.00 | 0.00 | 69 | 1011.8 |
| 20260508035011 | 45 | 203 | 0.0 | 0.0 | 0.00 | 0.00 | 0.00 | 70 | 1011.8 |
| 20260508034905 | 45 | 203 | 0.0 | 0.0 | 0.00 | 0.00 | 0.00 | 70 | 1011.8 |
| 20260508034817 | 45 | 203 | 0.0 | 0.0 | 0.00 | 0.00 | 0.00 | 69 | 1011.8 |
| 20260508034801 | 45 | 205 | 0.0 | 0.0 | 0.00 | 0.00 | 0.00 | 69 | 1011.8 |
| 20260508034654 | 45 | 229 | 0.0 | 0.0 | 0.00 | 0.00 | 0.00 | 68 | 1011.8 |
| 20260508034548 | 45 | 240 | 0.0 | 0.0 | 0.00 | 0.00 | 0.00 | 69 | 1012.1 |
| 20260508034442 | 45 | 251 | 0.0 | 0.0 | 0.00 | 0.00 | 0.00 | 68 | 1011.8 |
| 20260508034311 | 45 | 298 | 0.0 | 0.0 | 0.00 | 0.00 | 0.00 | 65 | 1011.8 |
| 20260508034231 | 45 | 298 | 0.0 | 0.0 | 0.00 | 0.00 | 0.00 | 65 | 1011.8 |
| 20260508034125 | 45 | 298 | 0.0 | 0.0 | 0.00 | 0.00 | 0.00 | 66 | 1011.8 |
| 20260508034020 | 45 | 298 | 0.0 | 0.0 | 0.00 | 0.00 | 0.00 | 67 | 1011.4 |
| 20260508033914 | 45 | 299 | 0.0 | 0.0 | 0.00 | 0.00 | 0.00 | 65 | 1011.4 |
| 20260508033809 | 45 | 299 | 0.0 | 0.0 | 0.00 | 0.00 | 0.00 | 65 | 1011.4 |
| 20260508033703 | 45 | 299 | 0.0 | 0.0 | 0.00 | 0.00 | 0.00 | 64 | 1011.4 |
| 20260508033558 | 45 | 299 | 0.0 | 0.0 | 0.00 | 0.00 | 0.00 | 64 | 1011.4 |
| 20260508033452 | 45 | 299 | 0.0 | 0.0 | 0.00 | 0.00 | 0.00 | 64 | 1011.4 |
| 20260508033346 | 45 | 299 | 0.0 | 0.0 | 0.00 | 0.00 | 0.00 | 64 | 1011.4 |
| 20260508033241 | 45 | 299 | 0.0 | 0.0 | 0.00 | 0.00 | 0.00 | 64 | 1011.4 |
| 20260508033135 | 45 | 299 | 0.0 | 0.0 | 0.00 | 0.00 | 0.00 | 64 | 1011.4 |
| 20260508033030 | 45 | 299 | 0.0 | 0.0 | 0.00 | 0.00 | 0.00 | 63 | 1011.4 |
| 20260508032924 | 45 | 299 | 0.0 | 0.0 | 0.00 | 0.00 | 0.00 | 64 | 1011.4 |
| 20260508032818 | 45 | 299 | 0.0 | 0.0 | 0.00 | 0.00 | 0.00 | 63 | 1011.4 |
| 20260508032752 | 45 | 299 | 0.0 | 0.0 | 0.00 | 0.00 | 0.00 | 63 | 1011.4 |
| 20260508032713 | 45 | 299 | 0.0 | 0.0 | 0.00 | 0.00 | 0.00 | 63 | 1011.8 |
| 20260508032607 | 45 | 299 | 0.0 | 0.0 | 0.00 | 0.00 | 0.00 | 63 | 1011.4 |
| 20260508032501 | 45 | 299 | 0.0 | 0.0 | 0.00 | 0.00 | 0.00 | 63 | 1011.4 |
| 20260508032355 | 45 | 299 | 0.0 | 0.0 | 0.00 | 0.00 | 0.00 | 63 | 1011.8 |
| 20260508032250 | 45 | 299 | 0.0 | 0.0 | 0.00 | 0.00 | 0.00 | 63 | 1011.8 |
| 20260508032144 | 45 | 299 | 0.0 | 0.0 | 0.00 | 0.00 | 0.00 | 63 | 1011.8 |
| 20260508032038 | 45 | 299 | 0.0 | 0.0 | 0.00 | 0.00 | 0.00 | 63 | 1011.8 |
| 20260508031932 | 45 | 299 | 0.0 | 0.0 | 0.00 | 0.00 | 0.00 | 63 | 1011.8 |
| 20260508031827 | 45 | 299 | 0.0 | 0.0 | 0.00 | 0.00 | 0.00 | 63 | 1011.8 |
| 20260508031722 | 45 | 299 | 0.0 | 0.0 | 0.00 | 0.00 | 0.00 | 63 | 1011.4 |
| 20260508031616 | 45 | 299 | 0.0 | 0.0 | 0.00 | 0.00 | 0.00 | 64 | 1011.8 |
| 20260508031510 | 45 | 299 | 0.0 | 0.0 | 0.00 | 0.00 | 0.00 | 64 | 1011.8 |
| 20260508031404 | 45 | 299 | 0.0 | 0.0 | 0.00 | 0.00 | 0.00 | 64 | 1011.8 |
| 20260508031233 | 45 | 299 | 0.0 | 0.0 | 0.00 | 0.00 | 0.00 | 65 | 1011.8 |
| 20260508031153 | 45 | 299 | 0.0 | 0.0 | 0.00 | 0.00 | 0.00 | 64 | 1011.8 |
| 20260508031048 | 45 | 299 | 0.0 | 0.0 | 0.00 | 0.00 | 0.00 | 64 | 1011.8 |
| 20260508030942 | 45 | 299 | 0.0 | 0.0 | 0.00 | 0.00 | 0.00 | 64 | 1011.8 |
| 20260508030836 | 45 | 299 | 0.0 | 0.0 | 0.00 | 0.00 | 0.00 | 64 | 1011.8 |
| 20260508030731 | 46 | 299 | 0.0 | 0.0 | 0.00 | 0.00 | 0.00 | 64 | 1012.1 |
| 20260508030637 | 46 | 299 | 0.0 | 0.0 | 0.00 | 0.00 | 0.00 | 64 | 1012.1 |
| 20260508030519 | 46 | 299 | 0.0 | 0.0 | 0.00 | 0.00 | 0.00 | 64 | 1012.1 |
| 20260508030437 | 49 | 336 | 3.0 | 4.0 | 0.00 | 0.00 | 0.00 | 54 | 1011.8 |
| 20260508030433 | 49 | 226 | 0.0 | 4.0 | 0.00 | 0.00 | 0.00 | 56 | 1011.8 |
| 20260508030428 | 49 | 302 | 0.0 | 4.0 | 0.00 | 0.00 | 0.00 | 57 | 1011.8 |
| 20260508030424 | 46 | 299 | 0.0 | 0.0 | 0.00 | 0.00 | 0.00 | 63 | 1012.1 |
| 20260508030416 | 46 | 299 | 0.0 | 0.0 | 0.00 | 0.00 | 0.00 | 62 | 1012.1 |
| 20260508030352 | 46 | 299 | 0.0 | 0.0 | 0.00 | 0.00 | 0.00 | 62 | 1012.1 |
| 20260508030348 | 46 | 299 | 0.0 | 0.0 | 0.00 | 0.00 | 0.00 | 62 | 1012.1 |
| 20260508030128 | 50 | 310 | 1.0 | 9.0 | 0.00 | 0.00 | 0.00 | 52 | 1011.4 |
| 20260508030123 | 46 | 299 | 0.0 | 0.0 | 0.00 | 0.00 | 0.00 | 61 | 1011.8 |
| 20260508030115 | 46 | 299 | 0.0 | 0.0 | 0.00 | 0.00 | 0.00 | 61 | 1011.8 |
| 20260508025825 | 46 | 299 | 0.0 | 0.0 | 0.00 | 0.00 | 0.00 | 61 | 1012.1 |
| 20260508025821 | 46 | 299 | 0.0 | 0.0 | 0.00 | 0.00 | 0.00 | 60 | 1012.1 |
| 20260508025557 | 46 | 299 | 0.0 | 0.0 | 0.00 | 0.00 | 0.00 | 60 | 1012.1 |
| 20260508025549 | 46 | 299 | 0.0 | 0.0 | 0.00 | 0.00 | 0.00 | 60 | 1011.8 |
| 20260508025326 | 46 | 299 | 0.0 | 0.0 | 0.00 | 0.00 | 0.00 | 61 | 1012.1 |
| 20260508025311 | 46 | 299 | 0.0 | 0.0 | 0.00 | 0.00 | 0.00 | 60 | 1011.8 |
| 20260508025306 | 47 | 299 | 0.0 | 0.0 | 0.00 | 0.00 | 0.00 | 60 | 1011.8 |
| 20260508025042 | 48 | 298 | 0.0 | 4.0 | 0.00 | 0.00 | 0.00 | 57 | 1011.8 |
| 20260508025038 | 47 | 298 | 0.0 | 0.0 | 0.00 | 0.00 | 0.00 | 61 | 1011.8 |
| 20260508025029 | 47 | 299 | 0.0 | 0.0 | 0.00 | 0.00 | 0.00 | 60 | 1011.8 |
| 20260508024800 | 47 | 299 | 0.0 | 0.0 | 0.00 | 0.00 | 0.00 | 60 | 1012.1 |
| 20260508024756 | 47 | 299 | 0.0 | 0.0 | 0.00 | 0.00 | 0.00 | 60 | 1012.1 |
| 20260508024534 | 47 | 299 | 0.0 | 0.0 | 0.00 | 0.00 | 0.00 | 60 | 1012.1 |
| 20260508024526 | 47 | 299 | 0.0 | 0.0 | 0.00 | 0.00 | 0.00 | 60 | 1012.1 |
| 20260508024517 | 47 | 299 | 0.0 | 0.0 | 0.00 | 0.00 | 0.00 | 59 | 1011.8 |
| 20260508024253 | 47 | 299 | 0.0 | 0.0 | 0.00 | 0.00 | 0.00 | 59 | 1012.1 |
| 20260508024238 | 47 | 299 | 0.0 | 0.0 | 0.00 | 0.00 | 0.00 | 59 | 1012.1 |
| 20260508024017 | 47 | 305 | 0.0 | 0.0 | 0.00 | 0.00 | 0.00 | 59 | 1012.1 |
| 20260508024008 | 47 | 304 | 0.0 | 0.0 | 0.00 | 0.00 | 0.00 | 59 | 1011.8 |
| 20260508024000 | 47 | 304 | 0.0 | 0.0 | 0.00 | 0.00 | 0.00 | 59 | 1012.1 |
| 20260508023739 | 47 | 304 | 0.0 | 0.0 | 0.00 | 0.00 | 0.00 | 59 | 1011.8 |
| 20260508023734 | 47 | 304 | 0.0 | 1.0 | 0.00 | 0.00 | 0.00 | 59 | 1011.8 |
| 20260508023726 | 47 | 304 | 0.0 | 1.0 | 0.00 | 0.00 | 0.00 | 59 | 1011.8 |
| 20260508023506 | 48 | 305 | 0.0 | 1.0 | 0.00 | 0.00 | 0.00 | 59 | 1011.8 |
| 20260508023458 | 48 | 304 | 0.0 | 1.0 | 0.00 | 0.00 | 0.00 | 58 | 1011.8 |
| 20260508023237 | 48 | 302 | 0.0 | 1.0 | 0.00 | 0.00 | 0.00 | 58 | 1011.8 |
| 20260508023227 | 48 | 354 | 0.0 | 1.0 | 0.00 | 0.00 | 0.00 | 59 | 1011.8 |
| 20260508023222 | 48 | 305 | 0.0 | 1.0 | 0.00 | 0.00 | 0.00 | 59 | 1011.8 |
| 20260508023214 | 48 | 299 | 0.0 | 3.0 | 0.00 | 0.00 | 0.00 | 58 | 1011.8 |
| 20260508022953 | 49 | 318 | 1.0 | 1.0 | 0.00 | 0.00 | 0.00 | 54 | 1011.8 |
| 20260508022949 | 48 | 316 | 0.0 | 3.0 | 0.00 | 0.00 | 0.00 | 57 | 1011.8 |
| 20260508022940 | 48 | 315 | 0.0 | 3.0 | 0.00 | 0.00 | 0.00 | 58 | 1011.8 |
| 20260508022709 | 48 | 328 | 1.0 | 3.0 | 0.00 | 0.00 | 0.00 | 58 | 1011.8 |
| 20260508022705 | 48 | 307 | 0.0 | 3.0 | 0.00 | 0.00 | 0.00 | 58 | 1011.8 |
| 20260508022657 | 48 | 280 | 0.0 | 3.0 | 0.00 | 0.00 | 0.00 | 57 | 1011.8 |
| 20260508022436 | 48 | 310 | 0.0 | 3.0 | 0.00 | 0.00 | 0.00 | 57 | 1011.4 |
| 20260508022428 | 48 | 312 | 0.0 | 3.0 | 0.00 | 0.00 | 0.00 | 57 | 1011.8 |
| 20260508022202 | 48 | 331 | 0.0 | 3.0 | 0.00 | 0.00 | 0.00 | 57 | 1011.8 |
| 20260508022158 | 48 | 317 | 0.0 | 3.0 | 0.00 | 0.00 | 0.00 | 57 | 1011.8 |
| 20260508022149 | 48 | 322 | 1.0 | 2.0 | 0.00 | 0.00 | 0.00 | 57 | 1011.8 |
| 20260508021929 | 48 | 350 | 1.0 | 4.0 | 0.00 | 0.00 | 0.00 | 57 | 1011.8 |
| 20260508021921 | 48 | 278 | 0.0 | 4.0 | 0.00 | 0.00 | 0.00 | 56 | 1011.8 |
| 20260508021912 | 48 | 281 | 0.0 | 4.0 | 0.00 | 0.00 | 0.00 | 57 | 1011.8 |
| 20260508021651 | 48 | 299 | 0.0 | 4.0 | 0.00 | 0.00 | 0.00 | 57 | 1011.8 |
| 20260508021642 | 48 | 222 | 0.0 | 4.0 | 0.00 | 0.00 | 0.00 | 56 | 1011.8 |
| 20260508021417 | 48 | 273 | 0.0 | 4.0 | 0.00 | 0.00 | 0.00 | 57 | 1011.8 |
| 20260508021408 | 49 | 255 | 0.0 | 4.0 | 0.00 | 0.00 | 0.00 | 57 | 1011.8 |
| 20260508021148 | 49 | 332 | 2.0 | 4.0 | 0.00 | 0.00 | 0.00 | 57 | 1012.1 |
| 20260508021137 | 49 | 315 | 2.0 | 4.0 | 0.00 | 0.00 | 0.00 | 57 | 1012.1 |
| 20260508021133 | 49 | 238 | 1.0 | 4.0 | 0.00 | 0.00 | 0.00 | 56 | 1011.8 |
| 20260508021125 | 49 | 306 | 1.0 | 4.0 | 0.00 | 0.00 | 0.00 | 57 | 1011.8 |
| 20260508020901 | 49 | 351 | 1.0 | 4.0 | 0.00 | 0.00 | 0.00 | 56 | 1011.8 |
| 20260508020853 | 49 | 16 | 1.0 | 4.0 | 0.00 | 0.00 | 0.00 | 56 | 1011.8 |
| 20260508020631 | 49 | 227 | 0.0 | 4.0 | 0.00 | 0.00 | 0.00 | 56 | 1011.8 |
| 20260508020622 | 49 | 314 | 0.0 | 4.0 | 0.00 | 0.00 | 0.00 | 56 | 1012.1 |
| 20260508020403 | 49 | 314 | 0.0 | 4.0 | 0.00 | 0.00 | 0.00 | 56 | 1011.8 |
| 20260508020354 | 49 | 317 | 0.0 | 4.0 | 0.00 | 0.00 | 0.00 | 56 | 1012.1 |
| 20260508020346 | 49 | 307 | 0.0 | 4.0 | 0.00 | 0.00 | 0.00 | 58 | 1011.8 |
| 20260508020124 | 49 | 219 | 0.0 | 4.0 | 0.00 | 0.00 | 0.00 | 56 | 1012.1 |
| 20260508020116 | 49 | 193 | 0.0 | 4.0 | 0.00 | 0.00 | 0.00 | 55 | 1011.8 |
| 20260508015855 | 49 | 161 | 0.0 | 4.0 | 0.00 | 0.00 | 0.00 | 56 | 1012.1 |
| 20260508015847 | 49 | 322 | 2.0 | 4.0 | 0.00 | 0.00 | 0.00 | 55 | 1012.1 |
| 20260508015838 | 49 | 326 | 3.0 | 4.0 | 0.00 | 0.00 | 0.00 | 54 | 1011.8 |
| 20260508015617 | 49 | 328 | 2.0 | 4.0 | 0.00 | 0.00 | 0.00 | 53 | 1012.1 |
| 20260508015608 | 49 | 330 | 4.0 | 4.0 | 0.00 | 0.00 | 0.00 | 53 | 1012.1 |
| 20260508015345 | 49 | 338 | 2.0 | 3.0 | 0.00 | 0.00 | 0.00 | 54 | 1011.8 |
| 20260508015336 | 49 | 315 | 1.0 | 1.0 | 0.00 | 0.00 | 0.00 | 54 | 1011.8 |
| 20260508015115 | 49 | 336 | 1.0 | 1.0 | 0.00 | 0.00 | 0.00 | 54 | 1011.8 |
| 20260508015107 | 49 | 327 | 1.0 | 1.0 | 0.00 | 0.00 | 0.00 | 54 | 1011.8 |
| 20260508015058 | 49 | 330 | 0.0 | 1.0 | 0.00 | 0.00 | 0.00 | 54 | 1011.8 |
| 20260508014826 | 49 | 330 | 1.0 | 3.0 | 0.00 | 0.00 | 0.00 | 53 | 1011.8 |
| 20260508014817 | 49 | 313 | 0.0 | 6.0 | 0.00 | 0.00 | 0.00 | 53 | 1011.8 |
| 20260508014552 | 49 | 314 | 0.0 | 6.0 | 0.00 | 0.00 | 0.00 | 53 | 1011.8 |
| 20260508014547 | 49 | 304 | 0.0 | 9.0 | 0.00 | 0.00 | 0.00 | 53 | 1012.1 |
| 20260508014538 | 49 | 336 | 1.0 | 9.0 | 0.00 | 0.00 | 0.00 | 53 | 1011.8 |
| 20260508014319 | 49 | 340 | 0.0 | 9.0 | 0.00 | 0.00 | 0.00 | 53 | 1011.8 |
| 20260508014310 | 50 | 323 | 0.0 | 9.0 | 0.00 | 0.00 | 0.00 | 52 | 1011.4 |
| 20260508014302 | 50 | 313 | 1.0 | 9.0 | 0.00 | 0.00 | 0.00 | 52 | 1011.4 |
| 20260508013955 | 50 | 271 | 0.0 | 9.0 | 0.00 | 0.00 | 0.00 | 52 | 1011.8 |
| 20260508013849 | 50 | 289 | 0.0 | 9.0 | 0.00 | 0.00 | 0.00 | 51 | 1011.8 |
| 20260508013743 | 50 | 283 | 3.0 | 9.0 | 0.00 | 0.00 | 0.00 | 51 | 1011.8 |
| 20260508013637 | 49 | 281 | 4.0 | 9.0 | 0.00 | 0.00 | 0.00 | 52 | 1011.8 |
| 20260508013532 | 49 | 218 | 6.0 | 9.0 | 0.00 | 0.00 | 0.00 | 53 | 1011.8 |
| 20260508013426 | 49 | 258 | 0.0 | 0.0 | 0.00 | 0.00 | 0.00 | 52 | 1011.8 |
| 20260508013320 | 49 | 224 | 0.0 | 0.0 | 0.00 | 0.00 | 0.00 | 52 | 1011.4 |
| 20260508013215 | 49 | 223 | 0.0 | 0.0 | 0.00 | 0.00 | 0.00 | 52 | 1011.8 |
| 20260508013108 | 49 | 223 | 0.0 | 0.0 | 0.00 | 0.00 | 0.00 | 52 | 1011.8 |
| 20260508013031 | 49 | 224 | 0.0 | 0.0 | 0.00 | 0.00 | 0.00 | 51 | 1011.4 |
| 20260508013003 | 49 | 224 | 0.0 | 0.0 | 0.00 | 0.00 | 0.00 | 51 | 1011.4 |
| 20260508012857 | 49 | 209 | 0.0 | 0.0 | 0.00 | 0.00 | 0.00 | 51 | 1011.4 |
| 20260508012750 | 49 | 227 | 0.0 | 0.0 | 0.00 | 0.00 | 0.00 | 52 | 1011.4 |
| 20260508012646 | 49 | 277 | 0.0 | 0.0 | 0.00 | 0.00 | 0.00 | 52 | 1011.8 |
| 20260508012524 | 49 | 238 | 0.0 | 0.0 | 0.00 | 0.00 | 0.00 | 52 | 1011.4 |
| 20260508012434 | 49 | 205 | 0.0 | 0.0 | 0.00 | 0.00 | 0.00 | 53 | 1011.4 |
| 20260508012327 | 49 | 224 | 0.0 | 0.0 | 0.00 | 0.00 | 0.00 | 53 | 1011.8 |
| 20260508012222 | 49 | 271 | 0.0 | 0.0 | 0.00 | 0.00 | 0.00 | 52 | 1011.8 |
| 20260508012116 | 49 | 273 | 0.0 | 0.0 | 0.00 | 0.00 | 0.00 | 52 | 1011.4 |
| 20260508012011 | 49 | 277 | 0.0 | 0.0 | 0.00 | 0.00 | 0.00 | 52 | 1011.8 |
| 20260508011905 | 49 | 277 | 0.0 | 0.0 | 0.00 | 0.00 | 0.00 | 52 | 1011.4 |
| 20260508011759 | 49 | 278 | 0.0 | 0.0 | 0.00 | 0.00 | 0.00 | 51 | 1011.4 |
| 20260508011654 | 49 | 284 | 0.0 | 0.0 | 0.00 | 0.00 | 0.00 | 52 | 1011.4 |
| 20260508011548 | 49 | 280 | 0.0 | 0.0 | 0.00 | 0.00 | 0.00 | 52 | 1011.4 |
| 20260508011510 | 49 | 280 | 0.0 | 0.0 | 0.00 | 0.00 | 0.00 | 52 | 1011.4 |
| 20260508011442 | 49 | 291 | 0.0 | 0.0 | 0.00 | 0.00 | 0.00 | 52 | 1011.4 |
| 20260508011336 | 49 | 292 | 0.0 | 0.0 | 0.00 | 0.00 | 0.00 | 51 | 1011.4 |
| 20260508011230 | 49 | 296 | 0.0 | 0.0 | 0.00 | 0.00 | 0.00 | 51 | 1011.4 |
| 20260508011125 | 49 | 307 | 0.0 | 0.0 | 0.00 | 0.00 | 0.00 | 51 | 1011.4 |
| 20260508011004 | 49 | 306 | 0.0 | 0.0 | 0.00 | 0.00 | 0.00 | 51 | 1011.1 |
| 20260508010913 | 49 | 313 | 0.0 | 0.0 | 0.00 | 0.00 | 0.00 | 51 | 1011.4 |
| 20260508010808 | 49 | 285 | 0.0 | 0.0 | 0.00 | 0.00 | 0.00 | 51 | 1011.4 |
| 20260508010702 | 49 | 284 | 0.0 | 0.0 | 0.00 | 0.00 | 0.00 | 51 | 1011.1 |
| 20260508010557 | 49 | 277 | 0.0 | 0.0 | 0.00 | 0.00 | 0.00 | 51 | 1011.1 |
| 20260508010452 | 49 | 271 | 0.0 | 0.0 | 0.00 | 0.00 | 0.00 | 51 | 1011.1 |
| 20260508010346 | 49 | 272 | 0.0 | 0.0 | 0.00 | 0.00 | 0.00 | 51 | 1011.1 |
| 20260508010240 | 49 | 272 | 0.0 | 0.0 | 0.00 | 0.00 | 0.00 | 51 | 1011.1 |
| 20260508010134 | 49 | 272 | 0.0 | 0.0 | 0.00 | 0.00 | 0.00 | 51 | 1011.1 |
| 20260508010028 | 49 | 272 | 0.0 | 0.0 | 0.00 | 0.00 | 0.00 | 51 | 1011.1 |
| 20260508005922 | 49 | 272 | 0.0 | 0.0 | 0.00 | 0.00 | 0.00 | 51 | 1011.1 |
| 20260508005816 | 49 | 298 | 0.0 | 0.0 | 0.00 | 0.00 | 0.00 | 51 | 1011.1 |
| 20260508005711 | 49 | 298 | 0.0 | 0.0 | 0.00 | 0.00 | 0.00 | 52 | 1011.1 |
| 20260508005605 | 50 | 298 | 0.0 | 0.0 | 0.00 | 0.00 | 0.00 | 51 | 1011.1 |
| 20260508005444 | 50 | 298 | 0.0 | 0.0 | 0.00 | 0.00 | 0.00 | 51 | 1011.1 |
| 20260508005354 | 50 | 298 | 0.0 | 0.0 | 0.00 | 0.00 | 0.00 | 51 | 1011.1 |
| 20260508005248 | 50 | 298 | 0.0 | 0.0 | 0.00 | 0.00 | 0.00 | 50 | 1010.8 |
| 20260508005142 | 50 | 309 | 0.0 | 0.0 | 0.00 | 0.00 | 0.00 | 50 | 1011.1 |
| 20260508005036 | 50 | 249 | 0.0 | 0.0 | 0.00 | 0.00 | 0.00 | 50 | 1011.1 |
| 20260508004930 | 50 | 249 | 0.0 | 0.0 | 0.00 | 0.00 | 0.00 | 50 | 1011.1 |
| 20260508004824 | 50 | 244 | 0.0 | 0.0 | 0.00 | 0.00 | 0.00 | 50 | 1011.1 |
| 20260508004720 | 50 | 277 | 0.0 | 2.0 | 0.00 | 0.00 | 0.00 | 50 | 1010.8 |
| 20260508004614 | 50 | 300 | 0.0 | 4.0 | 0.00 | 0.00 | 0.00 | 49 | 1011.1 |
| 20260508004508 | 50 | 278 | 0.0 | 4.0 | 0.00 | 0.00 | 0.00 | 50 | 1011.1 |
| 20260508004430 | 50 | 273 | 0.0 | 4.0 | 0.00 | 0.00 | 0.00 | 51 | 1011.1 |
| 20260508004402 | 50 | 272 | 0.0 | 4.0 | 0.00 | 0.00 | 0.00 | 50 | 1011.1 |
| 20260508004257 | 50 | 272 | 0.0 | 4.0 | 0.00 | 0.00 | 0.00 | 49 | 1010.8 |
| 20260508004151 | 50 | 282 | 0.0 | 4.0 | 0.00 | 0.00 | 0.00 | 49 | 1011.1 |
| 20260508004046 | 50 | 221 | 0.0 | 4.0 | 0.00 | 0.00 | 0.00 | 49 | 1011.1 |
| 20260508003940 | 50 | 263 | 0.0 | 4.0 | 0.00 | 0.00 | 0.00 | 50 | 1011.1 |
| 20260508003924 | 50 | 267 | 0.0 | 4.0 | 0.00 | 0.00 | 0.00 | 50 | 1011.1 |
| 20260508003835 | 51 | 338 | 0.0 | 4.0 | 0.00 | 0.00 | 0.00 | 50 | 1011.1 |
| 20260508003728 | 51 | 321 | 1.0 | 4.0 | 0.00 | 0.00 | 0.00 | 49 | 1011.1 |
| 20260508003623 | 51 | 243 | 0.0 | 3.0 | 0.00 | 0.00 | 0.00 | 49 | 1011.1 |
| 20260508003517 | 51 | 247 | 0.0 | 4.0 | 0.00 | 0.00 | 0.00 | 49 | 1010.8 |
| 20260508003411 | 51 | 258 | 0.0 | 4.0 | 0.00 | 0.00 | 0.00 | 49 | 1011.1 |
| 20260508003306 | 51 | 259 | 1.0 | 4.0 | 0.00 | 0.00 | 0.00 | 49 | 1011.1 |
| 20260508003200 | 51 | 269 | 1.0 | 4.0 | 0.00 | 0.00 | 0.00 | 49 | 1011.1 |
| 20260508003055 | 51 | 263 | 1.0 | 4.0 | 0.00 | 0.00 | 0.00 | 49 | 1011.1 |
| 20260508002949 | 51 | 240 | 0.0 | 4.0 | 0.00 | 0.00 | 0.00 | 49 | 1011.1 |
| 20260508002911 | 51 | 281 | 0.0 | 4.0 | 0.00 | 0.00 | 0.00 | 50 | 1011.1 |
| 20260508002843 | 51 | 285 | 0.0 | 4.0 | 0.00 | 0.00 | 0.00 | 50 | 1011.1 |
| 20260508002737 | 51 | 298 | 1.0 | 4.0 | 0.00 | 0.00 | 0.00 | 49 | 1011.1 |
| 20260508002631 | 51 | 264 | 1.0 | 4.0 | 0.00 | 0.00 | 0.00 | 48 | 1011.1 |
| 20260508002526 | 51 | 253 | 3.0 | 4.0 | 0.00 | 0.00 | 0.00 | 48 | 1011.1 |
| 20260508002421 | 51 | 265 | 2.0 | 3.0 | 0.00 | 0.00 | 0.00 | 48 | 1011.1 |
| 20260508002405 | 51 | 258 | 2.0 | 3.0 | 0.00 | 0.00 | 0.00 | 48 | 1011.1 |
| 20260508002316 | 51 | 279 | 0.0 | 4.0 | 0.00 | 0.00 | 0.00 | 49 | 1011.1 |
| 20260508002209 | 51 | 256 | 0.0 | 6.0 | 0.00 | 0.00 | 0.00 | 49 | 1011.1 |
| 20260508002106 | 51 | 259 | 1.0 | 6.0 | 0.00 | 0.00 | 0.00 | 49 | 1011.1 |
| 20260508002000 | 51 | 239 | 1.0 | 6.0 | 0.00 | 0.00 | 0.00 | 49 | 1010.8 |
| 20260508001901 | 51 | 278 | 0.0 | 6.0 | 0.00 | 0.00 | 0.00 | 48 | 1011.1 |
| 20260508001854 | 51 | 229 | 0.0 | 6.0 | 0.00 | 0.00 | 0.00 | 49 | 1011.1 |
| 20260508001748 | 51 | 304 | 1.0 | 6.0 | 0.00 | 0.00 | 0.00 | 49 | 1011.1 |
| 20260508001643 | 51 | 243 | 0.0 | 6.0 | 0.00 | 0.00 | 0.00 | 49 | 1011.1 |
| 20260508001537 | 51 | 329 | 1.0 | 6.0 | 0.00 | 0.00 | 0.00 | 49 | 1011.1 |
| 20260508001432 | 51 | 225 | 0.0 | 6.0 | 0.00 | 0.00 | 0.00 | 48 | 1011.1 |
| 20260508001355 | 51 | 229 | 2.0 | 6.0 | 0.00 | 0.00 | 0.00 | 48 | 1011.1 |
| 20260508001326 | 51 | 354 | 3.0 | 6.0 | 0.00 | 0.00 | 0.00 | 47 | 1011.1 |
| 20260508001221 | 51 | 273 | 1.0 | 4.0 | 0.00 | 0.00 | 0.00 | 48 | 1010.8 |
| 20260508001115 | 51 | 261 | 1.0 | 4.0 | 0.00 | 0.00 | 0.00 | 48 | 1011.1 |
| 20260508001010 | 51 | 142 | 1.0 | 4.0 | 0.00 | 0.00 | 0.00 | 49 | 1010.8 |
| 20260508000848 | 51 | 9 | 0.0 | 4.0 | 0.00 | 0.00 | 0.00 | 49 | 1011.1 |
| 20260508000758 | 51 | 315 | 1.0 | 4.0 | 0.00 | 0.00 | 0.00 | 49 | 1010.8 |
| 20260508000652 | 51 | 229 | 1.0 | 4.0 | 0.00 | 0.00 | 0.00 | 48 | 1010.8 |
| 20260508000547 | 51 | 195 | 2.0 | 4.0 | 0.00 | 0.00 | 0.00 | 48 | 1010.8 |
| 20260508000442 | 51 | 302 | 2.0 | 6.0 | 0.00 | 0.00 | 0.00 | 48 | 1011.1 |
| 20260508000335 | 51 | 116 | 0.0 | 6.0 | 0.00 | 0.00 | 0.00 | 49 | 1011.1 |
| 20260508000242 | 51 | 220 | 0.0 | 6.0 | 0.00 | 0.00 | 0.00 | 48 | 1011.1 |
| 20260508000125 | 51 | 291 | 2.0 | 6.0 | 0.00 | 0.00 | 0.00 | 47 | 1010.8 |
| 20260508000018 | 51 | 277 | 1.0 | 6.0 | 0.00 | 0.00 | 0.00 | 48 | 1011.1 |
| 20260507235913 | 51 | 212 | 0.0 | 6.0 | 0.00 | 0.00 | 0.00 | 48 | 1010.8 |
| 20260507235835 | 51 | 235 | 2.0 | 6.0 | 0.00 | 0.00 | 0.00 | 48 | 1010.8 |
| 20260507235807 | 51 | 249 | 2.0 | 6.0 | 0.00 | 0.00 | 0.00 | 49 | 1010.8 |
| 20260507235702 | 51 | 217 | 0.0 | 7.0 | 0.00 | 0.00 | 0.00 | 47 | 1010.8 |
| 20260507235556 | 51 | 271 | 2.0 | 7.0 | 0.00 | 0.00 | 0.00 | 47 | 1010.8 |
| 20260507235450 | 52 | 294 | 2.0 | 7.0 | 0.00 | 0.00 | 0.00 | 48 | 1010.8 |
| 20260507235345 | 52 | 228 | 2.0 | 7.0 | 0.00 | 0.00 | 0.00 | 47 | 1011.1 |
| 20260507235329 | 52 | 231 | 0.0 | 7.0 | 0.00 | 0.00 | 0.00 | 47 | 1011.1 |
| 20260507235238 | 51 | 291 | 2.0 | 7.0 | 0.00 | 0.00 | 0.00 | 46 | 1010.8 |
| 20260507235132 | 51 | 261 | 1.0 | 7.0 | 0.00 | 0.00 | 0.00 | 47 | 1011.1 |
| 20260507235030 | 52 | 261 | 3.0 | 7.0 | 0.00 | 0.00 | 0.00 | 47 | 1010.8 |
| 20260507234926 | 52 | 350 | 2.0 | 7.0 | 0.00 | 0.00 | 0.00 | 47 | 1010.8 |
| 20260507234819 | 51 | 255 | 2.0 | 7.0 | 0.00 | 0.00 | 0.00 | 47 | 1010.8 |
| 20260507234713 | 51 | 215 | 4.0 | 7.0 | 0.00 | 0.00 | 0.00 | 47 | 1010.8 |
| 20260507234608 | 51 | 263 | 2.0 | 7.0 | 0.00 | 0.00 | 0.00 | 47 | 1010.8 |
| 20260507234502 | 51 | 277 | 3.0 | 6.0 | 0.00 | 0.00 | 0.00 | 47 | 1011.1 |
| 20260507234356 | 51 | 199 | 2.0 | 6.0 | 0.00 | 0.00 | 0.00 | 47 | 1010.8 |
| 20260507234319 | 51 | 260 | 2.0 | 6.0 | 0.00 | 0.00 | 0.00 | 48 | 1011.1 |
| 20260507234251 | 51 | 218 | 1.0 | 6.0 | 0.00 | 0.00 | 0.00 | 47 | 1011.1 |
| 20260507234145 | 52 | 207 | 0.0 | 6.0 | 0.00 | 0.00 | 0.00 | 47 | 1011.1 |
| 20260507234039 | 52 | 258 | 1.0 | 6.0 | 0.00 | 0.00 | 0.00 | 47 | 1010.8 |
| 20260507233935 | 52 | 225 | 4.0 | 6.0 | 0.00 | 0.00 | 0.00 | 46 | 1010.8 |
| 20260507233828 | 52 | 262 | 5.0 | 6.0 | 0.00 | 0.00 | 0.00 | 47 | 1010.8 |
| 20260507233812 | 52 | 248 | 3.0 | 6.0 | 0.00 | 0.00 | 0.00 | 48 | 1010.8 |
| 20260507233722 | 52 | 189 | 0.0 | 6.0 | 0.00 | 0.00 | 0.00 | 47 | 1010.8 |
| 20260507233616 | 52 | 252 | 0.0 | 10.0 | 0.00 | 0.00 | 0.00 | 47 | 1011.1 |
| 20260507233512 | 52 | 261 | 0.0 | 10.0 | 0.00 | 0.00 | 0.00 | 47 | 1011.1 |
| 20260507233406 | 52 | 259 | 0.0 | 10.0 | 0.00 | 0.00 | 0.00 | 47 | 1011.1 |
| 20260507233307 | 52 | 223 | 1.0 | 10.0 | 0.00 | 0.00 | 0.00 | 46 | 1010.8 |
| 20260507233301 | 52 | 71 | 2.0 | 10.0 | 0.00 | 0.00 | 0.00 | 46 | 1010.8 |
| 20260507233154 | 52 | 235 | 3.0 | 10.0 | 0.00 | 0.00 | 0.00 | 46 | 1011.1 |
| 20260507233049 | 52 | 313 | 3.0 | 11.0 | 0.00 | 0.00 | 0.00 | 46 | 1010.8 |
| 20260507232943 | 52 | 206 | 2.0 | 11.0 | 0.00 | 0.00 | 0.00 | 47 | 1010.8 |
| 20260507232837 | 52 | 332 | 1.0 | 11.0 | 0.00 | 0.00 | 0.00 | 45 | 1010.8 |
| 20260507232800 | 52 | 109 | 2.0 | 11.0 | 0.00 | 0.00 | 0.00 | 46 | 1010.8 |
| 20260507232732 | 52 | 264 | 5.0 | 11.0 | 0.00 | 0.00 | 0.00 | 46 | 1010.8 |
| 20260507232625 | 52 | 212 | 2.0 | 11.0 | 0.00 | 0.00 | 0.00 | 47 | 1010.8 |
| 20260507232519 | 52 | 328 | 3.0 | 11.0 | 0.00 | 0.00 | 0.00 | 46 | 1010.8 |
| 20260507232413 | 52 | 208 | 1.0 | 11.0 | 0.00 | 0.00 | 0.00 | 46 | 1010.8 |
| 20260507232308 | 52 | 217 | 3.0 | 11.0 | 0.00 | 0.00 | 0.00 | 46 | 1010.8 |
| 20260507232253 | 52 | 231 | 4.0 | 11.0 | 0.00 | 0.00 | 0.00 | 46 | 1010.8 |
| 20260507232202 | 52 | 220 | 3.0 | 11.0 | 0.00 | 0.00 | 0.00 | 46 | 1010.8 |
| 20260507232057 | 52 | 269 | 8.0 | 11.0 | 0.00 | 0.00 | 0.00 | 45 | 1011.1 |
| 20260507231951 | 52 | 279 | 2.0 | 9.0 | 0.00 | 0.00 | 0.00 | 46 | 1011.1 |
| 20260507231846 | 52 | 281 | 0.0 | 9.0 | 0.00 | 0.00 | 0.00 | 45 | 1010.8 |
| 20260507231751 | 52 | 219 | 0.0 | 9.0 | 0.00 | 0.00 | 0.00 | 47 | 1010.8 |
| 20260507231634 | 52 | 263 | 4.0 | 9.0 | 0.00 | 0.00 | 0.00 | 45 | 1010.8 |
| 20260507231527 | 52 | 258 | 1.0 | 9.0 | 0.00 | 0.00 | 0.00 | 45 | 1010.8 |
| 20260507231421 | 53 | 232 | 3.0 | 9.0 | 0.00 | 0.00 | 0.00 | 45 | 1010.8 |
| 20260507231316 | 53 | 160 | 4.0 | 10.0 | 0.00 | 0.00 | 0.00 | 44 | 1011.1 |
| 20260507231238 | 53 | 0 | 1.0 | 10.0 | 0.00 | 0.00 | 0.00 | 44 | 1010.8 |
| 20260507231210 | 53 | 297 | 4.0 | 13.0 | 0.00 | 0.00 | 0.00 | 44 | 1010.8 |
| 20260507231105 | 54 | 357 | 3.0 | 13.0 | 0.00 | 0.00 | 0.00 | 44 | 1010.8 |
| 20260507230959 | 54 | 318 | 2.0 | 13.0 | 0.00 | 0.00 | 0.00 | 43 | 1010.8 |
| 20260507230853 | 54 | 318 | 3.0 | 13.0 | 0.00 | 0.00 | 0.00 | 43 | 1010.8 |
| 20260507230732 | 54 | 307 | 2.0 | 13.0 | 0.00 | 0.00 | 0.00 | 44 | 1010.8 |
| 20260507230642 | 53 | 299 | 2.0 | 13.0 | 0.00 | 0.00 | 0.00 | 43 | 1010.8 |
| 20260507230536 | 53 | 257 | 4.0 | 13.0 | 0.00 | 0.00 | 0.00 | 44 | 1010.8 |
| 20260507230431 | 53 | 235 | 6.0 | 13.0 | 0.00 | 0.00 | 0.00 | 44 | 1010.8 |
| 20260507230325 | 53 | 269 | 6.0 | 13.0 | 0.00 | 0.00 | 0.00 | 43 | 1010.8 |
| 20260507230226 | 53 | 231 | 6.0 | 10.0 | 0.00 | 0.00 | 0.00 | 44 | 1010.8 |
| 20260507230219 | 53 | 31 | 2.0 | 9.0 | 0.00 | 0.00 | 0.00 | 44 | 1010.8 |
| 20260507230114 | 53 | 328 | 3.0 | 10.0 | 0.00 | 0.00 | 0.00 | 44 | 1010.8 |
| 20260507230009 | 53 | 305 | 4.0 | 10.0 | 0.00 | 0.00 | 0.00 | 44 | 1010.8 |
| 20260507225902 | 53 | 299 | 5.0 | 10.0 | 0.00 | 0.00 | 0.00 | 44 | 1011.1 |
| 20260507225758 | 53 | 246 | 4.0 | 10.0 | 0.00 | 0.00 | 0.00 | 44 | 1010.8 |
| 20260507225720 | 53 | 269 | 4.0 | 10.0 | 0.00 | 0.00 | 0.00 | 44 | 1010.8 |
| 20260507225652 | 53 | 287 | 5.0 | 10.0 | 0.00 | 0.00 | 0.00 | 44 | 1010.8 |
| 20260507225547 | 53 | 285 | 7.0 | 10.0 | 0.00 | 0.00 | 0.00 | 45 | 1010.8 |
| 20260507225440 | 53 | 287 | 7.0 | 10.0 | 0.00 | 0.00 | 0.00 | 44 | 1010.8 |
| 20260507225334 | 53 | 273 | 5.0 | 10.0 | 0.00 | 0.00 | 0.00 | 46 | 1010.8 |
| 20260507225241 | 53 | 189 | 9.0 | 10.0 | 0.00 | 0.00 | 0.00 | 43 | 1010.8 |
| 20260507225213 | 53 | 140 | 6.0 | 9.0 | 0.00 | 0.00 | 0.00 | 45 | 1010.8 |
| 20260507225122 | 53 | 275 | 4.0 | 8.0 | 0.00 | 0.00 | 0.00 | 44 | 1010.8 |
| 20260507225016 | 53 | 263 | 4.0 | 8.0 | 0.00 | 0.00 | 0.00 | 45 | 1010.8 |
| 20260507224912 | 53 | 242 | 2.0 | 8.0 | 0.00 | 0.00 | 0.00 | 45 | 1010.8 |
| 20260507224805 | 53 | 32 | 6.0 | 8.0 | 0.00 | 0.00 | 0.00 | 45 | 1011.1 |
| 20260507224706 | 53 | 189 | 2.0 | 8.0 | 0.00 | 0.00 | 0.00 | 45 | 1011.1 |
| 20260507224701 | 53 | 189 | 2.0 | 8.0 | 0.00 | 0.00 | 0.00 | 45 | 1011.1 |
| 20260507224553 | 53 | 326 | 3.0 | 8.0 | 0.00 | 0.00 | 0.00 | 45 | 1010.8 |
| 20260507224447 | 53 | 268 | 5.0 | 8.0 | 0.00 | 0.00 | 0.00 | 46 | 1010.8 |
| 20260507224341 | 53 | 248 | 2.0 | 7.0 | 0.00 | 0.00 | 0.00 | 46 | 1010.8 |
| 20260507224235 | 53 | 261 | 3.0 | 7.0 | 0.00 | 0.00 | 0.00 | 45 | 1011.1 |
| 20260507224158 | 53 | 243 | 4.0 | 8.0 | 0.00 | 0.00 | 0.00 | 45 | 1011.1 |
| 20260507224130 | 53 | 212 | 4.0 | 8.0 | 0.00 | 0.00 | 0.00 | 46 | 1010.8 |
| 20260507224024 | 54 | 2 | 3.0 | 8.0 | 0.00 | 0.00 | 0.00 | 45 | 1010.8 |
| 20260507223919 | 54 | 308 | 2.0 | 8.0 | 0.00 | 0.00 | 0.00 | 44 | 1010.8 |
| 20260507223813 | 54 | 287 | 1.0 | 8.0 | 0.00 | 0.00 | 0.00 | 44 | 1010.8 |
| 20260507223708 | 54 | 324 | 1.0 | 8.0 | 0.00 | 0.00 | 0.00 | 45 | 1010.8 |
| 20260507223652 | 54 | 324 | 1.0 | 8.0 | 0.00 | 0.00 | 0.00 | 45 | 1010.8 |
| 20260507223559 | 53 | 312 | 2.0 | 9.0 | 0.00 | 0.00 | 0.00 | 44 | 1011.1 |
| 20260507223453 | 53 | 314 | 1.0 | 9.0 | 0.00 | 0.00 | 0.00 | 44 | 1010.8 |
| 20260507223348 | 53 | 350 | 1.0 | 14.0 | 0.00 | 0.00 | 0.00 | 45 | 1011.1 |
| 20260507223242 | 52 | 214 | 5.0 | 14.0 | 0.00 | 0.00 | 0.00 | 45 | 1011.1 |
| 20260507223137 | 52 | 234 | 2.0 | 14.0 | 0.00 | 0.00 | 0.00 | 45 | 1011.1 |
| 20260507223031 | 52 | 255 | 4.0 | 14.0 | 0.00 | 0.00 | 0.00 | 45 | 1011.1 |
| 20260507222925 | 52 | 220 | 5.0 | 14.0 | 0.00 | 0.00 | 0.00 | 45 | 1011.4 |
| 20260507222820 | 53 | 228 | 4.0 | 14.0 | 0.00 | 0.00 | 0.00 | 45 | 1011.1 |
| 20260507222714 | 52 | 289 | 2.0 | 14.0 | 0.00 | 0.00 | 0.00 | 45 | 1011.1 |
| 20260507222636 | 53 | 252 | 7.0 | 14.0 | 0.00 | 0.00 | 0.00 | 45 | 1011.1 |
| 20260507222608 | 53 | 224 | 4.0 | 14.0 | 0.00 | 0.00 | 0.00 | 46 | 1011.1 |
| 20260507222502 | 53 | 224 | 7.0 | 14.0 | 0.00 | 0.00 | 0.00 | 44 | 1011.1 |
| 20260507222357 | 53 | 257 | 4.0 | 14.0 | 0.00 | 0.00 | 0.00 | 44 | 1011.1 |
| 20260507222250 | 53 | 253 | 6.0 | 14.0 | 0.00 | 0.00 | 0.00 | 44 | 1011.1 |
| 20260507222146 | 54 | 275 | 8.0 | 14.0 | 0.00 | 0.00 | 0.00 | 43 | 1011.1 |
| 20260507222131 | 54 | 326 | 4.0 | 14.0 | 0.00 | 0.00 | 0.00 | 44 | 1011.1 |
| 20260507222039 | 54 | 233 | 3.0 | 11.0 | 0.00 | 0.00 | 0.00 | 44 | 1011.1 |
| 20260507221934 | 54 | 234 | 1.0 | 11.0 | 0.00 | 0.00 | 0.00 | 45 | 1011.1 |
| 20260507221828 | 54 | 333 | 1.0 | 11.0 | 0.00 | 0.00 | 0.00 | 45 | 1011.1 |
| 20260507221722 | 54 | 294 | 4.0 | 13.0 | 0.00 | 0.00 | 0.00 | 44 | 1011.1 |
| 20260507221623 | 54 | 222 | 4.0 | 13.0 | 0.00 | 0.00 | 0.00 | 43 | 1011.1 |
| 20260507221617 | 54 | 320 | 4.0 | 13.0 | 0.00 | 0.00 | 0.00 | 43 | 1011.1 |
| 20260507221512 | 54 | 245 | 2.0 | 13.0 | 0.00 | 0.00 | 0.00 | 44 | 1011.1 |
| 20260507221405 | 54 | 231 | 2.0 | 13.0 | 0.00 | 0.00 | 0.00 | 44 | 1010.8 |
| 20260507221300 | 54 | 203 | 5.0 | 13.0 | 0.00 | 0.00 | 0.00 | 43 | 1011.1 |
| 20260507221153 | 53 | 231 | 5.0 | 13.0 | 0.00 | 0.00 | 0.00 | 44 | 1010.8 |
| 20260507221117 | 53 | 114 | 1.0 | 13.0 | 0.00 | 0.00 | 0.00 | 45 | 1011.1 |
| 20260507221102 | 53 | 181 | 0.0 | 13.0 | 0.00 | 0.00 | 0.00 | 46 | 1011.1 |
| 20260507220943 | 53 | 259 | 5.0 | 13.0 | 0.00 | 0.00 | 0.00 | 45 | 1010.8 |
| 20260507220850 | 53 | 280 | 5.0 | 13.0 | 0.00 | 0.00 | 0.00 | 44 | 1011.1 |
| 20260507220732 | 53 | 246 | 2.0 | 10.0 | 0.00 | 0.00 | 0.00 | 45 | 1011.1 |
| 20260507220609 | 53 | 188 | 4.0 | 10.0 | 0.00 | 0.00 | 0.00 | 44 | 1011.1 |
| 20260507220518 | 53 | 205 | 2.0 | 9.0 | 0.00 | 0.00 | 0.00 | 44 | 1011.1 |
| 20260507220413 | 53 | 332 | 2.0 | 9.0 | 0.00 | 0.00 | 0.00 | 45 | 1011.1 |
| 20260507220307 | 53 | 292 | 2.0 | 9.0 | 0.00 | 0.00 | 0.00 | 44 | 1011.1 |
| 20260507220203 | 53 | 255 | 3.0 | 16.0 | 0.00 | 0.00 | 0.00 | 44 | 1011.1 |
| 20260507220113 | 53 | 234 | 1.0 | 16.0 | 0.00 | 0.00 | 0.00 | 45 | 1011.1 |
| 20260507220109 | 53 | 234 | 1.0 | 16.0 | 0.00 | 0.00 | 0.00 | 45 | 1011.1 |
| 20260507215951 | 53 | 166 | 2.0 | 16.0 | 0.00 | 0.00 | 0.00 | 45 | 1011.1 |
| 20260507215844 | 53 | 246 | 3.0 | 16.0 | 0.00 | 0.00 | 0.00 | 44 | 1011.1 |
| 20260507215738 | 53 | 234 | 2.0 | 16.0 | 0.00 | 0.00 | 0.00 | 45 | 1011.1 |
| 20260507215634 | 53 | 329 | 3.0 | 16.0 | 0.00 | 0.00 | 0.00 | 44 | 1011.1 |
| 20260507215556 | 53 | 341 | 3.0 | 16.0 | 0.00 | 0.00 | 0.00 | 45 | 1011.1 |
| 20260507215528 | 53 | 297 | 3.0 | 16.0 | 0.00 | 0.00 | 0.00 | 45 | 1011.1 |
| 20260507215422 | 53 | 216 | 4.0 | 16.0 | 0.00 | 0.00 | 0.00 | 44 | 1011.1 |
| 20260507215316 | 53 | 186 | 1.0 | 16.0 | 0.00 | 0.00 | 0.00 | 44 | 1011.1 |
| 20260507215211 | 53 | 272 | 6.0 | 11.0 | 0.00 | 0.00 | 0.00 | 44 | 1011.1 |
| 20260507215105 | 54 | 282 | 6.0 | 9.0 | 0.00 | 0.00 | 0.00 | 43 | 1011.1 |
| 20260507215049 | 54 | 300 | 2.0 | 9.0 | 0.00 | 0.00 | 0.00 | 43 | 1011.1 |
| 20260507214958 | 54 | 79 | 0.0 | 9.0 | 0.00 | 0.00 | 0.00 | 43 | 1011.1 |
| 20260507214854 | 55 | 305 | 3.0 | 9.0 | 0.00 | 0.00 | 0.00 | 41 | 1011.1 |
| 20260507214747 | 55 | 291 | 5.0 | 9.0 | 0.00 | 0.00 | 0.00 | 42 | 1010.8 |
| 20260507214642 | 55 | 265 | 2.0 | 9.0 | 0.00 | 0.00 | 0.00 | 41 | 1010.8 |
| 20260507214542 | 55 | 74 | 2.0 | 9.0 | 0.00 | 0.00 | 0.00 | 42 | 1010.8 |
| 20260507214535 | 55 | 312 | 4.0 | 9.0 | 0.00 | 0.00 | 0.00 | 43 | 1011.1 |
| 20260507214430 | 55 | 260 | 0.0 | 9.0 | 0.00 | 0.00 | 0.00 | 43 | 1010.8 |
| 20260507214324 | 56 | 245 | 6.0 | 13.0 | 0.00 | 0.00 | 0.00 | 41 | 1010.8 |
| 20260507214219 | 56 | 280 | 4.0 | 13.0 | 0.00 | 0.00 | 0.00 | 40 | 1010.8 |
| 20260507214110 | 56 | 24 | 5.0 | 13.0 | 0.00 | 0.00 | 0.00 | 41 | 1010.8 |
| 20260507214032 | 56 | 290 | 2.0 | 13.0 | 0.00 | 0.00 | 0.00 | 41 | 1010.8 |
| 20260507214004 | 56 | 338 | 2.0 | 13.0 | 0.00 | 0.00 | 0.00 | 40 | 1010.8 |
| 20260507213858 | 56 | 265 | 1.0 | 13.0 | 0.00 | 0.00 | 0.00 | 42 | 1010.8 |
| 20260507213752 | 56 | 231 | 4.0 | 13.0 | 0.00 | 0.00 | 0.00 | 41 | 1010.8 |
| 20260507213647 | 55 | 327 | 2.0 | 13.0 | 0.00 | 0.00 | 0.00 | 42 | 1010.8 |
| 20260507213542 | 55 | 330 | 2.0 | 13.0 | 0.00 | 0.00 | 0.00 | 42 | 1010.8 |
| 20260507213526 | 55 | 244 | 5.0 | 13.0 | 0.00 | 0.00 | 0.00 | 41 | 1010.8 |
| 20260507213449 | 55 | 292 | 2.0 | 13.0 | 0.00 | 0.00 | 0.00 | 42 | 1010.8 |
| 20260507213330 | 55 | 4 | 5.0 | 10.0 | 0.00 | 0.00 | 0.00 | 41 | 1010.8 |
| 20260507213224 | 55 | 243 | 7.0 | 10.0 | 0.00 | 0.00 | 0.00 | 41 | 1011.1 |
| 20260507213151 | 54 | 3 | 3.0 | 13.0 | 0.00 | 0.00 | 0.00 | 41 | 1011.4 |
| 20260507213147 | 53 | 302 | 6.0 | 10.0 | 0.00 | 0.00 | 0.00 | 42 | 1011.1 |
| 20260507213143 | 55 | 257 | 2.0 | 14.0 | 0.00 | 0.00 | 0.00 | 41 | 1011.1 |
| 20260507213139 | 55 | 226 | 5.0 | 9.0 | 0.00 | 0.00 | 0.00 | 42 | 1010.8 |
| 20260507213124 | 54 | 235 | 4.0 | 9.0 | 0.00 | 0.00 | 0.00 | 42 | 1010.8 |
| 20260507213116 | 54 | 175 | 5.0 | 9.0 | 0.00 | 0.00 | 0.00 | 42 | 1010.8 |
| 20260507212851 | 55 | 200 | 5.0 | 9.0 | 0.00 | 0.00 | 0.00 | 41 | 1010.8 |
| 20260507212842 | 55 | 162 | 1.0 | 8.0 | 0.00 | 0.00 | 0.00 | 43 | 1011.1 |
| 20260507212623 | 55 | 229 | 0.0 | 8.0 | 0.00 | 0.00 | 0.00 | 44 | 1011.1 |
| 20260507212613 | 55 | 263 | 1.0 | 8.0 | 0.00 | 0.00 | 0.00 | 43 | 1010.8 |
| 20260507212609 | 55 | 221 | 5.0 | 8.0 | 0.00 | 0.00 | 0.00 | 43 | 1010.8 |
| 20260507212346 | 54 | 235 | 2.0 | 8.0 | 0.00 | 0.00 | 0.00 | 43 | 1010.8 |
| 20260507212341 | 55 | 183 | 0.0 | 8.0 | 0.00 | 0.00 | 0.00 | 42 | 1011.1 |
| 20260507212333 | 55 | 182 | 5.0 | 8.0 | 0.00 | 0.00 | 0.00 | 42 | 1011.1 |
| 20260507212325 | 55 | 247 | 1.0 | 8.0 | 0.00 | 0.00 | 0.00 | 43 | 1010.8 |
| 20260507212316 | 54 | 104 | 0.0 | 8.0 | 0.00 | 0.00 | 0.00 | 45 | 1010.8 |
| 20260507212051 | 54 | 315 | 2.0 | 8.0 | 0.00 | 0.00 | 0.00 | 42 | 1010.8 |
| 20260507211830 | 53 | 347 | 6.0 | 8.0 | 0.00 | 0.00 | 0.00 | 44 | 1011.1 |
| 20260507211826 | 53 | 338 | 4.0 | 8.0 | 0.00 | 0.00 | 0.00 | 43 | 1011.1 |
| 20260507211818 | 53 | 266 | 3.0 | 8.0 | 0.00 | 0.00 | 0.00 | 44 | 1011.1 |
| 20260507211809 | 53 | 311 | 0.0 | 8.0 | 0.00 | 0.00 | 0.00 | 44 | 1010.8 |
| 20260507211547 | 53 | 4 | 5.0 | 8.0 | 0.00 | 0.00 | 0.00 | 44 | 1011.1 |
| 20260507211539 | 53 | 30 | 1.0 | 8.0 | 0.00 | 0.00 | 0.00 | 44 | 1011.1 |
| 20260507211318 | 53 | 250 | 5.0 | 13.0 | 0.00 | 0.00 | 0.00 | 44 | 1010.8 |
| 20260507211314 | 53 | 295 | 4.0 | 8.0 | 0.00 | 0.00 | 0.00 | 43 | 1011.1 |
| 20260507211305 | 53 | 333 | 4.0 | 8.0 | 0.00 | 0.00 | 0.00 | 43 | 1011.1 |
| 20260507211257 | 53 | 305 | 2.0 | 13.0 | 0.00 | 0.00 | 0.00 | 44 | 1010.8 |
| 20260507211035 | 53 | 266 | 3.0 | 13.0 | 0.00 | 0.00 | 0.00 | 44 | 1011.1 |
| 20260507211026 | 53 | 9 | 5.0 | 13.0 | 0.00 | 0.00 | 0.00 | 43 | 1010.8 |
| 20260507210801 | 53 | 238 | 3.0 | 13.0 | 0.00 | 0.00 | 0.00 | 43 | 1010.8 |
| 20260507210753 | 53 | 233 | 2.0 | 13.0 | 0.00 | 0.00 | 0.00 | 45 | 1011.1 |
| 20260507210744 | 53 | 264 | 4.0 | 13.0 | 0.00 | 0.00 | 0.00 | 45 | 1011.1 |
| 20260507210519 | 53 | 185 | 1.0 | 13.0 | 0.00 | 0.00 | 0.00 | 44 | 1011.1 |
| 20260507210300 | 54 | 120 | 1.0 | 8.0 | 0.00 | 0.00 | 0.00 | 43 | 1011.1 |
| 20260507210254 | 53 | 109 | 1.0 | 13.0 | 0.00 | 0.00 | 0.00 | 44 | 1011.1 |
| 20260507210246 | 54 | 288 | 3.0 | 13.0 | 0.00 | 0.00 | 0.00 | 43 | 1010.8 |
| 20260507210237 | 54 | 241 | 3.0 | 8.0 | 0.00 | 0.00 | 0.00 | 43 | 1011.1 |
| 20260507210015 | 54 | 120 | 1.0 | 8.0 | 0.00 | 0.00 | 0.00 | 43 | 1011.1 |
| 20260507210007 | 55 | 239 | 1.0 | 8.0 | 0.00 | 0.00 | 0.00 | 44 | 1011.1 |
| 20260507205747 | 54 | 221 | 2.0 | 8.0 | 0.00 | 0.00 | 0.00 | 42 | 1011.1 |
| 20260507205743 | 55 | 280 | 1.0 | 8.0 | 0.00 | 0.00 | 0.00 | 43 | 1011.1 |
| 20260507205734 | 55 | 217 | 3.0 | 8.0 | 0.00 | 0.00 | 0.00 | 42 | 1010.8 |
| 20260507205725 | 55 | 255 | 2.0 | 8.0 | 0.00 | 0.00 | 0.00 | 41 | 1010.8 |
| 20260507205503 | 54 | 223 | 2.0 | 8.0 | 0.00 | 0.00 | 0.00 | 42 | 1011.1 |
| 20260507205455 | 54 | 253 | 3.0 | 8.0 | 0.00 | 0.00 | 0.00 | 44 | 1011.1 |
| 20260507205231 | 54 | 312 | 6.0 | 15.0 | 0.00 | 0.00 | 0.00 | 42 | 1011.4 |
| 20260507205225 | 54 | 256 | 6.0 | 8.0 | 0.00 | 0.00 | 0.00 | 41 | 1011.1 |
| 20260507205216 | 54 | 203 | 4.0 | 8.0 | 0.00 | 0.00 | 0.00 | 41 | 1011.1 |
| 20260507204955 | 54 | 256 | 2.0 | 8.0 | 0.00 | 0.00 | 0.00 | 42 | 1011.1 |
| 20260507204945 | 54 | 315 | 3.0 | 8.0 | 0.00 | 0.00 | 0.00 | 42 | 1011.1 |
| 20260507204940 | 54 | 325 | 4.0 | 10.0 | 0.00 | 0.00 | 0.00 | 42 | 1011.1 |
| 20260507204932 | 53 | 276 | 2.0 | 10.0 | 0.00 | 0.00 | 0.00 | 43 | 1011.1 |
| 20260507204709 | 53 | 253 | 4.0 | 10.0 | 0.00 | 0.00 | 0.00 | 43 | 1011.1 |
| 20260507204700 | 53 | 278 | 4.0 | 10.0 | 0.00 | 0.00 | 0.00 | 43 | 1011.1 |
| 20260507204439 | 53 | 269 | 2.0 | 10.0 | 0.00 | 0.00 | 0.00 | 43 | 1011.1 |
| 20260507204430 | 53 | 230 | 1.0 | 10.0 | 0.00 | 0.00 | 0.00 | 43 | 1011.1 |
| 20260507204204 | 53 | 355 | 2.0 | 10.0 | 0.00 | 0.00 | 0.00 | 43 | 1011.1 |
| 20260507204155 | 53 | 347 | 2.0 | 10.0 | 0.00 | 0.00 | 0.00 | 43 | 1011.4 |
| 20260507204146 | 54 | 293 | 3.0 | 10.0 | 0.00 | 0.00 | 0.00 | 42 | 1011.1 |
| 20260507203925 | 54 | 187 | 5.0 | 10.0 | 0.00 | 0.00 | 0.00 | 42 | 1011.1 |
| 20260507203921 | 54 | 203 | 7.0 | 10.0 | 0.00 | 0.00 | 0.00 | 42 | 1011.1 |
| 20260507203912 | 54 | 279 | 4.0 | 13.0 | 0.00 | 0.00 | 0.00 | 42 | 1011.1 |
| 20260507203648 | 54 | 336 | 3.0 | 15.0 | 0.00 | 0.00 | 0.00 | 42 | 1011.1 |
| 20260507203639 | 54 | 307 | 2.0 | 15.0 | 0.00 | 0.00 | 0.00 | 42 | 1011.1 |
| 20260507203631 | 54 | 312 | 6.0 | 15.0 | 0.00 | 0.00 | 0.00 | 42 | 1011.4 |
| 20260507203409 | 53 | 239 | 6.0 | 15.0 | 0.00 | 0.00 | 0.00 | 41 | 1011.4 |
| 20260507203400 | 53 | 264 | 4.0 | 15.0 | 0.00 | 0.00 | 0.00 | 43 | 1011.4 |
| 20260507203140 | 53 | 189 | 2.0 | 15.0 | 0.00 | 0.00 | 0.00 | 42 | 1010.8 |
| 20260507203132 | 53 | 276 | 8.0 | 15.0 | 0.00 | 0.00 | 0.00 | 41 | 1010.8 |
| 20260507202909 | 53 | 246 | 3.0 | 15.0 | 0.00 | 0.00 | 0.00 | 43 | 1010.8 |
| 20260507202905 | 53 | 246 | 3.0 | 15.0 | 0.00 | 0.00 | 0.00 | 43 | 1010.8 |
| 20260507202856 | 53 | 266 | 7.0 | 15.0 | 0.00 | 0.00 | 0.00 | 41 | 1010.8 |
| 20260507202848 | 54 | 270 | 9.0 | 14.0 | 0.00 | 0.00 | 0.00 | 41 | 1011.4 |
| 20260507202625 | 54 | 200 | 4.0 | 14.0 | 0.00 | 0.00 | 0.00 | 41 | 1011.1 |
| 20260507202616 | 54 | 206 | 6.0 | 14.0 | 0.00 | 0.00 | 0.00 | 40 | 1011.1 |
| 20260507202349 | 55 | 313 | 5.0 | 14.0 | 0.00 | 0.00 | 0.00 | 40 | 1011.1 |
| 20260507202341 | 55 | 315 | 6.0 | 9.0 | 0.00 | 0.00 | 0.00 | 40 | 1011.4 |
| 20260507202121 | 55 | 233 | 5.0 | 13.0 | 0.00 | 0.00 | 0.00 | 41 | 1011.1 |
| 20260507202112 | 54 | 335 | 3.0 | 13.0 | 0.00 | 0.00 | 0.00 | 41 | 1011.4 |
| 20260507202104 | 54 | 46 | 2.0 | 13.0 | 0.00 | 0.00 | 0.00 | 40 | 1011.4 |
| 20260507201841 | 53 | 267 | 4.0 | 17.0 | 0.00 | 0.00 | 0.00 | 41 | 1011.4 |
| 20260507201837 | 54 | 282 | 3.0 | 13.0 | 0.00 | 0.00 | 0.00 | 43 | 1011.4 |
| 20260507201829 | 54 | 245 | 5.0 | 13.0 | 0.00 | 0.00 | 0.00 | 42 | 1011.1 |
| 20260507201606 | 54 | 202 | 2.0 | 17.0 | 0.00 | 0.00 | 0.00 | 43 | 1011.4 |
| 20260507201557 | 53 | 152 | 2.0 | 17.0 | 0.00 | 0.00 | 0.00 | 42 | 1011.1 |
| 20260507201332 | 54 | 226 | 5.0 | 17.0 | 0.00 | 0.00 | 0.00 | 41 | 1011.4 |
| 20260507201227 | 54 | 303 | 4.0 | 17.0 | 0.00 | 0.00 | 0.00 | 43 | 1011.4 |
| 20260507201121 | 53 | 254 | 11.0 | 17.0 | 0.00 | 0.00 | 0.00 | 41 | 1011.4 |
| 20260507201102 | 52 | 256 | 2.0 | 17.0 | 0.00 | 0.00 | 0.00 | 42 | 1011.4 |
| 20260507201058 | 53 | 341 | 5.0 | 17.0 | 0.00 | 0.00 | 0.00 | 42 | 1011.4 |
| 20260507201049 | 52 | 337 | 4.0 | 17.0 | 0.00 | 0.00 | 0.00 | 43 | 1011.4 |
| 20260507200802 | 52 | 225 | 3.0 | 17.0 | 0.00 | 0.00 | 0.00 | 42 | 1011.4 |
| 20260507200657 | 52 | 295 | 4.0 | 17.0 | 0.00 | 0.00 | 0.00 | 42 | 1011.4 |
| 20260507200551 | 52 | 270 | 5.0 | 13.0 | 0.00 | 0.00 | 0.00 | 42 | 1011.4 |
| 20260507200446 | 52 | 229 | 3.0 | 13.0 | 0.00 | 0.00 | 0.00 | 42 | 1011.4 |
| 20260507200340 | 53 | 254 | 6.0 | 13.0 | 0.00 | 0.00 | 0.00 | 43 | 1011.4 |
| 20260507200325 | 53 | 307 | 2.0 | 13.0 | 0.00 | 0.00 | 0.00 | 43 | 1011.4 |
| 20260507200233 | 53 | 230 | 3.0 | 13.0 | 0.00 | 0.00 | 0.00 | 42 | 1011.1 |
| 20260507200128 | 54 | 317 | 5.0 | 13.0 | 0.00 | 0.00 | 0.00 | 41 | 1011.1 |
| 20260507200022 | 54 | 246 | 4.0 | 10.0 | 0.00 | 0.00 | 0.00 | 41 | 1011.4 |
| 20260507195917 | 54 | 248 | 2.0 | 10.0 | 0.00 | 0.00 | 0.00 | 43 | 1011.4 |
| 20260507195818 | 55 | 324 | 0.0 | 10.0 | 0.00 | 0.00 | 0.00 | 41 | 1011.1 |
| 20260507195810 | 55 | 349 | 1.0 | 10.0 | 0.00 | 0.00 | 0.00 | 40 | 1011.1 |
| 20260507195705 | 55 | 342 | 0.0 | 10.0 | 0.00 | 0.00 | 0.00 | 41 | 1011.4 |
| 20260507195559 | 55 | 303 | 3.0 | 10.0 | 0.00 | 0.00 | 0.00 | 42 | 1011.4 |
| 20260507195453 | 54 | 232 | 2.0 | 10.0 | 0.00 | 0.00 | 0.00 | 41 | 1011.4 |
| 20260507195347 | 54 | 283 | 7.0 | 10.0 | 0.00 | 0.00 | 0.00 | 41 | 1011.1 |
| 20260507195309 | 54 | 169 | 3.0 | 10.0 | 0.00 | 0.00 | 0.00 | 42 | 1011.4 |
| 20260507195241 | 54 | 107 | 2.0 | 13.0 | 0.00 | 0.00 | 0.00 | 41 | 1011.1 |
| 20260507195136 | 55 | 357 | 6.0 | 13.0 | 0.00 | 0.00 | 0.00 | 41 | 1011.4 |
| 20260507195030 | 56 | 125 | 7.0 | 13.0 | 0.00 | 0.00 | 0.00 | 39 | 1011.4 |
| 20260507194924 | 55 | 283 | 2.0 | 13.0 | 0.00 | 0.00 | 0.00 | 43 | 1011.1 |
| 20260507194803 | 55 | 227 | 3.0 | 13.0 | 0.00 | 0.00 | 0.00 | 41 | 1011.4 |
| 20260507194713 | 54 | 240 | 1.0 | 13.0 | 0.00 | 0.00 | 0.00 | 41 | 1011.1 |
| 20260507194607 | 54 | 291 | 3.0 | 13.0 | 0.00 | 0.00 | 0.00 | 40 | 1011.4 |
| 20260507194501 | 54 | 281 | 3.0 | 13.0 | 0.00 | 0.00 | 0.00 | 42 | 1011.4 |
| 20260507194356 | 54 | 275 | 4.0 | 13.0 | 0.00 | 0.00 | 0.00 | 41 | 1011.1 |
| 20260507194256 | 54 | 195 | 8.0 | 11.0 | 0.00 | 0.00 | 0.00 | 41 | 1011.1 |
| 20260507194250 | 54 | 246 | 7.0 | 10.0 | 0.00 | 0.00 | 0.00 | 41 | 1011.1 |
| 20260507194144 | 53 | 260 | 8.0 | 10.0 | 0.00 | 0.00 | 0.00 | 42 | 1011.1 |
| 20260507194038 | 53 | 233 | 3.0 | 10.0 | 0.00 | 0.00 | 0.00 | 43 | 1011.4 |
| 20260507193932 | 53 | 343 | 5.0 | 11.0 | 0.00 | 0.00 | 0.00 | 42 | 1011.4 |
| 20260507193827 | 53 | 341 | 4.0 | 11.0 | 0.00 | 0.00 | 0.00 | 44 | 1011.4 |
| 20260507193750 | 53 | 328 | 2.0 | 11.0 | 0.00 | 0.00 | 0.00 | 44 | 1011.4 |
| 20260507193722 | 53 | 216 | 4.0 | 11.0 | 0.00 | 0.00 | 0.00 | 41 | 1011.4 |
| 20260507193615 | 53 | 97 | 2.0 | 11.0 | 0.00 | 0.00 | 0.00 | 44 | 1011.4 |
| 20260507193510 | 53 | 258 | 3.0 | 11.0 | 0.00 | 0.00 | 0.00 | 44 | 1011.8 |
| 20260507193404 | 52 | 318 | 6.0 | 11.0 | 0.00 | 0.00 | 0.00 | 44 | 1011.8 |
| 20260507193258 | 52 | 241 | 1.0 | 11.0 | 0.00 | 0.00 | 0.00 | 45 | 1011.4 |
| 20260507193242 | 52 | 313 | 3.0 | 11.0 | 0.00 | 0.00 | 0.00 | 45 | 1011.4 |
| 20260507193153 | 53 | 308 | 4.0 | 11.0 | 0.00 | 0.00 | 0.00 | 44 | 1011.4 |
| 20260507193047 | 53 | 315 | 7.0 | 13.0 | 0.00 | 0.00 | 0.00 | 43 | 1011.4 |
| 20260507192941 | 53 | 278 | 2.0 | 13.0 | 0.00 | 0.00 | 0.00 | 44 | 1011.8 |
| 20260507192836 | 53 | 342 | 2.0 | 13.0 | 0.00 | 0.00 | 0.00 | 45 | 1011.4 |
| 20260507192737 | 53 | 270 | 6.0 | 13.0 | 0.00 | 0.00 | 0.00 | 44 | 1011.4 |
| 20260507192730 | 53 | 292 | 5.0 | 13.0 | 0.00 | 0.00 | 0.00 | 43 | 1011.4 |
| 20260507192624 | 53 | 189 | 5.0 | 13.0 | 0.00 | 0.00 | 0.00 | 43 | 1011.4 |
| 20260507192519 | 53 | 260 | 5.0 | 13.0 | 0.00 | 0.00 | 0.00 | 43 | 1011.4 |
| 20260507192413 | 54 | 284 | 2.0 | 13.0 | 0.00 | 0.00 | 0.00 | 45 | 1011.4 |
| 20260507192307 | 54 | 337 | 6.0 | 13.0 | 0.00 | 0.00 | 0.00 | 43 | 1011.8 |
| 20260507192230 | 54 | 252 | 6.0 | 13.0 | 0.00 | 0.00 | 0.00 | 44 | 1011.4 |
| 20260507192202 | 54 | 193 | 6.0 | 13.0 | 0.00 | 0.00 | 0.00 | 43 | 1011.4 |
| 20260507192056 | 53 | 250 | 2.0 | 9.0 | 0.00 | 0.00 | 0.00 | 45 | 1011.4 |
| 20260507191950 | 52 | 321 | 1.0 | 9.0 | 0.00 | 0.00 | 0.00 | 45 | 1011.8 |
| 20260507191845 | 52 | 114 | 1.0 | 9.0 | 0.00 | 0.00 | 0.00 | 46 | 1011.8 |
| 20260507191724 | 52 | 304 | 4.0 | 9.0 | 0.00 | 0.00 | 0.00 | 47 | 1011.4 |
| 20260507191632 | 52 | 290 | 5.0 | 9.0 | 0.00 | 0.00 | 0.00 | 45 | 1011.4 |
| 20260507191525 | 52 | 305 | 2.0 | 9.0 | 0.00 | 0.00 | 0.00 | 47 | 1011.8 |
| 20260507191419 | 52 | 305 | 2.0 | 9.0 | 0.00 | 0.00 | 0.00 | 48 | 1011.4 |
| 20260507191315 | 51 | 86 | 2.0 | 9.0 | 0.00 | 0.00 | 0.00 | 46 | 1011.4 |
| 20260507191209 | 52 | 255 | 4.0 | 9.0 | 0.00 | 0.00 | 0.00 | 46 | 1011.8 |
| 20260507191103 | 52 | 308 | 3.0 | 9.0 | 0.00 | 0.00 | 0.00 | 45 | 1011.4 |
| 20260507190957 | 53 | 296 | 4.0 | 8.0 | 0.00 | 0.00 | 0.00 | 45 | 1011.8 |
| 20260507190852 | 53 | 248 | 4.0 | 7.0 | 0.00 | 0.00 | 0.00 | 45 | 1011.4 |
| 20260507190746 | 53 | 212 | 2.0 | 7.0 | 0.00 | 0.00 | 0.00 | 45 | 1011.4 |
| 20260507190709 | 53 | 278 | 1.0 | 7.0 | 0.00 | 0.00 | 0.00 | 46 | 1011.4 |
| 20260507190652 | 53 | 10 | 1.0 | 8.0 | 0.00 | 0.00 | 0.00 | 46 | 1011.4 |
| 20260507190534 | 53 | 354 | 4.0 | 8.0 | 0.00 | 0.00 | 0.00 | 45 | 1011.4 |
| 20260507190428 | 53 | 307 | 1.0 | 8.0 | 0.00 | 0.00 | 0.00 | 45 | 1011.4 |
| 20260507190324 | 53 | 238 | 4.0 | 14.0 | 0.00 | 0.00 | 0.00 | 46 | 1011.8 |
| 20260507190217 | 53 | 236 | 4.0 | 14.0 | 0.00 | 0.00 | 0.00 | 46 | 1011.4 |
| 20260507190202 | 53 | 250 | 4.0 | 14.0 | 0.00 | 0.00 | 0.00 | 45 | 1011.4 |
| 20260507190116 | 53 | 291 | 5.0 | 14.0 | 0.00 | 0.00 | 0.00 | 45 | 1011.4 |
| 20260507190006 | 54 | 260 | 4.0 | 14.0 | 0.00 | 0.00 | 0.00 | 43 | 1011.4 |
| 20260507185901 | 54 | 227 | 5.0 | 14.0 | 0.00 | 0.00 | 0.00 | 44 | 1011.4 |
| 20260507185755 | 53 | 206 | 2.0 | 14.0 | 0.00 | 0.00 | 0.00 | 44 | 1011.4 |
| 20260507185656 | 53 | 195 | 2.0 | 14.0 | 0.00 | 0.00 | 0.00 | 44 | 1011.8 |
| 20260507185649 | 53 | 171 | 5.0 | 14.0 | 0.00 | 0.00 | 0.00 | 45 | 1011.8 |
| 20260507185543 | 53 | 255 | 2.0 | 14.0 | 0.00 | 0.00 | 0.00 | 45 | 1011.4 |
| 20260507185437 | 53 | 224 | 6.0 | 14.0 | 0.00 | 0.00 | 0.00 | 44 | 1011.4 |
| 20260507185332 | 53 | 261 | 5.0 | 11.0 | 0.00 | 0.00 | 0.00 | 44 | 1011.4 |
| 20260507185226 | 53 | 77 | 1.0 | 11.0 | 0.00 | 0.00 | 0.00 | 47 | 1011.4 |
| 20260507185149 | 52 | 327 | 4.0 | 11.0 | 0.00 | 0.00 | 0.00 | 46 | 1011.4 |
| 20260507185121 | 52 | 280 | 3.0 | 11.0 | 0.00 | 0.00 | 0.00 | 46 | 1011.4 |
| 20260507185015 | 52 | 269 | 2.0 | 11.0 | 0.00 | 0.00 | 0.00 | 46 | 1011.8 |
| 20260507184909 | 52 | 296 | 4.0 | 10.0 | 0.00 | 0.00 | 0.00 | 46 | 1011.8 |
| 20260507184804 | 52 | 0 | 3.0 | 10.0 | 0.00 | 0.00 | 0.00 | 46 | 1011.8 |
| 20260507184643 | 52 | 286 | 5.0 | 10.0 | 0.00 | 0.00 | 0.00 | 46 | 1011.8 |
| 20260507184552 | 52 | 269 | 4.0 | 10.0 | 0.00 | 0.00 | 0.00 | 47 | 1011.4 |
| 20260507184447 | 51 | 271 | 2.0 | 10.0 | 0.00 | 0.00 | 0.00 | 46 | 1011.8 |
| 20260507184341 | 52 | 263 | 4.0 | 10.0 | 0.00 | 0.00 | 0.00 | 46 | 1011.8 |
| 20260507184235 | 52 | 261 | 8.0 | 10.0 | 0.00 | 0.00 | 0.00 | 45 | 1011.4 |
| 20260507184136 | 52 | 333 | 8.0 | 10.0 | 0.00 | 0.00 | 0.00 | 45 | 1011.4 |
| 20260507184130 | 52 | 252 | 5.0 | 10.0 | 0.00 | 0.00 | 0.00 | 45 | 1011.4 |
| 20260507184024 | 52 | 236 | 4.0 | 10.0 | 0.00 | 0.00 | 0.00 | 45 | 1011.4 |
| 20260507183918 | 52 | 218 | 3.0 | 10.0 | 0.00 | 0.00 | 0.00 | 45 | 1011.8 |
| 20260507183813 | 53 | 340 | 3.0 | 10.0 | 0.00 | 0.00 | 0.00 | 45 | 1011.4 |
| 20260507183707 | 52 | 255 | 3.0 | 10.0 | 0.00 | 0.00 | 0.00 | 47 | 1011.4 |
| 20260507183630 | 52 | 195 | 2.0 | 10.0 | 0.00 | 0.00 | 0.00 | 47 | 1011.4 |
| 20260507183600 | 52 | 237 | 3.0 | 10.0 | 0.00 | 0.00 | 0.00 | 46 | 1011.4 |
| 20260507183456 | 53 | 54 | 2.0 | 10.0 | 0.00 | 0.00 | 0.00 | 46 | 1011.4 |
| 20260507183350 | 53 | 267 | 4.0 | 10.0 | 0.00 | 0.00 | 0.00 | 45 | 1011.4 |
| 20260507183244 | 53 | 214 | 2.0 | 10.0 | 0.00 | 0.00 | 0.00 | 46 | 1011.4 |
| 20260507183139 | 53 | 280 | 5.0 | 11.0 | 0.00 | 0.00 | 0.00 | 44 | 1011.4 |
| 20260507183122 | 54 | 250 | 1.0 | 11.0 | 0.00 | 0.00 | 0.00 | 44 | 1011.4 |
| 20260507183032 | 54 | 328 | 5.0 | 11.0 | 0.00 | 0.00 | 0.00 | 44 | 1011.4 |
| 20260507182927 | 55 | 260 | 4.0 | 11.0 | 0.00 | 0.00 | 0.00 | 45 | 1011.4 |
| 20260507182822 | 55 | 281 | 8.0 | 11.0 | 0.00 | 0.00 | 0.00 | 43 | 1011.4 |
| 20260507182716 | 55 | 322 | 3.0 | 17.0 | 0.00 | 0.00 | 0.00 | 45 | 1011.4 |
| 20260507182616 | 54 | 252 | 3.0 | 17.0 | 0.00 | 0.00 | 0.00 | 45 | 1011.4 |
| 20260507182610 | 54 | 232 | 2.0 | 17.0 | 0.00 | 0.00 | 0.00 | 45 | 1011.4 |
| 20260507182504 | 54 | 217 | 2.0 | 17.0 | 0.00 | 0.00 | 0.00 | 45 | 1011.8 |
| 20260507182358 | 53 | 133 | 1.0 | 17.0 | 0.00 | 0.00 | 0.00 | 46 | 1011.8 |
| 20260507182252 | 52 | 184 | 6.0 | 17.0 | 0.00 | 0.00 | 0.00 | 45 | 1011.8 |
| 20260507182146 | 52 | 256 | 5.0 | 17.0 | 0.00 | 0.00 | 0.00 | 45 | 1011.8 |
| 20260507182109 | 51 | 229 | 5.0 | 17.0 | 0.00 | 0.00 | 0.00 | 48 | 1011.8 |
| 20260507182041 | 51 | 244 | 5.0 | 17.0 | 0.00 | 0.00 | 0.00 | 45 | 1011.4 |
| 20260507181935 | 51 | 190 | 5.0 | 17.0 | 0.00 | 0.00 | 0.00 | 46 | 1011.8 |
| 20260507181829 | 52 | 216 | 5.0 | 17.0 | 0.00 | 0.00 | 0.00 | 45 | 1011.8 |
| 20260507181725 | 52 | 233 | 7.0 | 13.0 | 0.00 | 0.00 | 0.00 | 45 | 1011.8 |
| 20260507181601 | 52 | 229 | 2.0 | 13.0 | 0.00 | 0.00 | 0.00 | 48 | 1011.8 |
| 20260507181511 | 52 | 278 | 4.0 | 13.0 | 0.00 | 0.00 | 0.00 | 46 | 1011.8 |
| 20260507181406 | 52 | 218 | 7.0 | 13.0 | 0.00 | 0.00 | 0.00 | 46 | 1011.8 |
| 20260507181301 | 53 | 226 | 4.0 | 10.0 | 0.00 | 0.00 | 0.00 | 46 | 1011.8 |
| 20260507181155 | 53 | 229 | 3.0 | 10.0 | 0.00 | 0.00 | 0.00 | 47 | 1011.8 |
| 20260507181050 | 53 | 127 | 4.0 | 10.0 | 0.00 | 0.00 | 0.00 | 45 | 1011.8 |
| 20260507180944 | 52 | 198 | 5.0 | 10.0 | 0.00 | 0.00 | 0.00 | 46 | 1011.8 |
| 20260507180839 | 52 | 193 | 8.0 | 10.0 | 0.00 | 0.00 | 0.00 | 46 | 1011.8 |
| 20260507180746 | 52 | 231 | 8.0 | 10.0 | 0.00 | 0.00 | 0.00 | 47 | 1011.8 |
| 20260507180628 | 52 | 243 | 4.0 | 10.0 | 0.00 | 0.00 | 0.00 | 46 | 1011.8 |
| 20260507180550 | 53 | 235 | 7.0 | 10.0 | 0.00 | 0.00 | 0.00 | 47 | 1011.8 |
| 20260507180521 | 53 | 247 | 6.0 | 10.0 | 0.00 | 0.00 | 0.00 | 47 | 1011.4 |
| 20260507180416 | 53 | 261 | 4.0 | 8.0 | 0.00 | 0.00 | 0.00 | 46 | 1011.8 |
| 20260507180310 | 53 | 249 | 2.0 | 8.0 | 0.00 | 0.00 | 0.00 | 46 | 1011.8 |
| 20260507180204 | 53 | 303 | 7.0 | 13.0 | 0.00 | 0.00 | 0.00 | 44 | 1011.8 |
| 20260507180112 | 53 | 277 | 1.0 | 13.0 | 0.00 | 0.00 | 0.00 | 46 | 1011.8 |
| 20260507180043 | 53 | 329 | 2.0 | 13.0 | 0.00 | 0.00 | 0.00 | 46 | 1011.8 |
| 20260507175952 | 53 | 268 | 1.0 | 13.0 | 0.00 | 0.00 | 0.00 | 48 | 1011.8 |
| 20260507175846 | 52 | 253 | 4.0 | 13.0 | 0.00 | 0.00 | 0.00 | 46 | 1011.8 |
| 20260507175740 | 52 | 245 | 3.0 | 13.0 | 0.00 | 0.00 | 0.00 | 47 | 1011.8 |
| 20260507175634 | 53 | 295 | 2.0 | 13.0 | 0.00 | 0.00 | 0.00 | 46 | 1011.8 |
| 20260507175535 | 53 | 304 | 5.0 | 13.0 | 0.00 | 0.00 | 0.00 | 45 | 1011.8 |
| 20260507175529 | 53 | 271 | 2.0 | 13.0 | 0.00 | 0.00 | 0.00 | 46 | 1011.8 |
| 20260507175423 | 53 | 206 | 2.0 | 13.0 | 0.00 | 0.00 | 0.00 | 49 | 1011.8 |
| 20260507175319 | 53 | 156 | 2.0 | 13.0 | 0.00 | 0.00 | 0.00 | 47 | 1011.8 |
| 20260507175213 | 53 | 243 | 6.0 | 9.0 | 0.00 | 0.00 | 0.00 | 48 | 1011.8 |
| 20260507175106 | 53 | 224 | 1.0 | 9.0 | 0.00 | 0.00 | 0.00 | 47 | 1011.8 |
| 20260507175028 | 53 | 227 | 2.0 | 9.0 | 0.00 | 0.00 | 0.00 | 47 | 1011.8 |
| 20260507175000 | 52 | 191 | 4.0 | 9.0 | 0.00 | 0.00 | 0.00 | 46 | 1011.8 |
| 20260507174855 | 52 | 231 | 6.0 | 9.0 | 0.00 | 0.00 | 0.00 | 47 | 1011.8 |
| 20260507174749 | 52 | 302 | 5.0 | 9.0 | 0.00 | 0.00 | 0.00 | 47 | 1011.8 |
| 20260507174642 | 53 | 271 | 3.0 | 9.0 | 0.00 | 0.00 | 0.00 | 47 | 1011.8 |
| 20260507174521 | 53 | 191 | 0.0 | 7.0 | 0.00 | 0.00 | 0.00 | 47 | 1011.8 |
| 20260507174431 | 53 | 293 | 3.0 | 7.0 | 0.00 | 0.00 | 0.00 | 46 | 1011.8 |
| 20260507174326 | 53 | 325 | 2.0 | 8.0 | 0.00 | 0.00 | 0.00 | 48 | 1011.8 |
| 20260507174220 | 53 | 192 | 4.0 | 8.0 | 0.00 | 0.00 | 0.00 | 47 | 1011.8 |
| 20260507174115 | 53 | 129 | 2.0 | 8.0 | 0.00 | 0.00 | 0.00 | 48 | 1011.8 |
| 20260507174008 | 53 | 312 | 1.0 | 8.0 | 0.00 | 0.00 | 0.00 | 48 | 1011.8 |
| 20260507173904 | 54 | 206 | 4.0 | 8.0 | 0.00 | 0.00 | 0.00 | 47 | 1011.8 |
| 20260507173758 | 54 | 334 | 3.0 | 10.0 | 0.00 | 0.00 | 0.00 | 46 | 1011.8 |
| 20260507173652 | 54 | 353 | 4.0 | 10.0 | 0.00 | 0.00 | 0.00 | 46 | 1011.8 |
| 20260507173545 | 54 | 158 | 1.0 | 10.0 | 0.00 | 0.00 | 0.00 | 48 | 1011.8 |
| 20260507173507 | 54 | 232 | 0.0 | 10.0 | 0.00 | 0.00 | 0.00 | 47 | 1011.8 |
| 20260507173440 | 54 | 233 | 5.0 | 10.0 | 0.00 | 0.00 | 0.00 | 45 | 1011.8 |
| 20260507173333 | 54 | 27 | 5.0 | 10.0 | 0.00 | 0.00 | 0.00 | 46 | 1011.8 |
| 20260507173228 | 54 | 261 | 3.0 | 10.0 | 0.00 | 0.00 | 0.00 | 48 | 1012.1 |
| 20260507173125 | 54 | 240 | 5.0 | 10.0 | 0.00 | 0.00 | 0.00 | 46 | 1011.8 |
| 20260507173019 | 53 | 222 | 4.0 | 10.0 | 0.00 | 0.00 | 0.00 | 48 | 1011.8 |
| 20260507173004 | 53 | 242 | 4.0 | 10.0 | 0.00 | 0.00 | 0.00 | 47 | 1011.8 |
| 20260507172913 | 53 | 301 | 2.0 | 10.0 | 0.00 | 0.00 | 0.00 | 48 | 1011.8 |
| 20260507172808 | 53 | 242 | 8.0 | 10.0 | 0.00 | 0.00 | 0.00 | 47 | 1011.8 |
| 20260507172702 | 54 | 216 | 2.0 | 10.0 | 0.00 | 0.00 | 0.00 | 47 | 1011.8 |
| 20260507172556 | 55 | 253 | 5.0 | 10.0 | 0.00 | 0.00 | 0.00 | 47 | 1012.1 |
| 20260507172458 | 55 | 290 | 4.0 | 10.0 | 0.00 | 0.00 | 0.00 | 46 | 1011.8 |
| 20260507172450 | 55 | 261 | 5.0 | 10.0 | 0.00 | 0.00 | 0.00 | 45 | 1011.8 |
| 20260507172345 | 55 | 302 | 4.0 | 10.0 | 0.00 | 0.00 | 0.00 | 45 | 1011.8 |
| 20260507172240 | 55 | 10 | 1.0 | 10.0 | 0.00 | 0.00 | 0.00 | 46 | 1012.1 |
| 20260507172133 | 55 | 235 | 4.0 | 10.0 | 0.00 | 0.00 | 0.00 | 45 | 1012.1 |
| 20260507172019 | 55 | 247 | 4.0 | 10.0 | 0.00 | 0.00 | 0.00 | 44 | 1012.1 |
| 20260507171951 | 55 | 247 | 4.0 | 10.0 | 0.00 | 0.00 | 0.00 | 44 | 1012.1 |
| 20260507171913 | 55 | 211 | 3.0 | 10.0 | 0.00 | 0.00 | 0.00 | 45 | 1012.1 |
| 20260507171808 | 54 | 202 | 4.0 | 10.0 | 0.00 | 0.00 | 0.00 | 45 | 1012.1 |
| 20260507171702 | 53 | 233 | 4.0 | 10.0 | 0.00 | 0.00 | 0.00 | 47 | 1012.1 |
| 20260507171556 | 53 | 233 | 1.0 | 8.0 | 0.00 | 0.00 | 0.00 | 48 | 1011.8 |
| 20260507171450 | 53 | 304 | 0.0 | 8.0 | 0.00 | 0.00 | 0.00 | 46 | 1011.8 |
| 20260507171345 | 54 | 239 | 4.0 | 8.0 | 0.00 | 0.00 | 0.00 | 45 | 1012.1 |
| 20260507171239 | 54 | 231 | 4.0 | 8.0 | 0.00 | 0.00 | 0.00 | 48 | 1012.1 |
| 20260507171135 | 54 | 305 | 2.0 | 8.0 | 0.00 | 0.00 | 0.00 | 47 | 1011.8 |
| 20260507171029 | 54 | 3 | 4.0 | 8.0 | 0.00 | 0.00 | 0.00 | 46 | 1011.8 |
| 20260507170941 | 54 | 241 | 4.0 | 9.0 | 0.00 | 0.00 | 0.00 | 46 | 1011.8 |
| 20260507170923 | 53 | 294 | 2.0 | 9.0 | 0.00 | 0.00 | 0.00 | 48 | 1012.1 |
| 20260507170818 | 53 | 337 | 3.0 | 9.0 | 0.00 | 0.00 | 0.00 | 47 | 1011.8 |
| 20260507170712 | 53 | 6 | 5.0 | 9.0 | 0.00 | 0.00 | 0.00 | 48 | 1011.8 |
| 20260507170606 | 52 | 243 | 3.0 | 9.0 | 0.00 | 0.00 | 0.00 | 50 | 1012.1 |
| 20260507170501 | 52 | 289 | 2.0 | 9.0 | 0.00 | 0.00 | 0.00 | 48 | 1012.1 |
| 20260507170434 | 52 | 279 | 2.0 | 9.0 | 0.00 | 0.00 | 0.00 | 48 | 1012.1 |
| 20260507170355 | 52 | 298 | 4.0 | 9.0 | 0.00 | 0.00 | 0.00 | 48 | 1012.1 |
| 20260507170249 | 52 | 189 | 4.0 | 9.0 | 0.00 | 0.00 | 0.00 | 49 | 1012.1 |
| 20260507170144 | 52 | 325 | 4.0 | 9.0 | 0.00 | 0.00 | 0.00 | 49 | 1012.1 |
| 20260507170051 | 52 | 287 | 5.0 | 9.0 | 0.00 | 0.00 | 0.00 | 48 | 1012.1 |
| 20260507165932 | 53 | 10 | 6.0 | 9.0 | 0.00 | 0.00 | 0.00 | 47 | 1011.8 |
| 20260507165827 | 53 | 352 | 5.0 | 13.0 | 0.00 | 0.00 | 0.00 | 48 | 1012.1 |
| 20260507165721 | 53 | 243 | 0.0 | 13.0 | 0.00 | 0.00 | 0.00 | 48 | 1012.1 |
| 20260507165615 | 53 | 239 | 1.0 | 13.0 | 0.00 | 0.00 | 0.00 | 49 | 1012.1 |
| 20260507165509 | 52 | 334 | 1.0 | 13.0 | 0.00 | 0.00 | 0.00 | 48 | 1011.8 |
| 20260507165421 | 52 | 22 | 2.0 | 13.0 | 0.00 | 0.00 | 0.00 | 49 | 1011.8 |
| 20260507165404 | 52 | 262 | 0.0 | 13.0 | 0.00 | 0.00 | 0.00 | 49 | 1011.8 |
| 20260507165258 | 53 | 318 | 4.0 | 13.0 | 0.00 | 0.00 | 0.00 | 48 | 1011.8 |
| 20260507165151 | 53 | 263 | 5.0 | 13.0 | 0.00 | 0.00 | 0.00 | 47 | 1011.8 |
| 20260507165047 | 53 | 257 | 2.0 | 13.0 | 0.00 | 0.00 | 0.00 | 49 | 1011.8 |
| 20260507164940 | 53 | 227 | 5.0 | 13.0 | 0.00 | 0.00 | 0.00 | 47 | 1012.1 |
| 20260507164914 | 53 | 218 | 4.0 | 11.0 | 0.00 | 0.00 | 0.00 | 48 | 1012.1 |
| 20260507164835 | 53 | 309 | 3.0 | 11.0 | 0.00 | 0.00 | 0.00 | 48 | 1011.8 |
| 20260507164730 | 52 | 327 | 1.0 | 10.0 | 0.00 | 0.00 | 0.00 | 50 | 1011.8 |
| 20260507164623 | 52 | 245 | 4.0 | 10.0 | 0.00 | 0.00 | 0.00 | 49 | 1012.1 |
| 20260507164517 | 53 | 240 | 7.0 | 10.0 | 0.00 | 0.00 | 0.00 | 48 | 1011.8 |
| 20260507164412 | 54 | 240 | 7.0 | 11.0 | 0.00 | 0.00 | 0.00 | 48 | 1011.8 |
| 20260507164307 | 54 | 265 | 6.0 | 11.0 | 0.00 | 0.00 | 0.00 | 48 | 1011.8 |
| 20260507164159 | 54 | 318 | 4.0 | 11.0 | 0.00 | 0.00 | 0.00 | 49 | 1011.8 |
| 20260507164053 | 54 | 267 | 2.0 | 11.0 | 0.00 | 0.00 | 0.00 | 47 | 1011.8 |
| 20260507163949 | 54 | 248 | 5.0 | 11.0 | 0.00 | 0.00 | 0.00 | 48 | 1011.8 |
| 20260507163900 | 53 | 249 | 1.0 | 11.0 | 0.00 | 0.00 | 0.00 | 49 | 1011.8 |
| 20260507163842 | 53 | 323 | 1.0 | 11.0 | 0.00 | 0.00 | 0.00 | 47 | 1011.8 |
| 20260507163736 | 53 | 229 | 0.0 | 11.0 | 0.00 | 0.00 | 0.00 | 46 | 1011.8 |
| 20260507163630 | 52 | 265 | 5.0 | 11.0 | 0.00 | 0.00 | 0.00 | 49 | 1011.8 |
| 20260507163525 | 53 | 298 | 5.0 | 11.0 | 0.00 | 0.00 | 0.00 | 48 | 1012.1 |
| 20260507163420 | 53 | 204 | 6.0 | 9.0 | 0.00 | 0.00 | 0.00 | 48 | 1012.1 |
| 20260507163353 | 53 | 214 | 4.0 | 9.0 | 0.00 | 0.00 | 0.00 | 49 | 1012.1 |
| 20260507163314 | 53 | 288 | 6.0 | 9.0 | 0.00 | 0.00 | 0.00 | 47 | 1012.1 |
| 20260507163209 | 52 | 182 | 1.0 | 9.0 | 0.00 | 0.00 | 0.00 | 49 | 1012.1 |
| 20260507163103 | 52 | 247 | 2.0 | 9.0 | 0.00 | 0.00 | 0.00 | 49 | 1012.1 |
| 20260507162958 | 52 | 328 | 2.0 | 9.0 | 0.00 | 0.00 | 0.00 | 48 | 1012.1 |
| 20260507162851 | 52 | 316 | 6.0 | 9.0 | 0.00 | 0.00 | 0.00 | 48 | 1012.1 |
| 20260507162746 | 52 | 301 | 2.0 | 9.0 | 0.00 | 0.00 | 0.00 | 48 | 1012.1 |
| 20260507162641 | 53 | 277 | 4.0 | 9.0 | 0.00 | 0.00 | 0.00 | 48 | 1012.1 |
| 20260507162535 | 53 | 259 | 5.0 | 9.0 | 0.00 | 0.00 | 0.00 | 47 | 1012.1 |
| 20260507162429 | 53 | 306 | 3.0 | 9.0 | 0.00 | 0.00 | 0.00 | 47 | 1012.1 |
| 20260507162341 | 54 | 227 | 5.0 | 11.0 | 0.00 | 0.00 | 0.00 | 47 | 1012.1 |
| 20260507162324 | 54 | 247 | 4.0 | 11.0 | 0.00 | 0.00 | 0.00 | 46 | 1012.1 |
| 20260507162218 | 55 | 268 | 4.0 | 11.0 | 0.00 | 0.00 | 0.00 | 46 | 1011.8 |
| 20260507162110 | 55 | 303 | 4.0 | 11.0 | 0.00 | 0.00 | 0.00 | 44 | 1012.1 |
| 20260507162004 | 54 | 327 | 2.0 | 11.0 | 0.00 | 0.00 | 0.00 | 47 | 1012.1 |
| 20260507161858 | 53 | 329 | 5.0 | 14.0 | 0.00 | 0.00 | 0.00 | 46 | 1012.1 |
| 20260507161833 | 53 | 352 | 4.0 | 14.0 | 0.00 | 0.00 | 0.00 | 47 | 1012.1 |
| 20260507161752 | 53 | 110 | 0.0 | 14.0 | 0.00 | 0.00 | 0.00 | 46 | 1012.1 |
| 20260507161646 | 53 | 171 | 5.0 | 14.0 | 0.00 | 0.00 | 0.00 | 46 | 1012.1 |
| 20260507161542 | 55 | 229 | 4.0 | 14.0 | 0.00 | 0.00 | 0.00 | 46 | 1011.8 |
| 20260507161436 | 55 | 218 | 9.0 | 14.0 | 0.00 | 0.00 | 0.00 | 44 | 1011.8 |
| 20260507161331 | 55 | 87 | 2.0 | 14.0 | 0.00 | 0.00 | 0.00 | 45 | 1011.8 |
| 20260507161226 | 55 | 241 | 5.0 | 14.0 | 0.00 | 0.00 | 0.00 | 44 | 1011.8 |
| 20260507161120 | 54 | 256 | 7.0 | 14.0 | 0.00 | 0.00 | 0.00 | 47 | 1012.1 |
| 20260507161014 | 53 | 187 | 3.0 | 14.0 | 0.00 | 0.00 | 0.00 | 47 | 1012.1 |
| 20260507160908 | 53 | 233 | 7.0 | 11.0 | 0.00 | 0.00 | 0.00 | 44 | 1012.1 |
| 20260507160819 | 53 | 249 | 3.0 | 10.0 | 0.00 | 0.00 | 0.00 | 46 | 1012.1 |
| 20260507160802 | 53 | 241 | 5.0 | 10.0 | 0.00 | 0.00 | 0.00 | 49 | 1012.1 |
| 20260507160657 | 53 | 272 | 2.0 | 10.0 | 0.00 | 0.00 | 0.00 | 44 | 1012.1 |
| 20260507160551 | 52 | 195 | 5.0 | 10.0 | 0.00 | 0.00 | 0.00 | 47 | 1012.1 |
| 20260507160445 | 51 | 250 | 6.0 | 10.0 | 0.00 | 0.00 | 0.00 | 46 | 1012.1 |
| 20260507160339 | 51 | 278 | 5.0 | 9.0 | 0.00 | 0.00 | 0.00 | 46 | 1012.1 |
| 20260507160313 | 51 | 220 | 4.0 | 9.0 | 0.00 | 0.00 | 0.00 | 46 | 1012.1 |
| 20260507160232 | 51 | 261 | 6.0 | 9.0 | 0.00 | 0.00 | 0.00 | 46 | 1012.1 |
| 20260507160127 | 52 | 258 | 7.0 | 9.0 | 0.00 | 0.00 | 0.00 | 45 | 1012.4 |
| 20260507160021 | 52 | 248 | 7.0 | 9.0 | 0.00 | 0.00 | 0.00 | 45 | 1012.4 |
| 20260507155915 | 52 | 246 | 0.0 | 8.0 | 0.00 | 0.00 | 0.00 | 47 | 1012.4 |
| 20260507155810 | 52 | 312 | 2.0 | 8.0 | 0.00 | 0.00 | 0.00 | 46 | 1012.4 |
| 20260507155704 | 52 | 263 | 0.0 | 8.0 | 0.00 | 0.00 | 0.00 | 46 | 1012.1 |
| 20260507155558 | 53 | 264 | 4.0 | 8.0 | 0.00 | 0.00 | 0.00 | 47 | 1012.1 |
| 20260507155453 | 53 | 15 | 4.0 | 13.0 | 0.00 | 0.00 | 0.00 | 48 | 1012.1 |
| 20260507155346 | 52 | 138 | 3.0 | 13.0 | 0.00 | 0.00 | 0.00 | 48 | 1012.1 |
| 20260507155258 | 52 | 262 | 0.0 | 13.0 | 0.00 | 0.00 | 0.00 | 48 | 1012.1 |
| 20260507155241 | 52 | 262 | 0.0 | 13.0 | 0.00 | 0.00 | 0.00 | 48 | 1011.8 |
| 20260507155135 | 52 | 25 | 1.0 | 13.0 | 0.00 | 0.00 | 0.00 | 48 | 1012.1 |
| 20260507155029 | 52 | 242 | 4.0 | 13.0 | 0.00 | 0.00 | 0.00 | 46 | 1012.1 |
| 20260507154924 | 52 | 341 | 1.0 | 13.0 | 0.00 | 0.00 | 0.00 | 47 | 1012.1 |
| 20260507154818 | 51 | 282 | 4.0 | 13.0 | 0.00 | 0.00 | 0.00 | 49 | 1011.8 |
| 20260507154752 | 51 | 251 | 4.0 | 13.0 | 0.00 | 0.00 | 0.00 | 47 | 1011.8 |
| 20260507154713 | 51 | 174 | 0.0 | 13.0 | 0.00 | 0.00 | 0.00 | 48 | 1012.1 |
| 20260507154607 | 52 | 235 | 11.0 | 13.0 | 0.00 | 0.00 | 0.00 | 47 | 1012.1 |
| 20260507154501 | 52 | 280 | 4.0 | 11.0 | 0.00 | 0.00 | 0.00 | 48 | 1012.1 |
| 20260507154355 | 52 | 295 | 6.0 | 11.0 | 0.00 | 0.00 | 0.00 | 47 | 1012.1 |
| 20260507154249 | 52 | 354 | 2.0 | 11.0 | 0.00 | 0.00 | 0.00 | 49 | 1012.1 |
| 20260507154144 | 52 | 217 | 0.0 | 11.0 | 0.00 | 0.00 | 0.00 | 48 | 1012.1 |
| 20260507154038 | 52 | 278 | 4.0 | 9.0 | 0.00 | 0.00 | 0.00 | 47 | 1012.4 |
| 20260507154015 | 53 | 329 | 1.0 | 9.0 | 0.00 | 0.00 | 0.00 | 46 | 1012.1 |
| 20260507153932 | 53 | 329 | 1.0 | 9.0 | 0.00 | 0.00 | 0.00 | 46 | 1012.1 |
| 20260507153827 | 53 | 60 | 5.0 | 14.0 | 0.00 | 0.00 | 0.00 | 46 | 1012.1 |
| 20260507153738 | 53 | 324 | 4.0 | 14.0 | 0.00 | 0.00 | 0.00 | 46 | 1012.1 |
| 20260507153721 | 54 | 315 | 4.0 | 14.0 | 0.00 | 0.00 | 0.00 | 46 | 1012.1 |
| 20260507153632 | 53 | 317 | 2.0 | 14.0 | 0.00 | 0.00 | 0.00 | ||
| 20260507153615 | 54 | 298 | 5.0 | 14.0 | 0.00 | 0.00 | 0.00 | 45 | 1012.1 |
| 20260507153510 | 54 | 242 | 4.0 | 14.0 | 0.00 | 0.00 | 0.00 | 48 | 1012.4 |
| 20260507153455 | 53 | 245 | 1.0 | 14.0 | 0.00 | 0.00 | 0.00 | 47 | 1012.1 |
| 20260507153424 | 53 | 261 | 5.0 | 14.0 | 0.00 | 0.00 | 0.00 | 45 | 1012.1 |
| 20260507153404 | 53 | 317 | 2.0 | 14.0 | 0.00 | 0.00 | 0.00 | 47 | 1012.1 |
| 20260507153347 | 53 | 220 | 5.0 | 14.0 | 0.00 | 0.00 | 0.00 | 0.1 | |
| 20260507153258 | 53 | 245 | 1.0 | 14.0 | 0.00 | 0.00 | 0.00 | 47 | 1012.1 |
| 20260507153232 | 53 | 19 | 0.0 | 14.0 | 0.00 | 0.00 | 0.00 | 47 | 1012.1 |
| 20260507153153 | 53 | 261 | 5.0 | 14.0 | 0.00 | 0.00 | 0.00 | 45 | 1012.1 |
| 20260507153131 | 54 | 259 | 3.0 | 11.0 | 0.00 | 0.00 | 0.00 | 46 | 1012.1 |
| 20260507153047 | 53 | 220 | 5.0 | 14.0 | 0.00 | 0.00 | 0.00 | 47 | 1012.1 |
| 20260507153031 | 54 | 323 | 2.0 | 9.0 | 0.00 | 0.00 | 0.00 | 48 | 1012.1 |
| 20260507152941 | 53 | 296 | 6.0 | 14.0 | 0.00 | 0.00 | 0.00 | 47 | 1012.1 |
| 20260507152836 | 54 | 259 | 3.0 | 11.0 | 0.00 | 0.00 | 0.00 | 46 | 1012.1 |
| 20260507152730 | 54 | 323 | 2.0 | 9.0 | 0.00 | 0.00 | 0.00 | 48 | 1012.1 |
| 20260507152623 | 54 | 177 | 7.0 | 9.0 | 0.00 | 0.00 | 0.00 | 46 | 1012.1 |
| 20260507152602 | 52 | 229 | 4.0 | 7.0 | 0.00 | 0.00 | 0.00 | 50 | 1011.8 |
| 20260507152517 | 54 | 207 | 3.0 | 8.0 | 0.00 | 0.00 | 0.00 | 44 | 1012.1 |
| 20260507152411 | 53 | 145 | 2.0 | 7.0 | 0.00 | 0.00 | 0.00 | 49 | 1012.1 |
| 20260507152307 | 53 | 233 | 2.0 | 7.0 | 0.00 | 0.00 | 0.00 | 48 | 1012.1 |
| 20260507152218 | 53 | 133 | 2.0 | 7.0 | 0.00 | 0.00 | 0.00 | 47 | 1012.1 |
| 20260507152201 | 53 | 133 | 2.0 | 7.0 | 0.00 | 0.00 | 0.00 | 47 | 1012.1 |
| 20260507152054 | 53 | 223 | 4.0 | 7.0 | 0.00 | 0.00 | 0.00 | 48 | 1012.1 |
| 20260507151948 | 53 | 227 | 2.0 | 7.0 | 0.00 | 0.00 | 0.00 | 47 | 1012.1 |
| 20260507151843 | 52 | 229 | 4.0 | 7.0 | 0.00 | 0.00 | 0.00 | 50 | 1011.8 |
| 20260507151737 | 52 | 218 | 4.0 | 7.0 | 0.00 | 0.00 | 0.00 | 50 | 1012.1 |
| 20260507151711 | 52 | 266 | 4.0 | 7.0 | 0.00 | 0.00 | 0.00 | 49 | 1012.1 |
| 20260507151632 | 52 | 107 | 4.0 | 7.0 | 0.00 | 0.00 | 0.00 | 48 | 1012.1 |
| 20260507151526 | 52 | 254 | 4.0 | 7.0 | 0.00 | 0.00 | 0.00 | 49 | 1011.8 |
| 20260507151420 | 52 | 248 | 1.0 | 7.0 | 0.00 | 0.00 | 0.00 | 49 | 1012.1 |
| 20260507151314 | 51 | 232 | 4.0 | 7.0 | 0.00 | 0.00 | 0.00 | 49 | 1012.1 |
| 20260507151208 | 52 | 126 | 2.0 | 7.0 | 0.00 | 0.00 | 0.00 | 50 | 1012.1 |
| 20260507151104 | 52 | 310 | 4.0 | 6.0 | 0.00 | 0.00 | 0.00 | 48 | 1012.4 |
| 20260507150958 | 53 | 319 | 4.0 | 6.0 | 0.00 | 0.00 | 0.00 | 49 | 1012.1 |
| 20260507150852 | 53 | 167 | 0.0 | 6.0 | 0.00 | 0.00 | 0.00 | 47 | 1012.1 |
| 20260507150747 | 53 | 241 | 1.0 | 6.0 | 0.00 | 0.00 | 0.00 | 49 | 1012.1 |
| 20260507150659 | 53 | 354 | 1.0 | 6.0 | 0.00 | 0.00 | 0.00 | 49 | 1012.1 |
| 20260507150641 | 53 | 149 | 2.0 | 6.0 | 0.00 | 0.00 | 0.00 | 49 | 1012.1 |
| 20260507150535 | 53 | 249 | 2.0 | 6.0 | 0.00 | 0.00 | 0.00 | 48 | 1012.1 |
| 20260507150428 | 53 | 245 | 2.0 | 6.0 | 0.00 | 0.00 | 0.00 | 50 | 1012.1 |
| 20260507150323 | 53 | 245 | 1.0 | 6.0 | 0.00 | 0.00 | 0.00 | 49 | 1012.1 |
| 20260507150217 | 53 | 78 | 0.0 | 6.0 | 0.00 | 0.00 | 0.00 | 49 | 1012.1 |
| 20260507150150 | 53 | 114 | 1.0 | 6.0 | 0.00 | 0.00 | 0.00 | 49 | 1012.1 |
| 20260507150114 | 53 | 336 | 1.0 | 6.0 | 0.00 | 0.00 | 0.00 | 50 | 1012.1 |
| 20260507150006 | 52 | 56 | 1.0 | 6.0 | 0.00 | 0.00 | 0.00 | 49 | 1012.1 |
| 20260507145900 | 52 | 336 | 4.0 | 8.0 | 0.00 | 0.00 | 0.00 | 49 | 1012.1 |
| 20260507145754 | 51 | 330 | 0.0 | 11.0 | 0.00 | 0.00 | 0.00 | 51 | 1011.8 |
| 20260507145649 | 52 | 223 | 0.0 | 11.0 | 0.00 | 0.00 | 0.00 | 49 | 1011.8 |
| 20260507145543 | 52 | 196 | 2.0 | 11.0 | 0.00 | 0.00 | 0.00 | 48 | 1012.1 |
| 20260507145438 | 52 | 298 | 3.0 | 11.0 | 0.00 | 0.00 | 0.00 | 48 | 1012.4 |
| 20260507145332 | 52 | 131 | 0.0 | 11.0 | 0.00 | 0.00 | 0.00 | 49 | 1012.1 |
| 20260507145227 | 52 | 256 | 1.0 | 11.0 | 0.00 | 0.00 | 0.00 | 48 | 1012.1 |
| 20260507145122 | 52 | 248 | 2.0 | 11.0 | 0.00 | 0.00 | 0.00 | 49 | 1012.1 |
| 20260507145016 | 52 | 205 | 3.0 | 11.0 | 0.00 | 0.00 | 0.00 | 49 | 1011.8 |
| 20260507144910 | 52 | 208 | 4.0 | 11.0 | 0.00 | 0.00 | 0.00 | 48 | 1012.4 |
| 20260507144804 | 52 | 215 | 3.0 | 11.0 | 0.00 | 0.00 | 0.00 | 50 | 1012.1 |
| 20260507144656 | 52 | 239 | 3.0 | 11.0 | 0.00 | 0.00 | 0.00 | 50 | 1012.1 |
| 20260507144630 | 52 | 111 | 6.0 | 11.0 | 0.00 | 0.00 | 0.00 | 49 | 1011.8 |
| 20260507144551 | 51 | 258 | 2.0 | 10.0 | 0.00 | 0.00 | 0.00 | 50 | 1011.8 |
| 20260507144446 | 51 | 220 | 1.0 | 14.0 | 0.00 | 0.00 | 0.00 | 50 | 1012.1 |
| 20260507144340 | 51 | 200 | 5.0 | 14.0 | 0.00 | 0.00 | 0.00 | 49 | 1012.1 |
| 20260507144235 | 51 | 257 | 5.0 | 14.0 | 0.00 | 0.00 | 0.00 | 50 | 1012.4 |
| 20260507144129 | 51 | 213 | 4.0 | 14.0 | 0.00 | 0.00 | 0.00 | 52 | 1012.4 |
| 20260507144023 | 51 | 247 | 5.0 | 14.0 | 0.00 | 0.00 | 0.00 | 50 | 1012.4 |
| 20260507143918 | 51 | 137 | 2.0 | 14.0 | 0.00 | 0.00 | 0.00 | 51 | 1012.4 |
| 20260507143812 | 51 | 278 | 2.0 | 14.0 | 0.00 | 0.00 | 0.00 | 49 | 1012.4 |
| 20260507143707 | 52 | 245 | 4.0 | 14.0 | 0.00 | 0.00 | 0.00 | 49 | 1012.1 |
| 20260507143618 | 52 | 253 | 6.0 | 14.0 | 0.00 | 0.00 | 0.00 | 48 | 1012.1 |
| 20260507143600 | 53 | 278 | 9.0 | 14.0 | 0.00 | 0.00 | 0.00 | 47 | 1012.1 |
| 20260507143456 | 53 | 221 | 4.0 | 9.0 | 0.00 | 0.00 | 0.00 | 48 | 1012.1 |
| 20260507143349 | 52 | 254 | 2.0 | 9.0 | 0.00 | 0.00 | 0.00 | 48 | 1012.1 |
| 20260507143244 | 52 | 211 | 0.0 | 9.0 | 0.00 | 0.00 | 0.00 | 50 | 1012.1 |
| 20260507143138 | 52 | 17 | 2.0 | 9.0 | 0.00 | 0.00 | 0.00 | 49 | 1012.1 |
| 20260507143112 | 52 | 114 | 1.0 | 9.0 | 0.00 | 0.00 | 0.00 | 49 | 1012.1 |
| 20260507143032 | 52 | 218 | 1.0 | 9.0 | 0.00 | 0.00 | 0.00 | 49 | 1012.1 |
| 20260507142927 | 52 | 245 | 2.0 | 9.0 | 0.00 | 0.00 | 0.00 | 51 | 1012.1 |
| 20260507142821 | 52 | 254 | 0.0 | 9.0 | 0.00 | 0.00 | 0.00 | 48 | 1012.4 |
| 20260507142715 | 52 | 128 | 2.0 | 9.0 | 0.00 | 0.00 | 0.00 | 48 | 1012.4 |
| 20260507142610 | 52 | 238 | 6.0 | 13.0 | 0.00 | 0.00 | 0.00 | 48 | 1012.1 |
| 20260507142504 | 51 | 300 | 2.0 | 13.0 | 0.00 | 0.00 | 0.00 | 49 | 1012.4 |
| 20260507142358 | 52 | 238 | 4.0 | 13.0 | 0.00 | 0.00 | 0.00 | 48 | 1012.1 |
| 20260507142252 | 52 | 255 | 1.0 | 13.0 | 0.00 | 0.00 | 0.00 | 48 | 1012.1 |
| 20260507142147 | 51 | 308 | 0.0 | 13.0 | 0.00 | 0.00 | 0.00 | 50 | 1012.1 |
| 20260507142058 | 51 | 202 | 2.0 | 13.0 | 0.00 | 0.00 | 0.00 | 52 | 1012.1 |
| 20260507142041 | 51 | 332 | 2.0 | 13.0 | 0.00 | 0.00 | 0.00 | 50 | 1012.4 |
| 20260507141935 | 51 | 267 | 5.0 | 13.0 | 0.00 | 0.00 | 0.00 | 49 | 1012.1 |
| 20260507141829 | 51 | 236 | 0.0 | 13.0 | 0.00 | 0.00 | 0.00 | 49 | 1012.1 |
| 20260507141724 | 52 | 229 | 6.0 | 13.0 | 0.00 | 0.00 | 0.00 | 50 | 1012.4 |
| 20260507141618 | 52 | 209 | 4.0 | 9.0 | 0.00 | 0.00 | 0.00 | 50 | 1012.1 |
| 20260507141552 | 52 | 87 | 5.0 | 9.0 | 0.00 | 0.00 | 0.00 | 50 | 1012.1 |
| 20260507141513 | 52 | 239 | 5.0 | 9.0 | 0.00 | 0.00 | 0.00 | 50 | 1012.4 |
| 20260507141407 | 51 | 83 | 0.0 | 8.0 | 0.00 | 0.00 | 0.00 | 51 | 1012.4 |
| 20260507141301 | 51 | 195 | 4.0 | 8.0 | 0.00 | 0.00 | 0.00 | 49 | 1012.1 |
| 20260507141157 | 52 | 245 | 3.0 | 8.0 | 0.00 | 0.00 | 0.00 | 49 | 1012.4 |
| 20260507141051 | 52 | 258 | 3.0 | 8.0 | 0.00 | 0.00 | 0.00 | 51 | 1012.4 |
| 20260507140946 | 53 | 195 | 4.0 | 8.0 | 0.00 | 0.00 | 0.00 | 49 | 1012.4 |
| 20260507140840 | 53 | 243 | 3.0 | 8.0 | 0.00 | 0.00 | 0.00 | 48 | 1012.4 |
| 20260507140735 | 53 | 207 | 2.0 | 7.0 | 0.00 | 0.00 | 0.00 | 50 | 1012.4 |
| 20260507140628 | 52 | 59 | 1.0 | 7.0 | 0.00 | 0.00 | 0.00 | 51 | 1012.4 |
| 20260507140540 | 52 | 328 | 1.0 | 9.0 | 0.00 | 0.00 | 0.00 | 51 | 1012.4 |
| 20260507140523 | 52 | 175 | 0.0 | 9.0 | 0.00 | 0.00 | 0.00 | 49 | 1012.4 |
| 20260507140417 | 52 | 251 | 0.0 | 9.0 | 0.00 | 0.00 | 0.00 | 49 | 1012.4 |
| 20260507140313 | 52 | 247 | 1.0 | 10.0 | 0.00 | 0.00 | 0.00 | 50 | 1012.4 |
| 20260507140205 | 52 | 126 | 0.0 | 10.0 | 0.00 | 0.00 | 0.00 | 50 | 1012.4 |
| 20260507140113 | 51 | 223 | 4.0 | 10.0 | 0.00 | 0.00 | 0.00 | 49 | 1012.4 |
| 20260507140033 | 51 | 165 | 5.0 | 10.0 | 0.00 | 0.00 | 0.00 | 50 | 1012.4 |
| 20260507135954 | 51 | 300 | 0.0 | 10.0 | 0.00 | 0.00 | 0.00 | 52 | 1012.4 |
| 20260507135848 | 50 | 188 | 2.0 | 10.0 | 0.00 | 0.00 | 0.00 | 52 | 1012.4 |
| 20260507135743 | 50 | 114 | 0.0 | 10.0 | 0.00 | 0.00 | 0.00 | 52 | 1012.4 |
| 20260507135637 | 50 | 203 | 4.0 | 10.0 | 0.00 | 0.00 | 0.00 | 50 | 1012.4 |
| 20260507135530 | 50 | 201 | 4.0 | 10.0 | 0.00 | 0.00 | 0.00 | 51 | 1012.4 |
| 20260507135425 | 51 | 195 | 4.0 | 10.0 | 0.00 | 0.00 | 0.00 | 50 | 1012.4 |
| 20260507135319 | 51 | 220 | 6.0 | 8.0 | 0.00 | 0.00 | 0.00 | 49 | 1012.4 |
| 20260507135214 | 51 | 245 | 4.0 | 8.0 | 0.00 | 0.00 | 0.00 | 49 | 1012.4 |
| 20260507135107 | 52 | 186 | 4.0 | 8.0 | 0.00 | 0.00 | 0.00 | 50 | 1012.8 |
| 20260507135018 | 52 | 313 | 4.0 | 8.0 | 0.00 | 0.00 | 0.00 | 49 | 1012.4 |
| 20260507135001 | 52 | 313 | 4.0 | 8.0 | 0.00 | 0.00 | 0.00 | 49 | 1012.4 |
| 20260507134917 | 50 | 183 | 1.0 | 6.0 | 0.00 | 0.00 | 0.00 | 52 | 1012.4 |
| 20260507134912 | 51 | 316 | 0.0 | 1.0 | 0.00 | 0.00 | 0.00 | 56 | 1012.4 |
| 20260507134908 | 48 | 135 | 1.0 | 3.0 | 0.00 | 0.00 | 0.00 | 61 | 1012.4 |
| 20260507134904 | 47 | 264 | 2.0 | 3.0 | 0.00 | 0.00 | 0.00 | 60 | 1012.4 |
| 20260507134900 | 47 | 269 | 1.0 | 1.0 | 0.00 | 0.00 | 0.00 | 66 | 1012.8 |
| 20260507134856 | 51 | 268 | 2.0 | 7.0 | 0.00 | 0.00 | 0.00 | 51 | 1012.4 |
| 20260507134847 | 51 | 249 | 4.0 | 4.0 | 0.00 | 0.00 | 0.00 | 53 | 1012.4 |
| 20260507134842 | 51 | 210 | 0.0 | 7.0 | 0.00 | 0.00 | 0.00 | 50 | 1012.4 |
| 20260507134838 | 51 | 174 | 1.0 | 7.0 | 0.00 | 0.00 | 0.00 | 51 | 1012.4 |
| 20260507134830 | 51 | 227 | 0.0 | 7.0 | 0.00 | 0.00 | 0.00 | 50 | 1012.4 |
| 20260507134822 | 51 | 212 | 2.0 | 7.0 | 0.00 | 0.00 | 0.00 | 51 | 1012.4 |
| 20260507134557 | 51 | 218 | 3.0 | 7.0 | 0.00 | 0.00 | 0.00 | 50 | 1012.4 |
| 20260507134335 | 50 | 231 | 3.0 | 7.0 | 0.00 | 0.00 | 0.00 | 51 | 1012.4 |
| 20260507134331 | 51 | 269 | 2.0 | 7.0 | 0.00 | 0.00 | 0.00 | 54 | 1012.4 |
| 20260507134322 | 50 | 234 | 2.0 | 7.0 | 0.00 | 0.00 | 0.00 | 52 | 1012.4 |
| 20260507134313 | 50 | 255 | 1.0 | 7.0 | 0.00 | 0.00 | 0.00 | 52 | 1012.8 |
| 20260507134303 | 50 | 231 | 3.0 | 7.0 | 0.00 | 0.00 | 0.00 | 51 | 1012.4 |
| 20260507134044 | 51 | 282 | 6.0 | 7.0 | 0.00 | 0.00 | 0.00 | 50 | 1012.4 |
| 20260507133823 | 49 | 316 | 3.0 | 6.0 | 0.00 | 0.00 | 0.00 | 52 | 1012.4 |
| 20260507133819 | 51 | 144 | 1.0 | 4.0 | 0.00 | 0.00 | 0.00 | 51 | 1012.4 |
| 20260507133810 | 51 | 291 | 1.0 | 4.0 | 0.00 | 0.00 | 0.00 | 51 | 1012.4 |
| 20260507133802 | 51 | 295 | 1.0 | 4.0 | 0.00 | 0.00 | 0.00 | 50 | 1012.4 |
| 20260507133540 | 51 | 138 | 2.0 | 4.0 | 0.00 | 0.00 | 0.00 | 52 | 1012.4 |
| 20260507133532 | 51 | 210 | 1.0 | 4.0 | 0.00 | 0.00 | 0.00 | 50 | 1012.8 |
| 20260507133311 | 49 | 181 | 1.0 | 4.0 | 0.00 | 0.00 | 0.00 | 52 | 1012.1 |
| 20260507133307 | 51 | 106 | 0.0 | 6.0 | 0.00 | 0.00 | 0.00 | 53 | 1012.8 |
| 20260507133258 | 51 | 260 | 2.0 | 6.0 | 0.00 | 0.00 | 0.00 | 52 | 1012.4 |
| 20260507133250 | 51 | 215 | 1.0 | 6.0 | 0.00 | 0.00 | 0.00 | 52 | 1012.4 |
| 20260507133024 | 50 | 178 | 1.0 | 6.0 | 0.00 | 0.00 | 0.00 | 52 | 1012.4 |
| 20260507132804 | 50 | 195 | 2.0 | 6.0 | 0.00 | 0.00 | 0.00 | 54 | 1012.4 |
| 20260507132754 | 50 | 248 | 2.0 | 4.0 | 0.00 | 0.00 | 0.00 | 54 | 1012.4 |
| 20260507132751 | 49 | 274 | 2.0 | 6.0 | 0.00 | 0.00 | 0.00 | 53 | 1012.4 |
| 20260507132742 | 49 | 339 | 0.0 | 6.0 | 0.00 | 0.00 | 0.00 | 53 | 1012.4 |
| 20260507132731 | 49 | 316 | 3.0 | 6.0 | 0.00 | 0.00 | 0.00 | 52 | 1012.4 |
| 20260507132508 | 50 | 328 | 3.0 | 6.0 | 0.00 | 0.00 | 0.00 | 52 | 1012.4 |
| 20260507132244 | 49 | 295 | 0.0 | 2.0 | 0.00 | 0.00 | 0.00 | 57 | 1012.8 |
| 20260507132241 | 50 | 24 | 1.0 | 4.0 | 0.00 | 0.00 | 0.00 | 52 | 1012.4 |
| 20260507132232 | 50 | 337 | 2.0 | 4.0 | 0.00 | 0.00 | 0.00 | 52 | 1012.4 |
| 20260507132223 | 51 | 302 | 2.0 | 4.0 | 0.00 | 0.00 | 0.00 | 51 | 1012.4 |
| 20260507131957 | 51 | 336 | 4.0 | 4.0 | 0.00 | 0.00 | 0.00 | 51 | 1012.4 |
| 20260507131953 | 51 | 329 | 3.0 | 3.0 | 0.00 | 0.00 | 0.00 | 52 | 1012.4 |
| 20260507131945 | 50 | 180 | 0.0 | 3.0 | 0.00 | 0.00 | 0.00 | 52 | 1012.4 |
| 20260507131725 | 50 | 264 | 1.0 | 3.0 | 0.00 | 0.00 | 0.00 | 52 | 1012.4 |
| 20260507131716 | 49 | 159 | 0.0 | 3.0 | 0.00 | 0.00 | 0.00 | 52 | 1012.1 |
| 20260507131708 | 49 | 168 | 1.0 | 4.0 | 0.00 | 0.00 | 0.00 | 51 | 1012.4 |
| 20260507131446 | 49 | 221 | 2.0 | 4.0 | 0.00 | 0.00 | 0.00 | 54 | 1012.1 |
| 20260507131437 | 49 | 290 | 1.0 | 4.0 | 0.00 | 0.00 | 0.00 | 53 | 1012.4 |
| 20260507131218 | 49 | 243 | 1.0 | 4.0 | 0.00 | 0.00 | 0.00 | 53 | 1012.4 |
| 20260507131209 | 49 | 279 | 1.0 | 4.0 | 0.00 | 0.00 | 0.00 | 53 | 1012.4 |
| 20260507130942 | 49 | 249 | 1.0 | 4.0 | 0.00 | 0.00 | 0.00 | 54 | 1012.4 |
| 20260507130934 | 49 | 275 | 0.0 | 4.0 | 0.00 | 0.00 | 0.00 | 53 | 1012.4 |
| 20260507130925 | 49 | 269 | 0.0 | 4.0 | 0.00 | 0.00 | 0.00 | 52 | 1012.4 |
| 20260507130702 | 49 | 226 | 3.0 | 4.0 | 0.00 | 0.00 | 0.00 | 54 | 1012.4 |
| 20260507130653 | 50 | 296 | 2.0 | 4.0 | 0.00 | 0.00 | 0.00 | 53 | 1012.4 |
| 20260507130429 | 50 | 249 | 2.0 | 4.0 | 0.00 | 0.00 | 0.00 | 56 | 1012.4 |
| 20260507130421 | 50 | 216 | 1.0 | 4.0 | 0.00 | 0.00 | 0.00 | 52 | 1012.4 |
| 20260507130148 | 51 | 179 | 2.0 | 3.0 | 0.00 | 0.00 | 0.00 | 54 | 1012.4 |
| 20260507130140 | 51 | 286 | 2.0 | 3.0 | 0.00 | 0.00 | 0.00 | 56 | 1012.4 |
| 20260507130131 | 51 | 210 | 1.0 | 2.0 | 0.00 | 0.00 | 0.00 | 55 | 1012.4 |
| 20260507125909 | 50 | 327 | 0.0 | 1.0 | 0.00 | 0.00 | 0.00 | 56 | 1012.4 |
| 20260507125900 | 50 | 328 | 0.0 | 1.0 | 0.00 | 0.00 | 0.00 | 57 | 1012.4 |
| 20260507125642 | 49 | 326 | 0.0 | 1.0 | 0.00 | 0.00 | 0.00 | 58 | 1012.4 |
| 20260507125633 | 49 | 298 | 0.0 | 1.0 | 0.00 | 0.00 | 0.00 | 58 | 1012.8 |
| 20260507125623 | 49 | 295 | 0.0 | 2.0 | 0.00 | 0.00 | 0.00 | 57 | 1012.8 |
| 20260507125402 | 49 | 272 | 0.0 | 3.0 | 0.00 | 0.00 | 0.00 | 56 | 1012.4 |
| 20260507125353 | 49 | 155 | 0.0 | 3.0 | 0.00 | 0.00 | 0.00 | 58 | 1012.4 |
| 20260507125131 | 48 | 152 | 0.0 | 3.0 | 0.00 | 0.00 | 0.00 | 61 | 1012.4 |
| 20260507125123 | 48 | 134 | 0.0 | 3.0 | 0.00 | 0.00 | 0.00 | 61 | 1012.4 |
| 20260507124858 | 48 | 135 | 1.0 | 3.0 | 0.00 | 0.00 | 0.00 | 61 | 1012.4 |
| 20260507124850 | 47 | 177 | 0.0 | 3.0 | 0.00 | 0.00 | 0.00 | 61 | 1012.8 |
| 20260507124841 | 47 | 181 | 0.0 | 3.0 | 0.00 | 0.00 | 0.00 | 61 | 1012.8 |
| 20260507124618 | 47 | 245 | 2.0 | 3.0 | 0.00 | 0.00 | 0.00 | 61 | 1012.8 |
| 20260507124609 | 47 | 264 | 1.0 | 3.0 | 0.00 | 0.00 | 0.00 | 60 | 1012.4 |
| 20260507124347 | 47 | 262 | 3.0 | 3.0 | 0.00 | 0.00 | 0.00 | 61 | 1012.4 |
| 20260507124339 | 47 | 258 | 1.0 | 1.0 | 0.00 | 0.00 | 0.00 | 61 | 1012.8 |
| 20260507124120 | 47 | 319 | 1.0 | 1.0 | 0.00 | 0.00 | 0.00 | 63 | 1012.4 |
| 20260507124111 | 47 | 334 | 0.0 | 1.0 | 0.00 | 0.00 | 0.00 | 63 | 1012.8 |
| 20260507124101 | 47 | 269 | 1.0 | 1.0 | 0.00 | 0.00 | 0.00 | 66 | 1012.8 |
| 20260507123744 | 47 | 195 | 0.0 | 1.0 | 0.00 | 0.00 | 0.00 | 66 | 1012.4 |
| 20260507123638 | 46 | 172 | 0.0 | 1.0 | 0.00 | 0.00 | 0.00 | 66 | 1012.8 |
| 20260507123534 | 46 | 194 | 0.0 | 1.0 | 0.00 | 0.00 | 0.00 | 66 | 1012.8 |
| 20260507123428 | 46 | 247 | 0.0 | 1.0 | 0.00 | 0.00 | 0.00 | 65 | 1012.8 |
| 20260507123340 | 46 | 249 | 0.0 | 1.0 | 0.00 | 0.00 | 0.00 | 66 | 1012.8 |
| 20260507123322 | 46 | 277 | 1.0 | 1.0 | 0.00 | 0.00 | 0.00 | 66 | 1012.8 |
| 20260507123216 | 46 | 221 | 0.0 | 1.0 | 0.00 | 0.00 | 0.00 | 69 | 1012.8 |
| 20260507123111 | 46 | 220 | 0.0 | 1.0 | 0.00 | 0.00 | 0.00 | 68 | 1012.8 |
| 20260507123006 | 46 | 241 | 0.0 | 1.0 | 0.00 | 0.00 | 0.00 | 69 | 1012.8 |
| 20260507122859 | 45 | 220 | 0.0 | 1.0 | 0.00 | 0.00 | 0.00 | 69 | 1012.8 |
| 20260507122834 | 45 | 223 | 1.0 | 1.0 | 0.00 | 0.00 | 0.00 | 69 | 1012.8 |
| 20260507122754 | 45 | 221 | 1.0 | 1.0 | 0.00 | 0.00 | 0.00 | 68 | 1012.8 |
| 20260507122648 | 45 | 231 | 0.0 | 1.0 | 0.00 | 0.00 | 0.00 | 70 | 1012.8 |
| 20260507122542 | 45 | 232 | 1.0 | 1.0 | 0.00 | 0.00 | 0.00 | 71 | 1012.8 |
| 20260507122436 | 45 | 169 | 0.0 | 1.0 | 0.00 | 0.00 | 0.00 | 72 | 1012.8 |
| 20260507122330 | 45 | 169 | 0.0 | 1.0 | 0.00 | 0.00 | 0.00 | 72 | 1012.4 |
| 20260507122226 | 44 | 169 | 0.0 | 1.0 | 0.00 | 0.00 | 0.00 | 73 | 1013.1 |
| 20260507122120 | 44 | 168 | 0.0 | 1.0 | 0.00 | 0.00 | 0.00 | 72 | 1012.8 |
| 20260507122014 | 44 | 169 | 0.0 | 1.0 | 0.00 | 0.00 | 0.00 | 72 | 1012.8 |
| 20260507121907 | 44 | 303 | 0.0 | 1.0 | 0.00 | 0.00 | 0.00 | 72 | 1012.8 |
| 20260507121819 | 44 | 316 | 0.0 | 1.0 | 0.00 | 0.00 | 0.00 | 72 | 1012.4 |
| 20260507121802 | 44 | 327 | 0.0 | 1.0 | 0.00 | 0.00 | 0.00 | 73 | 1012.4 |
| 20260507121656 | 44 | 338 | 0.0 | 1.0 | 0.00 | 0.00 | 0.00 | 74 | 1012.8 |
| 20260507121550 | 44 | 358 | 0.0 | 0.0 | 0.00 | 0.00 | 0.00 | 74 | 1012.8 |
| 20260507121445 | 44 | 344 | 0.0 | 0.0 | 0.00 | 0.00 | 0.00 | 76 | 1012.8 |
| 20260507121340 | 44 | 344 | 0.0 | 0.0 | 0.00 | 0.00 | 0.00 | 76 | 1012.8 |
| 20260507121313 | 44 | 344 | 0.0 | 0.0 | 0.00 | 0.00 | 0.00 | 76 | 1012.8 |
| 20260507121234 | 44 | 353 | 0.0 | 0.0 | 0.00 | 0.00 | 0.00 | 76 | 1012.8 |
| 20260507121128 | 44 | 349 | 0.0 | 0.0 | 0.00 | 0.00 | 0.00 | 76 | 1012.8 |
| 20260507121023 | 43 | 349 | 0.0 | 0.0 | 0.00 | 0.00 | 0.00 | 76 | 1012.8 |
| 20260507120917 | 43 | 350 | 0.0 | 0.0 | 0.00 | 0.00 | 0.00 | 77 | 1012.8 |
| 20260507120811 | 43 | 339 | 0.0 | 0.0 | 0.00 | 0.00 | 0.00 | 77 | 1012.8 |
| 20260507120705 | 43 | 339 | 0.0 | 0.0 | 0.00 | 0.00 | 0.00 | 77 | 1012.8 |
| 20260507120600 | 43 | 338 | 0.0 | 0.0 | 0.00 | 0.00 | 0.00 | 78 | 1012.8 |
| 20260507120454 | 42 | 338 | 0.0 | 0.0 | 0.00 | 0.00 | 0.00 | 79 | 1012.8 |
| 20260507120348 | 42 | 338 | 0.0 | 0.0 | 0.00 | 0.00 | 0.00 | 80 | 1012.8 |
| 20260507120301 | 42 | 338 | 0.0 | 0.0 | 0.00 | 0.00 | 0.00 | 81 | 1012.4 |
| 20260507120243 | 41 | 338 | 0.0 | 0.0 | 0.00 | 0.00 | 0.00 | 81 | 1012.8 |
| 20260507120137 | 41 | 338 | 0.0 | 0.0 | 0.00 | 0.00 | 0.00 | 83 | 1012.8 |
| 20260507120030 | 41 | 338 | 0.0 | 0.0 | 0.00 | 0.00 | 0.00 | 83 | 1012.8 |
| 20260507115926 | 41 | 338 | 0.0 | 0.0 | 0.00 | 0.00 | 0.00 | 83 | 1012.4 |
| 20260507115820 | 40 | 338 | 0.0 | 0.0 | 0.00 | 0.00 | 0.00 | 83 | 1012.4 |
| 20260507115753 | 40 | 338 | 0.0 | 0.0 | 0.00 | 0.00 | 0.00 | 83 | 1012.4 |
| 20260507115714 | 40 | 338 | 0.0 | 0.0 | 0.00 | 0.00 | 0.00 | 84 | 1012.8 |
| 20260507115609 | 40 | 338 | 0.0 | 0.0 | 0.00 | 0.00 | 0.00 | 85 | 1012.8 |
| 20260507115504 | 39 | 338 | 0.0 | 0.0 | 0.00 | 0.00 | 0.00 | 85 | 1012.8 |
| 20260507115357 | 39 | 338 | 0.0 | 0.0 | 0.00 | 0.00 | 0.00 | 85 | 1012.8 |
| 20260507115252 | 39 | 338 | 0.0 | 0.0 | 0.00 | 0.00 | 0.00 | 85 | 1012.8 |
| 20260507115147 | 39 | 338 | 0.0 | 0.0 | 0.00 | 0.00 | 0.00 | 86 | 1012.8 |
| 20260507115040 | 39 | 338 | 0.0 | 0.0 | 0.00 | 0.00 | 0.00 | 86 | 1012.8 |
| 20260507114934 | 38 | 338 | 0.0 | 0.0 | 0.00 | 0.00 | 0.00 | 87 | 1012.8 |
| 20260507114828 | 38 | 338 | 0.0 | 0.0 | 0.00 | 0.00 | 0.00 | 88 | 1012.8 |
| 20260507114740 | 38 | 339 | 0.0 | 0.0 | 0.00 | 0.00 | 0.00 | 88 | 1012.8 |
| 20260507114722 | 38 | 339 | 0.0 | 0.0 | 0.00 | 0.00 | 0.00 | 88 | 1012.8 |
| 20260507114617 | 37 | 339 | 0.0 | 0.0 | 0.00 | 0.00 | 0.00 | 89 | 1012.8 |
| 20260507114511 | 37 | 340 | 0.0 | 0.0 | 0.00 | 0.00 | 0.00 | 89 | 1012.8 |
| 20260507114405 | 37 | 340 | 0.0 | 0.0 | 0.00 | 0.00 | 0.00 | 90 | 1012.8 |
| 20260507114233 | 37 | 339 | 0.0 | 0.0 | 0.00 | 0.00 | 0.00 | 90 | 1012.8 |
| 20260507114154 | 37 | 340 | 0.0 | 0.0 | 0.00 | 0.00 | 0.00 | 90 | 1012.8 |
| 20260507114049 | 37 | 340 | 0.0 | 0.0 | 0.00 | 0.00 | 0.00 | 90 | 1012.8 |
| 20260507113943 | 36 | 340 | 0.0 | 0.0 | 0.00 | 0.00 | 0.00 | 91 | 1012.4 |
| 20260507113838 | 36 | 340 | 0.0 | 0.0 | 0.00 | 0.00 | 0.00 | 91 | 1012.4 |
| 20260507113731 | 36 | 340 | 0.0 | 0.0 | 0.00 | 0.00 | 0.00 | 91 | 1012.8 |
| 20260507113626 | 36 | 340 | 0.0 | 0.0 | 0.00 | 0.00 | 0.00 | 91 | 1012.4 |
| 20260507113520 | 36 | 340 | 0.0 | 0.0 | 0.00 | 0.00 | 0.00 | 91 | 1012.4 |
| 20260507113415 | 36 | 340 | 0.0 | 0.0 | 0.00 | 0.00 | 0.00 | 91 | 1012.4 |
| 20260507113309 | 36 | 340 | 0.0 | 0.0 | 0.00 | 0.00 | 0.00 | 91 | 1012.4 |
| 20260507113221 | 35 | 340 | 0.0 | 0.0 | 0.00 | 0.00 | 0.00 | 91 | 1012.8 |
| 20260507113204 | 35 | 340 | 0.0 | 0.0 | 0.00 | 0.00 | 0.00 | 91 | 1012.8 |
| 20260507113057 | 35 | 340 | 0.0 | 0.0 | 0.00 | 0.00 | 0.00 | 91 | 1012.8 |
| 20260507112952 | 35 | 340 | 0.0 | 0.0 | 0.00 | 0.00 | 0.00 | 91 | 1012.4 |
| 20260507112846 | 35 | 340 | 0.0 | 0.0 | 0.00 | 0.00 | 0.00 | 91 | 1012.4 |
| 20260507112741 | 35 | 340 | 0.0 | 0.0 | 0.00 | 0.00 | 0.00 | 91 | 1012.8 |
| 20260507112715 | 35 | 340 | 0.0 | 0.0 | 0.00 | 0.00 | 0.00 | 92 | 1012.8 |
| 20260507112634 | 35 | 340 | 0.0 | 0.0 | 0.00 | 0.00 | 0.00 | 92 | 1012.4 |
| 20260507112528 | 35 | 340 | 0.0 | 0.0 | 0.00 | 0.00 | 0.00 | 92 | 1012.4 |
| 20260507112423 | 35 | 340 | 0.0 | 0.0 | 0.00 | 0.00 | 0.00 | 92 | 1012.8 |
| 20260507112318 | 35 | 340 | 0.0 | 0.0 | 0.00 | 0.00 | 0.00 | 92 | 1012.4 |
| 20260507112212 | 35 | 340 | 0.0 | 0.0 | 0.00 | 0.00 | 0.00 | 92 | 1012.4 |
| 20260507112106 | 35 | 340 | 0.0 | 0.0 | 0.00 | 0.00 | 0.00 | 92 | 1012.8 |
| 20260507112000 | 35 | 340 | 0.0 | 0.0 | 0.00 | 0.00 | 0.00 | 92 | 1012.4 |
| 20260507111854 | 35 | 340 | 0.0 | 0.0 | 0.00 | 0.00 | 0.00 | 93 | 1012.4 |
| 20260507111749 | 34 | 340 | 0.0 | 0.0 | 0.00 | 0.00 | 0.00 | 93 | 1012.4 |
| 20260507111701 | 34 | 340 | 0.0 | 0.0 | 0.00 | 0.00 | 0.00 | 92 | 1012.4 |
| 20260507111643 | 34 | 340 | 0.0 | 0.0 | 0.00 | 0.00 | 0.00 | 92 | 1012.4 |
| 20260507111538 | 34 | 339 | 0.0 | 0.0 | 0.00 | 0.00 | 0.00 | 92 | 1012.4 |
| 20260507111432 | 34 | 339 | 0.0 | 0.0 | 0.00 | 0.00 | 0.00 | 92 | 1012.4 |
| 20260507111326 | 34 | 339 | 0.0 | 0.0 | 0.00 | 0.00 | 0.00 | 92 | 1012.4 |
| 20260507111234 | 34 | 339 | 0.0 | 0.0 | 0.00 | 0.00 | 0.00 | 92 | 1012.4 |
| 20260507111155 | 33 | 339 | 0.0 | 0.0 | 0.00 | 0.00 | 0.00 | 92 | 1012.4 |
| 20260507111115 | 33 | 339 | 0.0 | 0.0 | 0.00 | 0.00 | 0.00 | 92 | 1012.4 |
| 20260507111008 | 33 | 339 | 0.0 | 0.0 | 0.00 | 0.00 | 0.00 | 92 | 1012.4 |
| 20260507110902 | 33 | 340 | 0.0 | 0.0 | 0.00 | 0.00 | 0.00 | 92 | 1012.4 |
| 20260507110757 | 33 | 340 | 0.0 | 0.0 | 0.00 | 0.00 | 0.00 | 92 | 1012.4 |
| 20260507110652 | 33 | 340 | 0.0 | 0.0 | 0.00 | 0.00 | 0.00 | 92 | 1012.4 |
| 20260507110544 | 33 | 340 | 0.0 | 0.0 | 0.00 | 0.00 | 0.00 | 92 | 1012.4 |
| 20260507110438 | 33 | 340 | 0.0 | 0.0 | 0.00 | 0.00 | 0.00 | 92 | 1012.1 |
| 20260507110333 | 33 | 340 | 0.0 | 0.0 | 0.00 | 0.00 | 0.00 | 92 | 1012.1 |
| 20260507110228 | 33 | 340 | 0.0 | 0.0 | 0.00 | 0.00 | 0.00 | 92 | 1012.4 |
| 20260507110139 | 33 | 340 | 0.0 | 0.0 | 0.00 | 0.00 | 0.00 | 92 | 1012.4 |
| 20260507110121 | 33 | 340 | 0.0 | 0.0 | 0.00 | 0.00 | 0.00 | 92 | 1012.4 |
| 20260507110016 | 33 | 340 | 0.0 | 0.0 | 0.00 | 0.00 | 0.00 | 92 | 1012.4 |
| 20260507105910 | 33 | 340 | 0.0 | 0.0 | 0.00 | 0.00 | 0.00 | 92 | 1012.4 |
| 20260507105804 | 33 | 340 | 0.0 | 0.0 | 0.00 | 0.00 | 0.00 | 92 | 1012.4 |
| 20260507105658 | 34 | 339 | 0.0 | 0.0 | 0.00 | 0.00 | 0.00 | 92 | 1012.4 |
| 20260507105631 | 34 | 340 | 0.0 | 0.0 | 0.00 | 0.00 | 0.00 | 92 | 1012.4 |
| 20260507105552 | 34 | 339 | 0.0 | 0.0 | 0.00 | 0.00 | 0.00 | 92 | 1012.4 |
| 20260507105446 | 34 | 339 | 0.0 | 0.0 | 0.00 | 0.00 | 0.00 | 92 | 1012.4 |
| 20260507105341 | 33 | 339 | 0.0 | 0.0 | 0.00 | 0.00 | 0.00 | 92 | 1012.4 |
| 20260507105235 | 33 | 339 | 0.0 | 0.0 | 0.00 | 0.00 | 0.00 | 92 | 1012.4 |
| 20260507105136 | 33 | 339 | 0.0 | 0.0 | 0.00 | 0.00 | 0.00 | 92 | 1012.4 |
| 20260507105129 | 33 | 339 | 0.0 | 0.0 | 0.00 | 0.00 | 0.00 | 92 | 1012.4 |
| 20260507105025 | 33 | 339 | 0.0 | 0.0 | 0.00 | 0.00 | 0.00 | 92 | 1012.4 |
| 20260507104918 | 34 | 339 | 0.0 | 0.0 | 0.00 | 0.00 | 0.00 | 92 | 1012.4 |
| 20260507104812 | 34 | 339 | 0.0 | 0.0 | 0.00 | 0.00 | 0.00 | 92 | 1012.4 |
| 20260507104708 | 34 | 339 | 0.0 | 0.0 | 0.00 | 0.00 | 0.00 | 92 | 1012.4 |
| 20260507104630 | 34 | 339 | 0.0 | 0.0 | 0.00 | 0.00 | 0.00 | 92 | 1012.4 |
| 20260507104602 | 34 | 339 | 0.0 | 0.0 | 0.00 | 0.00 | 0.00 | 92 | 1012.4 |
| 20260507104456 | 34 | 339 | 0.0 | 0.0 | 0.00 | 0.00 | 0.00 | 92 | 1012.1 |
| 20260507104349 | 34 | 339 | 0.0 | 0.0 | 0.00 | 0.00 | 0.00 | 92 | 1012.1 |
| 20260507104245 | 34 | 339 | 0.0 | 0.0 | 0.00 | 0.00 | 0.00 | 92 | 1012.4 |
| 20260507104124 | 34 | 339 | 0.0 | 0.0 | 0.00 | 0.00 | 0.00 | 92 | 1012.1 |
| 20260507104033 | 34 | 339 | 0.0 | 0.0 | 0.00 | 0.00 | 0.00 | 91 | 1012.1 |
| 20260507103927 | 34 | 340 | 0.0 | 0.0 | 0.00 | 0.00 | 0.00 | 91 | 1012.1 |
| 20260507103822 | 34 | 340 | 0.0 | 0.0 | 0.00 | 0.00 | 0.00 | 91 | 1012.1 |
| 20260507103716 | 34 | 339 | 0.0 | 0.0 | 0.00 | 0.00 | 0.00 | 91 | 1012.4 |
| 20260507103611 | 34 | 339 | 0.0 | 0.0 | 0.00 | 0.00 | 0.00 | 91 | 1012.4 |
| 20260507103505 | 34 | 339 | 0.0 | 0.0 | 0.00 | 0.00 | 0.00 | 91 | 1012.1 |
| 20260507103359 | 34 | 339 | 0.0 | 1.0 | 0.00 | 0.00 | 0.00 | 91 | 1012.1 |
| 20260507103254 | 34 | 339 | 0.0 | 1.0 | 0.00 | 0.00 | 0.00 | 91 | 1012.1 |
| 20260507103149 | 34 | 339 | 0.0 | 1.0 | 0.00 | 0.00 | 0.00 | 91 | 1012.1 |
| 20260507103112 | 34 | 339 | 0.0 | 1.0 | 0.00 | 0.00 | 0.00 | 91 | 1012.4 |
| 20260507103043 | 34 | 339 | 0.0 | 1.0 | 0.00 | 0.00 | 0.00 | 91 | 1012.1 |
| 20260507102938 | 34 | 339 | 0.0 | 1.0 | 0.00 | 0.00 | 0.00 | 91 | 1012.1 |
| 20260507102832 | 34 | 340 | 0.0 | 1.0 | 0.00 | 0.00 | 0.00 | 91 | 1012.1 |
| 20260507102726 | 34 | 339 | 0.0 | 1.0 | 0.00 | 0.00 | 0.00 | 91 | 1012.1 |
| 20260507102618 | 34 | 339 | 0.0 | 1.0 | 0.00 | 0.00 | 0.00 | 91 | 1012.4 |
| 20260507102602 | 34 | 339 | 0.0 | 1.0 | 0.00 | 0.00 | 0.00 | 91 | 1012.4 |
| 20260507102512 | 34 | 340 | 0.0 | 1.0 | 0.00 | 0.00 | 0.00 | 91 | 1012.1 |
| 20260507102407 | 34 | 340 | 0.0 | 1.0 | 0.00 | 0.00 | 0.00 | 91 | 1012.1 |
| 20260507102301 | 34 | 340 | 0.0 | 1.0 | 0.00 | 0.00 | 0.00 | 91 | 1012.1 |
| 20260507102156 | 34 | 340 | 0.0 | 1.0 | 0.00 | 0.00 | 0.00 | 91 | 1012.1 |
| 20260507102049 | 34 | 340 | 0.0 | 1.0 | 0.00 | 0.00 | 0.00 | 91 | 1012.1 |
| 20260507101944 | 34 | 340 | 0.0 | 1.0 | 0.00 | 0.00 | 0.00 | 91 | 1012.4 |
| 20260507101838 | 34 | 340 | 0.0 | 1.0 | 0.00 | 0.00 | 0.00 | 91 | 1012.4 |
| 20260507101732 | 35 | 339 | 0.0 | 1.0 | 0.00 | 0.00 | 0.00 | 91 | 1012.4 |
| 20260507101626 | 34 | 340 | 0.0 | 1.0 | 0.00 | 0.00 | 0.00 | 91 | 1012.1 |
| 20260507101548 | 34 | 340 | 0.0 | 1.0 | 0.00 | 0.00 | 0.00 | 91 | 1012.1 |
| 20260507101519 | 34 | 339 | 0.0 | 1.0 | 0.00 | 0.00 | 0.00 | 91 | 1012.1 |
| 20260507101413 | 34 | 340 | 0.0 | 1.0 | 0.00 | 0.00 | 0.00 | 91 | 1012.4 |
| 20260507101308 | 34 | 339 | 0.0 | 1.0 | 0.00 | 0.00 | 0.00 | 90 | 1012.4 |
| 20260507101202 | 35 | 339 | 0.0 | 0.0 | 0.00 | 0.00 | 0.00 | 90 | 1012.1 |
| 20260507101041 | 34 | 339 | 0.0 | 0.0 | 0.00 | 0.00 | 0.00 | 90 | 1012.4 |
| 20260507100951 | 34 | 339 | 0.0 | 0.0 | 0.00 | 0.00 | 0.00 | 90 | 1012.4 |
| 20260507100845 | 34 | 340 | 0.0 | 0.0 | 0.00 | 0.00 | 0.00 | 90 | 1012.1 |
| 20260507100753 | 34 | 340 | 0.0 | 0.0 | 0.00 | 0.00 | 0.00 | 90 | 1012.1 |
| 20260507100634 | 35 | 339 | 0.0 | 0.0 | 0.00 | 0.00 | 0.00 | 90 | 1012.1 |
| 20260507100529 | 35 | 339 | 0.0 | 0.0 | 0.00 | 0.00 | 0.00 | 90 | 1012.1 |
| 20260507100423 | 35 | 340 | 0.0 | 0.0 | 0.00 | 0.00 | 0.00 | 90 | 1012.1 |
| 20260507100317 | 35 | 340 | 0.0 | 0.0 | 0.00 | 0.00 | 0.00 | 90 | 1012.1 |
| 20260507100212 | 35 | 339 | 0.0 | 0.0 | 0.00 | 0.00 | 0.00 | 90 | 1011.8 |
| 20260507100119 | 35 | 339 | 0.0 | 0.0 | 0.00 | 0.00 | 0.00 | 90 | 1012.1 |
| 20260507100028 | 35 | 339 | 0.0 | 0.0 | 0.00 | 0.00 | 0.00 | 90 | 1012.4 |
| 20260507100000 | 35 | 339 | 0.0 | 0.0 | 0.00 | 0.00 | 0.00 | 90 | 1012.4 |
| 20260507095854 | 35 | 340 | 0.0 | 0.0 | 0.00 | 0.00 | 0.00 | 90 | 1012.4 |
| 20260507095750 | 35 | 340 | 0.0 | 0.0 | 0.00 | 0.00 | 0.00 | 90 | 1012.4 |
| 20260507095644 | 35 | 340 | 0.0 | 0.0 | 0.00 | 0.00 | 0.00 | 90 | 1012.1 |
| 20260507095522 | 35 | 340 | 0.0 | 0.0 | 0.00 | 0.00 | 0.00 | 90 | 1012.1 |
| 20260507095431 | 35 | 340 | 0.0 | 0.0 | 0.00 | 0.00 | 0.00 | 90 | 1012.1 |
| 20260507095326 | 35 | 340 | 0.0 | 0.0 | 0.00 | 0.00 | 0.00 | 90 | 1012.4 |
| 20260507095220 | 35 | 340 | 0.0 | 0.0 | 0.00 | 0.00 | 0.00 | 90 | 1012.1 |
| 20260507095114 | 35 | 340 | 0.0 | 0.0 | 0.00 | 0.00 | 0.00 | 90 | 1012.1 |
| 20260507095015 | 35 | 340 | 0.0 | 0.0 | 0.00 | 0.00 | 0.00 | 89 | 1012.1 |
| 20260507095008 | 35 | 340 | 0.0 | 0.0 | 0.00 | 0.00 | 0.00 | 89 | 1012.1 |
| 20260507094902 | 35 | 340 | 0.0 | 0.0 | 0.00 | 0.00 | 0.00 | 89 | 1012.4 |
| 20260507094756 | 35 | 340 | 0.0 | 0.0 | 0.00 | 0.00 | 0.00 | 89 | 1012.1 |
| 20260507094651 | 35 | 340 | 0.0 | 0.0 | 0.00 | 0.00 | 0.00 | 89 | 1012.4 |
| 20260507094546 | 35 | 340 | 0.0 | 0.0 | 0.00 | 0.00 | 0.00 | 89 | 1012.1 |
| 20260507094508 | 35 | 340 | 0.0 | 0.0 | 0.00 | 0.00 | 0.00 | 89 | 1012.1 |
| 20260507094439 | 35 | 340 | 0.0 | 0.0 | 0.00 | 0.00 | 0.00 | 89 | 1012.1 |
| 20260507094335 | 35 | 340 | 0.0 | 0.0 | 0.00 | 0.00 | 0.00 | 89 | 1012.1 |
| 20260507094228 | 36 | 340 | 0.0 | 0.0 | 0.00 | 0.00 | 0.00 | 89 | 1012.1 |
| 20260507094120 | 36 | 340 | 0.0 | 0.0 | 0.00 | 0.00 | 0.00 | 89 | 1012.1 |
| 20260507094015 | 36 | 340 | 0.0 | 0.0 | 0.00 | 0.00 | 0.00 | 89 | 1012.1 |
| 20260507093959 | 36 | 340 | 0.0 | 0.0 | 0.00 | 0.00 | 0.00 | 89 | 1012.1 |
| 20260507093909 | 36 | 340 | 0.0 | 0.0 | 0.00 | 0.00 | 0.00 | 89 | 1012.4 |
| 20260507093803 | 36 | 340 | 0.0 | 0.0 | 0.00 | 0.00 | 0.00 | 88 | 1012.4 |
| 20260507093658 | 36 | 340 | 0.0 | 0.0 | 0.00 | 0.00 | 0.00 | 88 | 1012.4 |
| 20260507093553 | 36 | 340 | 0.0 | 0.0 | 0.00 | 0.00 | 0.00 | 88 | 1012.4 |
| 20260507093446 | 36 | 340 | 0.0 | 0.0 | 0.00 | 0.00 | 0.00 | 88 | 1012.1 |
| 20260507093340 | 36 | 340 | 0.0 | 0.0 | 0.00 | 0.00 | 0.00 | 88 | 1012.4 |
| 20260507093234 | 36 | 340 | 0.0 | 0.0 | 0.00 | 0.00 | 0.00 | 88 | 1012.4 |
| 20260507093131 | 36 | 340 | 0.0 | 0.0 | 0.00 | 0.00 | 0.00 | 88 | 1012.4 |
| 20260507093023 | 36 | 340 | 0.0 | 0.0 | 0.00 | 0.00 | 0.00 | 88 | 1012.1 |
| 20260507092946 | 36 | 340 | 0.0 | 0.0 | 0.00 | 0.00 | 0.00 | 87 | 1012.1 |
| 20260507092918 | 36 | 340 | 0.0 | 0.0 | 0.00 | 0.00 | 0.00 | 87 | 1012.4 |
| 20260507092812 | 36 | 340 | 0.0 | 0.0 | 0.00 | 0.00 | 0.00 | 87 | 1012.1 |
| 20260507092706 | 36 | 340 | 0.0 | 0.0 | 0.00 | 0.00 | 0.00 | 87 | 1012.4 |
| 20260507092600 | 36 | 340 | 0.0 | 0.0 | 0.00 | 0.00 | 0.00 | 87 | 1012.1 |
| 20260507092440 | 36 | 340 | 0.0 | 0.0 | 0.00 | 0.00 | 0.00 | 87 | 1012.4 |
| 20260507092349 | 36 | 340 | 0.0 | 0.0 | 0.00 | 0.00 | 0.00 | 87 | 1012.4 |
| 20260507092243 | 36 | 340 | 0.0 | 0.0 | 0.00 | 0.00 | 0.00 | 86 | 1012.1 |
| 20260507092151 | 36 | 338 | 0.0 | 0.0 | 0.00 | 0.00 | 0.00 | 86 | 1012.4 |
| 20260507092033 | 36 | 338 | 0.0 | 0.0 | 0.00 | 0.00 | 0.00 | 86 | 1012.1 |
| 20260507091926 | 36 | 338 | 0.0 | 0.0 | 0.00 | 0.00 | 0.00 | 86 | 1012.1 |
| 20260507091821 | 36 | 338 | 0.0 | 0.0 | 0.00 | 0.00 | 0.00 | 86 | 1012.1 |
| 20260507091715 | 36 | 338 | 0.0 | 0.0 | 0.00 | 0.00 | 0.00 | 86 | 1012.4 |
| 20260507091610 | 36 | 338 | 0.0 | 0.0 | 0.00 | 0.00 | 0.00 | 86 | 1012.1 |
| 20260507091503 | 36 | 338 | 0.0 | 0.0 | 0.00 | 0.00 | 0.00 | 86 | 1012.4 |
| 20260507091426 | 36 | 338 | 0.0 | 0.0 | 0.00 | 0.00 | 0.00 | 86 | 1012.1 |
| 20260507091358 | 36 | 338 | 0.0 | 0.0 | 0.00 | 0.00 | 0.00 | 86 | 1012.1 |
| 20260507091252 | 36 | 338 | 0.0 | 0.0 | 0.00 | 0.00 | 0.00 | 86 | 1012.4 |
| 20260507091146 | 36 | 338 | 0.0 | 0.0 | 0.00 | 0.00 | 0.00 | 86 | 1012.4 |
| 20260507091041 | 36 | 338 | 0.0 | 0.0 | 0.00 | 0.00 | 0.00 | 86 | 1012.4 |
| 20260507090920 | 37 | 338 | 0.0 | 0.0 | 0.00 | 0.00 | 0.00 | 86 | 1012.4 |
| 20260507090830 | 37 | 338 | 0.0 | 0.0 | 0.00 | 0.00 | 0.00 | 86 | 1012.4 |
| 20260507090724 | 36 | 338 | 0.0 | 0.0 | 0.00 | 0.00 | 0.00 | 86 | 1012.4 |
| 20260507090618 | 36 | 338 | 0.0 | 0.0 | 0.00 | 0.00 | 0.00 | 86 | 1012.4 |
| 20260507090513 | 37 | 338 | 0.0 | 0.0 | 0.00 | 0.00 | 0.00 | 86 | 1012.1 |
| 20260507090421 | 37 | 338 | 0.0 | 0.0 | 0.00 | 0.00 | 0.00 | 87 | 1012.4 |
| 20260507090301 | 37 | 338 | 0.0 | 0.0 | 0.00 | 0.00 | 0.00 | 87 | 1012.4 |
| 20260507090157 | 36 | 338 | 0.0 | 0.0 | 0.00 | 0.00 | 0.00 | 87 | 1012.4 |
| 20260507085944 | 36 | 340 | 0.0 | 0.0 | 0.00 | 0.00 | 0.00 | 87 | 1012.4 |
| 20260507085907 | 36 | 340 | 0.0 | 0.0 | 0.00 | 0.00 | 0.00 | 87 | 1012.4 |
| 20260507085839 | 36 | 340 | 0.0 | 0.0 | 0.00 | 0.00 | 0.00 | 87 | 1012.4 |
| 20260507085733 | 36 | 340 | 0.0 | 0.0 | 0.00 | 0.00 | 0.00 | 87 | 1012.4 |
| 20260507085627 | 36 | 340 | 0.0 | 0.0 | 0.00 | 0.00 | 0.00 | 87 | 1012.4 |
| 20260507085523 | 36 | 340 | 0.0 | 0.0 | 0.00 | 0.00 | 0.00 | 87 | 1012.4 |
| 20260507085401 | 36 | 340 | 0.0 | 0.0 | 0.00 | 0.00 | 0.00 | 87 | 1012.4 |
| 20260507085311 | 36 | 340 | 0.0 | 0.0 | 0.00 | 0.00 | 0.00 | 87 | 1012.4 |
| 20260507085205 | 36 | 340 | 0.0 | 0.0 | 0.00 | 0.00 | 0.00 | 87 | 1012.4 |
| 20260507085100 | 36 | 340 | 0.0 | 0.0 | 0.00 | 0.00 | 0.00 | 87 | 1012.4 |
| 20260507084954 | 36 | 340 | 0.0 | 0.0 | 0.00 | 0.00 | 0.00 | 86 | 1012.4 |
| 20260507084849 | 36 | 340 | 0.0 | 0.0 | 0.00 | 0.00 | 0.00 | 86 | 1012.4 |
| 20260507084743 | 36 | 340 | 0.0 | 0.0 | 0.00 | 0.00 | 0.00 | 86 | 1012.4 |
| 20260507084637 | 36 | 340 | 0.0 | 0.0 | 0.00 | 0.00 | 0.00 | 86 | 1012.4 |
| 20260507084532 | 36 | 340 | 0.0 | 0.0 | 0.00 | 0.00 | 0.00 | 86 | 1012.4 |
| 20260507084426 | 36 | 340 | 0.0 | 0.0 | 0.00 | 0.00 | 0.00 | 86 | 1012.4 |
| 20260507084320 | 37 | 340 | 0.0 | 0.0 | 0.00 | 0.00 | 0.00 | 86 | 1012.4 |
| 20260507084214 | 37 | 340 | 0.0 | 0.0 | 0.00 | 0.00 | 0.00 | 86 | 1012.8 |
| 20260507084108 | 37 | 340 | 0.0 | 0.0 | 0.00 | 0.00 | 0.00 | 86 | 1012.4 |
| 20260507084003 | 37 | 340 | 0.0 | 0.0 | 0.00 | 0.00 | 0.00 | 86 | 1012.4 |
| 20260507083841 | 37 | 340 | 0.0 | 0.0 | 0.00 | 0.00 | 0.00 | 86 | 1012.4 |
| 20260507083751 | 37 | 340 | 0.0 | 0.0 | 0.00 | 0.00 | 0.00 | 85 | 1012.4 |
| 20260507083658 | 37 | 340 | 0.0 | 0.0 | 0.00 | 0.00 | 0.00 | 85 | 1012.4 |
| 20260507083539 | 37 | 340 | 0.0 | 0.0 | 0.00 | 0.00 | 0.00 | 85 | 1012.4 |
| 20260507083433 | 37 | 340 | 0.0 | 0.0 | 0.00 | 0.00 | 0.00 | 85 | 1012.4 |
| 20260507083327 | 37 | 340 | 0.0 | 0.0 | 0.00 | 0.00 | 0.00 | 85 | 1012.1 |
| 20260507083222 | 37 | 340 | 0.0 | 0.0 | 0.00 | 0.00 | 0.00 | 85 | 1012.4 |
| 20260507083114 | 37 | 340 | 0.0 | 0.0 | 0.00 | 0.00 | 0.00 | 85 | 1012.4 |
| 20260507083009 | 37 | 340 | 0.0 | 0.0 | 0.00 | 0.00 | 0.00 | 84 | 1012.8 |
| 20260507082904 | 37 | 340 | 0.0 | 0.0 | 0.00 | 0.00 | 0.00 | 84 | 1012.4 |
| 20260507082827 | 37 | 340 | 0.0 | 0.0 | 0.00 | 0.00 | 0.00 | 84 | 1012.4 |
| 20260507082757 | 37 | 340 | 0.0 | 0.0 | 0.00 | 0.00 | 0.00 | 84 | 1012.4 |
| 20260507082651 | 37 | 340 | 0.0 | 0.0 | 0.00 | 0.00 | 0.00 | 83 | 1012.4 |
| 20260507082547 | 37 | 340 | 0.0 | 0.0 | 0.00 | 0.00 | 0.00 | 83 | 1012.1 |
| 20260507082441 | 37 | 340 | 0.0 | 0.0 | 0.00 | 0.00 | 0.00 | 83 | 1012.4 |
| 20260507082320 | 37 | 340 | 0.0 | 0.0 | 0.00 | 0.00 | 0.00 | 83 | 1012.4 |
| 20260507082230 | 37 | 340 | 0.0 | 0.0 | 0.00 | 0.00 | 0.00 | 83 | 1012.4 |
| 20260507082123 | 37 | 340 | 0.0 | 0.0 | 0.00 | 0.00 | 0.00 | 82 | 1012.4 |
| 20260507082017 | 37 | 340 | 0.0 | 0.0 | 0.00 | 0.00 | 0.00 | 83 | 1012.1 |
| 20260507081913 | 37 | 340 | 0.0 | 0.0 | 0.00 | 0.00 | 0.00 | 83 | 1012.4 |
| 20260507081806 | 37 | 340 | 0.0 | 0.0 | 0.00 | 0.00 | 0.00 | 82 | 1012.4 |
| 20260507081700 | 37 | 340 | 0.0 | 0.0 | 0.00 | 0.00 | 0.00 | 81 | 1012.4 |
| 20260507081555 | 37 | 340 | 0.0 | 0.0 | 0.00 | 0.00 | 0.00 | 81 | 1012.4 |
| 20260507081449 | 37 | 340 | 0.0 | 0.0 | 0.00 | 0.00 | 0.00 | 81 | 1012.4 |
| 20260507081343 | 37 | 340 | 0.0 | 0.0 | 0.00 | 0.00 | 0.00 | 81 | 1012.4 |
| 20260507081307 | 37 | 340 | 0.0 | 0.0 | 0.00 | 0.00 | 0.00 | 81 | 1012.4 |
| 20260507081238 | 37 | 340 | 0.0 | 0.0 | 0.00 | 0.00 | 0.00 | 81 | 1012.4 |
| 20260507081131 | 37 | 340 | 0.0 | 0.0 | 0.00 | 0.00 | 0.00 | 81 | 1012.4 |
| 20260507081027 | 37 | 340 | 0.0 | 0.0 | 0.00 | 0.00 | 0.00 | 80 | 1012.1 |
| 20260507080922 | 38 | 340 | 0.0 | 0.0 | 0.00 | 0.00 | 0.00 | 80 | 1012.1 |
| 20260507080815 | 38 | 340 | 0.0 | 0.0 | 0.00 | 0.00 | 0.00 | 80 | 1012.4 |
| 20260507080759 | 38 | 340 | 0.0 | 0.0 | 0.00 | 0.00 | 0.00 | 80 | 1012.4 |
| 20260507080709 | 38 | 340 | 0.0 | 0.0 | 0.00 | 0.00 | 0.00 | 80 | 1012.1 |
| 20260507080617 | 38 | 340 | 0.0 | 0.0 | 0.00 | 0.00 | 0.00 | 80 | 1012.4 |
| 20260507080456 | 38 | 340 | 0.0 | 0.0 | 0.00 | 0.00 | 0.00 | 80 | 1012.1 |
| 20260507080350 | 38 | 340 | 0.0 | 0.0 | 0.00 | 0.00 | 0.00 | 80 | 1012.1 |
| 20260507080245 | 38 | 340 | 0.0 | 0.0 | 0.00 | 0.00 | 0.00 | 80 | 1012.4 |
| 20260507080139 | 38 | 340 | 0.0 | 0.0 | 0.00 | 0.00 | 0.00 | 80 | 1012.1 |
| 20260507080034 | 38 | 340 | 0.0 | 0.0 | 0.00 | 0.00 | 0.00 | 80 | 1012.1 |
| 20260507075929 | 38 | 340 | 0.0 | 0.0 | 0.00 | 0.00 | 0.00 | 79 | 1012.4 |
| 20260507075822 | 38 | 340 | 0.0 | 0.0 | 0.00 | 0.00 | 0.00 | 79 | 1012.1 |
| 20260507075745 | 38 | 340 | 0.0 | 0.0 | 0.00 | 0.00 | 0.00 | 79 | 1012.1 |
| 20260507075717 | 38 | 340 | 0.0 | 0.0 | 0.00 | 0.00 | 0.00 | 79 | 1012.4 |
| 20260507075609 | 38 | 340 | 0.0 | 0.0 | 0.00 | 0.00 | 0.00 | 78 | 1012.4 |
| 20260507075502 | 38 | 340 | 0.0 | 0.0 | 0.00 | 0.00 | 0.00 | 78 | 1012.1 |
| 20260507075357 | 38 | 340 | 0.0 | 0.0 | 0.00 | 0.00 | 0.00 | 78 | 1012.4 |
| 20260507075236 | 38 | 340 | 0.0 | 0.0 | 0.00 | 0.00 | 0.00 | 78 | 1012.4 |
| 20260507075146 | 38 | 340 | 0.0 | 0.0 | 0.00 | 0.00 | 0.00 | 78 | 1012.4 |
| 20260507075040 | 38 | 340 | 0.0 | 0.0 | 0.00 | 0.00 | 0.00 | 78 | 1012.4 |
| 20260507074934 | 38 | 340 | 0.0 | 0.0 | 0.00 | 0.00 | 0.00 | 77 | 1012.4 |
| 20260507074828 | 38 | 340 | 0.0 | 0.0 | 0.00 | 0.00 | 0.00 | 77 | 1012.8 |
| 20260507074723 | 38 | 340 | 0.0 | 0.0 | 0.00 | 0.00 | 0.00 | 77 | 1012.1 |
| 20260507074616 | 38 | 340 | 0.0 | 0.0 | 0.00 | 0.00 | 0.00 | 76 | 1012.4 |
| 20260507074512 | 38 | 340 | 0.0 | 0.0 | 0.00 | 0.00 | 0.00 | 76 | 1012.4 |
| 20260507074406 | 38 | 340 | 0.0 | 0.0 | 0.00 | 0.00 | 0.00 | 76 | 1012.4 |
| 20260507074259 | 39 | 340 | 0.0 | 0.0 | 0.00 | 0.00 | 0.00 | 76 | 1012.4 |
| 20260507074222 | 39 | 340 | 0.0 | 0.0 | 0.00 | 0.00 | 0.00 | 76 | 1012.1 |
| 20260507074154 | 39 | 340 | 0.0 | 0.0 | 0.00 | 0.00 | 0.00 | 76 | 1012.1 |
| 20260507074048 | 39 | 340 | 0.0 | 0.0 | 0.00 | 0.00 | 0.00 | 76 | 1012.4 |
| 20260507073942 | 39 | 340 | 0.0 | 0.0 | 0.00 | 0.00 | 0.00 | 76 | 1012.4 |
| 20260507073836 | 39 | 340 | 0.0 | 0.0 | 0.00 | 0.00 | 0.00 | 75 | 1012.4 |
| 20260507073716 | 39 | 340 | 0.0 | 0.0 | 0.00 | 0.00 | 0.00 | 75 | 1012.4 |
| 20260507073625 | 39 | 340 | 0.0 | 0.0 | 0.00 | 0.00 | 0.00 | 76 | 1012.4 |
| 20260507073520 | 39 | 340 | 0.0 | 0.0 | 0.00 | 0.00 | 0.00 | 76 | 1012.4 |
| 20260507073414 | 38 | 340 | 0.0 | 0.0 | 0.00 | 0.00 | 0.00 | 76 | 1012.4 |
| 20260507073309 | 38 | 340 | 0.0 | 0.0 | 0.00 | 0.00 | 0.00 | 76 | 1012.4 |
| 20260507073210 | 38 | 340 | 0.0 | 0.0 | 0.00 | 0.00 | 0.00 | 76 | 1012.4 |
| 20260507073203 | 38 | 340 | 0.0 | 0.0 | 0.00 | 0.00 | 0.00 | 77 | 1012.4 |
| 20260507073056 | 38 | 340 | 0.0 | 0.0 | 0.00 | 0.00 | 0.00 | 77 | 1012.1 |
| 20260507072952 | 38 | 340 | 0.0 | 0.0 | 0.00 | 0.00 | 0.00 | 77 | 1012.4 |
| 20260507072846 | 39 | 340 | 0.0 | 0.0 | 0.00 | 0.00 | 0.00 | 77 | 1012.4 |
| 20260507072743 | 39 | 340 | 0.0 | 0.0 | 0.00 | 0.00 | 0.00 | 77 | 1012.4 |
| 20260507072705 | 39 | 340 | 0.0 | 0.0 | 0.00 | 0.00 | 0.00 | 77 | 1012.4 |
| 20260507072636 | 39 | 340 | 0.0 | 0.0 | 0.00 | 0.00 | 0.00 | 76 | 1012.4 |
| 20260507072529 | 39 | 340 | 0.0 | 0.0 | 0.00 | 0.00 | 0.00 | 76 | 1012.4 |
| 20260507072424 | 39 | 340 | 0.0 | 0.0 | 0.00 | 0.00 | 0.00 | 76 | 1012.4 |
| 20260507072318 | 39 | 340 | 0.0 | 0.0 | 0.00 | 0.00 | 0.00 | 75 | 1012.4 |
| 20260507072213 | 39 | 340 | 0.0 | 0.0 | 0.00 | 0.00 | 0.00 | 75 | 1012.1 |
| 20260507072157 | 39 | 340 | 0.0 | 0.0 | 0.00 | 0.00 | 0.00 | 74 | 1012.1 |
| 20260507072107 | 39 | 340 | 0.0 | 0.0 | 0.00 | 0.00 | 0.00 | 74 | 1012.4 |
| 20260507072001 | 39 | 340 | 0.0 | 0.0 | 0.00 | 0.00 | 0.00 | 74 | 1012.4 |
| 20260507071857 | 39 | 340 | 0.0 | 0.0 | 0.00 | 0.00 | 0.00 | 75 | 1012.4 |
| 20260507071751 | 39 | 340 | 0.0 | 0.0 | 0.00 | 0.00 | 0.00 | 76 | 1012.4 |
| 20260507071646 | 40 | 340 | 0.0 | 0.0 | 0.00 | 0.00 | 0.00 | 77 | 1012.4 |
| 20260507071536 | 40 | 340 | 0.0 | 0.0 | 0.00 | 0.00 | 0.00 | 76 | 1012.4 |
| 20260507071433 | 40 | 340 | 0.0 | 0.0 | 0.00 | 0.00 | 0.00 | 74 | 1012.4 |
| 20260507071327 | 40 | 340 | 0.0 | 0.0 | 0.00 | 0.00 | 0.00 | 72 | 1012.8 |
| 20260507071219 | 40 | 340 | 0.0 | 0.0 | 0.00 | 0.00 | 0.00 | 72 | 1012.4 |
| 20260507071113 | 40 | 340 | 0.0 | 0.0 | 0.00 | 0.00 | 0.00 | 72 | 1012.4 |
| 20260507071007 | 41 | 340 | 0.0 | 0.0 | 0.00 | 0.00 | 0.00 | 71 | 1012.4 |
| 20260507070902 | 41 | 340 | 0.0 | 0.0 | 0.00 | 0.00 | 0.00 | 70 | 1012.4 |
| 20260507070807 | 42 | 340 | 0.0 | 0.0 | 0.00 | 0.00 | 0.00 | 69 | 1012.4 |
| 20260507070803 | 43 | 340 | 0.0 | 0.0 | 0.00 | 0.00 | 0.00 | 66 | 1012.4 |
| 20260507070759 | 41 | 340 | 0.0 | 0.0 | 0.00 | 0.00 | 0.00 | 70 | 1012.4 |
| 20260507070749 | 43 | 340 | 0.0 | 1.0 | 0.00 | 0.00 | 0.00 | 65 | 1012.4 |
| 20260507070745 | 41 | 340 | 0.0 | 0.0 | 0.00 | 0.00 | 0.00 | 69 | 1012.4 |
| 20260507070741 | 42 | 340 | 0.0 | 0.0 | 0.00 | 0.00 | 0.00 | 68 | 1012.4 |
| 20260507070730 | 40 | 340 | 0.0 | 0.0 | 0.00 | 0.00 | 0.00 | 70 | 1012.4 |
| 20260507070721 | 40 | 340 | 0.0 | 0.0 | 0.00 | 0.00 | 0.00 | 70 | 1012.4 |
| 20260507070501 | 41 | 340 | 0.0 | 0.0 | 0.00 | 0.00 | 0.00 | 71 | 1012.4 |
| 20260507070457 | 40 | 340 | 0.0 | 0.0 | 0.00 | 0.00 | 0.00 | 70 | 1012.4 |
| 20260507070448 | 41 | 340 | 0.0 | 0.0 | 0.00 | 0.00 | 0.00 | 71 | 1012.4 |
| 20260507070439 | 41 | 340 | 0.0 | 0.0 | 0.00 | 0.00 | 0.00 | 71 | 1012.4 |
| 20260507070218 | 41 | 340 | 0.0 | 0.0 | 0.00 | 0.00 | 0.00 | 72 | 1012.4 |
| 20260507070209 | 41 | 340 | 0.0 | 0.0 | 0.00 | 0.00 | 0.00 | 71 | 1012.4 |
| 20260507065945 | 41 | 340 | 0.0 | 0.0 | 0.00 | 0.00 | 0.00 | 70 | 1012.4 |
| 20260507065936 | 41 | 340 | 0.0 | 0.0 | 0.00 | 0.00 | 0.00 | 71 | 1012.4 |
| 20260507065927 | 41 | 340 | 0.0 | 0.0 | 0.00 | 0.00 | 0.00 | 69 | 1012.4 |
| 20260507065701 | 41 | 340 | 0.0 | 0.0 | 0.00 | 0.00 | 0.00 | 69 | 1012.4 |
| 20260507065652 | 41 | 340 | 0.0 | 0.0 | 0.00 | 0.00 | 0.00 | 70 | 1012.4 |
| 20260507065428 | 41 | 340 | 0.0 | 0.0 | 0.00 | 0.00 | 0.00 | 70 | 1012.4 |
| 20260507065419 | 41 | 340 | 0.0 | 0.0 | 0.00 | 0.00 | 0.00 | 70 | 1012.4 |
| 20260507065408 | 41 | 340 | 0.0 | 0.0 | 0.00 | 0.00 | 0.00 | 69 | 1012.1 |
| 20260507065144 | 41 | 340 | 0.0 | 0.0 | 0.00 | 0.00 | 0.00 | 69 | 1012.4 |
| 20260507064920 | 41 | 340 | 0.0 | 0.0 | 0.00 | 0.00 | 0.00 | 69 | 1012.4 |
| 20260507064912 | 42 | 340 | 0.0 | 0.0 | 0.00 | 0.00 | 0.00 | 68 | 1012.4 |
| 20260507064903 | 42 | 340 | 0.0 | 0.0 | 0.00 | 0.00 | 0.00 | 68 | 1012.4 |
| 20260507064641 | 42 | 340 | 0.0 | 0.0 | 0.00 | 0.00 | 0.00 | 68 | 1012.4 |
| 20260507064632 | 42 | 340 | 0.0 | 0.0 | 0.00 | 0.00 | 0.00 | 68 | 1012.4 |
| 20260507064412 | 43 | 340 | 0.0 | 0.0 | 0.00 | 0.00 | 0.00 | 66 | 1012.4 |
| 20260507064408 | 42 | 340 | 0.0 | 0.0 | 0.00 | 0.00 | 0.00 | 69 | 1012.4 |
| 20260507064359 | 42 | 340 | 0.0 | 0.0 | 0.00 | 0.00 | 0.00 | 69 | 1012.4 |
| 20260507064350 | 42 | 340 | 0.0 | 0.0 | 0.00 | 0.00 | 0.00 | 69 | 1012.4 |
| 20260507064129 | 42 | 340 | 0.0 | 0.0 | 0.00 | 0.00 | 0.00 | 69 | 1012.4 |
| 20260507064120 | 42 | 340 | 0.0 | 0.0 | 0.00 | 0.00 | 0.00 | 67 | 1012.4 |
| 20260507063856 | 42 | 340 | 0.0 | 0.0 | 0.00 | 0.00 | 0.00 | 67 | 1012.1 |
| 20260507063848 | 43 | 340 | 0.0 | 0.0 | 0.00 | 0.00 | 0.00 | 67 | 1012.4 |
| 20260507063836 | 43 | 340 | 0.0 | 0.0 | 0.00 | 0.00 | 0.00 | 66 | 1012.4 |
| 20260507063617 | 43 | 340 | 0.0 | 0.0 | 0.00 | 0.00 | 0.00 | 66 | 1012.4 |
| 20260507063607 | 43 | 340 | 0.0 | 0.0 | 0.00 | 0.00 | 0.00 | 66 | 1012.4 |
| 20260507063345 | 43 | 340 | 0.0 | 0.0 | 0.00 | 0.00 | 0.00 | 66 | 1012.4 |
| 20260507063336 | 43 | 340 | 0.0 | 0.0 | 0.00 | 0.00 | 0.00 | 66 | 1012.4 |
| 20260507063111 | 43 | 340 | 0.0 | 0.0 | 0.00 | 0.00 | 0.00 | 66 | 1012.4 |
| 20260507063049 | 43 | 340 | 0.0 | 0.0 | 0.00 | 0.00 | 0.00 | 65 | 1012.4 |
| 20260507063040 | 43 | 340 | 0.0 | 0.0 | 0.00 | 0.00 | 0.00 | 65 | 1012.4 |
| 20260507062817 | 43 | 340 | 0.0 | 0.0 | 0.00 | 0.00 | 0.00 | 65 | 1012.4 |
| 20260507062808 | 43 | 340 | 0.0 | 1.0 | 0.00 | 0.00 | 0.00 | 65 | 1012.4 |
| 20260507062512 | 43 | 340 | 0.0 | 1.0 | 0.00 | 0.00 | 0.00 | 65 | 1012.4 |
| 20260507062406 | 43 | 340 | 0.0 | 1.0 | 0.00 | 0.00 | 0.00 | 64 | 1012.4 |
| 20260507062301 | 43 | 340 | 0.0 | 1.0 | 0.00 | 0.00 | 0.00 | 64 | 1012.4 |
| 20260507062155 | 44 | 340 | 0.0 | 1.0 | 0.00 | 0.00 | 0.00 | 64 | 1012.4 |
| 20260507062049 | 44 | 340 | 0.0 | 2.0 | 0.00 | 0.00 | 0.00 | 64 | 1012.4 |
| 20260507061943 | 44 | 340 | 0.0 | 2.0 | 0.00 | 0.00 | 0.00 | 64 | 1012.4 |
| 20260507061837 | 44 | 340 | 0.0 | 2.0 | 0.00 | 0.00 | 0.00 | 63 | 1012.4 |
| 20260507061732 | 44 | 340 | 0.0 | 2.0 | 0.00 | 0.00 | 0.00 | 63 | 1012.4 |
| 20260507061627 | 44 | 340 | 0.0 | 2.0 | 0.00 | 0.00 | 0.00 | 63 | 1012.4 |
| 20260507061538 | 44 | 340 | 0.0 | 2.0 | 0.00 | 0.00 | 0.00 | 64 | 1012.4 |
| 20260507061533 | 44 | 338 | 0.0 | 2.0 | 0.00 | 0.00 | 0.00 | 63 | 1012.4 |
| 20260507061416 | 44 | 338 | 0.0 | 2.0 | 0.00 | 0.00 | 0.00 | 63 | 1012.4 |
| 20260507061309 | 44 | 338 | 0.0 | 2.0 | 0.00 | 0.00 | 0.00 | 63 | 1012.4 |
| 20260507061204 | 44 | 339 | 0.0 | 2.0 | 0.00 | 0.00 | 0.00 | 63 | 1012.4 |
| 20260507061059 | 44 | 339 | 1.0 | 2.0 | 0.00 | 0.00 | 0.00 | 63 | 1012.4 |
| 20260507061031 | 44 | 340 | 2.0 | 2.0 | 0.00 | 0.00 | 0.00 | 63 | 1012.8 |
| 20260507060953 | 44 | 340 | 0.0 | 1.0 | 0.00 | 0.00 | 0.00 | 63 | 1012.8 |
| 20260507060847 | 44 | 340 | 0.0 | 1.0 | 0.00 | 0.00 | 0.00 | 63 | 1012.4 |
| 20260507060742 | 44 | 340 | 0.0 | 1.0 | 0.00 | 0.00 | 0.00 | 63 | 1012.4 |
| 20260507060636 | 44 | 340 | 0.0 | 1.0 | 0.00 | 0.00 | 0.00 | 63 | 1012.4 |
| 20260507060530 | 44 | 340 | 1.0 | 1.0 | 0.00 | 0.00 | 0.00 | 63 | 1012.4 |
| 20260507060425 | 44 | 340 | 0.0 | 1.0 | 0.00 | 0.00 | 0.00 | 62 | 1012.4 |
| 20260507060319 | 44 | 340 | 0.0 | 1.0 | 0.00 | 0.00 | 0.00 | 62 | 1012.4 |